<?xml version="1.0" encoding="UTF-8" standalone="no" ?>
<gpx xmlns="http://www.topografix.com/GPX/1/1" xmlns:xsi="http://www.w3.org/2001/XMLSchema-instance" xsi:schemaLocation="http://www.topografix.com/GPX/1/1 http://www.topografix.com/GPX/1/1/gpx.xsd" version="1.1" creator="VisuGPX - https://www.visugpx.com">
  <metadata>
    <name>CO Palanges niveau vert</name>
    <desc><![CDATA[Course d\'Orientation de niveau vert sur le PPO de Séverac l\'Eglise, balise n°19 et 30.]]></desc>
  </metadata>
  <trk>
    <name><![CDATA[Track_2013_03_04_13_36_28]]></name>
    <trkseg>
      <trkpt lat="44.36589" lon="2.85015">
        <ele>642</ele>
        <time>2013-03-04T12:36:28.000Z</time>
      </trkpt>
      <trkpt lat="44.3659" lon="2.85016">
        <ele>642</ele>
        <time>2013-03-04T12:36:30.070Z</time>
      </trkpt>
      <trkpt lat="44.36592" lon="2.85017">
        <ele>642</ele>
        <time>2013-03-04T12:36:36.950Z</time>
      </trkpt>
      <trkpt lat="44.36594" lon="2.85014">
        <ele>642</ele>
        <time>2013-03-04T12:36:38.850Z</time>
      </trkpt>
      <trkpt lat="44.36595" lon="2.85015">
        <ele>642</ele>
        <time>2013-03-04T12:36:42.850Z</time>
      </trkpt>
      <trkpt lat="44.36594" lon="2.85014">
        <ele>642</ele>
        <time>2013-03-04T12:36:49.950Z</time>
      </trkpt>
      <trkpt lat="44.36593" lon="2.85017">
        <ele>642</ele>
        <time>2013-03-04T12:36:51.950Z</time>
      </trkpt>
      <trkpt lat="44.3659" lon="2.85017">
        <ele>642</ele>
        <time>2013-03-04T12:36:53.850Z</time>
      </trkpt>
      <trkpt lat="44.36588" lon="2.85018">
        <ele>642</ele>
        <time>2013-03-04T12:36:55.950Z</time>
      </trkpt>
      <trkpt lat="44.36586" lon="2.8502">
        <ele>642</ele>
        <time>2013-03-04T12:36:57.860Z</time>
      </trkpt>
      <trkpt lat="44.36584" lon="2.85025">
        <ele>642</ele>
        <time>2013-03-04T12:36:59.730Z</time>
      </trkpt>
      <trkpt lat="44.36582" lon="2.85027">
        <ele>643</ele>
        <time>2013-03-04T12:37:00.940Z</time>
      </trkpt>
      <trkpt lat="44.36578" lon="2.85035">
        <ele>643</ele>
        <time>2013-03-04T12:37:02.840Z</time>
      </trkpt>
      <trkpt lat="44.36575" lon="2.85043">
        <ele>643</ele>
        <time>2013-03-04T12:37:04.840Z</time>
      </trkpt>
      <trkpt lat="44.36573" lon="2.8505">
        <ele>643</ele>
        <time>2013-03-04T12:37:06.840Z</time>
      </trkpt>
      <trkpt lat="44.3657" lon="2.85057">
        <ele>643</ele>
        <time>2013-03-04T12:37:08.940Z</time>
      </trkpt>
      <trkpt lat="44.36568" lon="2.85063">
        <ele>643</ele>
        <time>2013-03-04T12:37:11.130Z</time>
      </trkpt>
      <trkpt lat="44.36565" lon="2.85071">
        <ele>644</ele>
        <time>2013-03-04T12:37:12.840Z</time>
      </trkpt>
      <trkpt lat="44.36563" lon="2.85074">
        <ele>644</ele>
        <time>2013-03-04T12:37:13.840Z</time>
      </trkpt>
      <trkpt lat="44.36558" lon="2.85079">
        <ele>644</ele>
        <time>2013-03-04T12:37:15.840Z</time>
      </trkpt>
      <trkpt lat="44.36552" lon="2.8508">
        <ele>644</ele>
        <time>2013-03-04T12:37:17.940Z</time>
      </trkpt>
      <trkpt lat="44.36546" lon="2.85079">
        <ele>644</ele>
        <time>2013-03-04T12:37:19.840Z</time>
      </trkpt>
      <trkpt lat="44.3654" lon="2.85079">
        <ele>644</ele>
        <time>2013-03-04T12:37:21.840Z</time>
      </trkpt>
      <trkpt lat="44.36534" lon="2.85079">
        <ele>644</ele>
        <time>2013-03-04T12:37:23.840Z</time>
      </trkpt>
      <trkpt lat="44.36527" lon="2.8508">
        <ele>644</ele>
        <time>2013-03-04T12:37:25.840Z</time>
      </trkpt>
      <trkpt lat="44.36524" lon="2.85079">
        <ele>645</ele>
        <time>2013-03-04T12:37:26.840Z</time>
      </trkpt>
      <trkpt lat="44.36518" lon="2.85078">
        <ele>645</ele>
        <time>2013-03-04T12:37:28.840Z</time>
      </trkpt>
      <trkpt lat="44.36515" lon="2.85078">
        <ele>645</ele>
        <time>2013-03-04T12:37:30.130Z</time>
      </trkpt>
      <trkpt lat="44.3651" lon="2.85076">
        <ele>645</ele>
        <time>2013-03-04T12:37:31.940Z</time>
      </trkpt>
      <trkpt lat="44.36505" lon="2.85074">
        <ele>645</ele>
        <time>2013-03-04T12:37:33.890Z</time>
      </trkpt>
      <trkpt lat="44.36501" lon="2.85072">
        <ele>645</ele>
        <time>2013-03-04T12:37:35.940Z</time>
      </trkpt>
      <trkpt lat="44.36496" lon="2.8507">
        <ele>646</ele>
        <time>2013-03-04T12:37:38.130Z</time>
      </trkpt>
      <trkpt lat="44.36492" lon="2.8507">
        <ele>646</ele>
        <time>2013-03-04T12:37:40.130Z</time>
      </trkpt>
      <trkpt lat="44.36487" lon="2.8507">
        <ele>646</ele>
        <time>2013-03-04T12:37:41.930Z</time>
      </trkpt>
      <trkpt lat="44.36484" lon="2.85069">
        <ele>646</ele>
        <time>2013-03-04T12:37:43.130Z</time>
      </trkpt>
      <trkpt lat="44.36478" lon="2.85069">
        <ele>646</ele>
        <time>2013-03-04T12:37:44.930Z</time>
      </trkpt>
      <trkpt lat="44.36475" lon="2.8507">
        <ele>646</ele>
        <time>2013-03-04T12:37:46.130Z</time>
      </trkpt>
      <trkpt lat="44.36473" lon="2.85071">
        <ele>646</ele>
        <time>2013-03-04T12:37:47.130Z</time>
      </trkpt>
      <trkpt lat="44.36468" lon="2.8507">
        <ele>646</ele>
        <time>2013-03-04T12:37:48.930Z</time>
      </trkpt>
      <trkpt lat="44.36466" lon="2.85071">
        <ele>646</ele>
        <time>2013-03-04T12:37:50.140Z</time>
      </trkpt>
      <trkpt lat="44.36462" lon="2.85071">
        <ele>646</ele>
        <time>2013-03-04T12:37:52.130Z</time>
      </trkpt>
      <trkpt lat="44.3646" lon="2.85072">
        <ele>646</ele>
        <time>2013-03-04T12:37:53.140Z</time>
      </trkpt>
      <trkpt lat="44.36456" lon="2.85075">
        <ele>646</ele>
        <time>2013-03-04T12:37:54.930Z</time>
      </trkpt>
      <trkpt lat="44.36455" lon="2.85075">
        <ele>646</ele>
        <time>2013-03-04T12:37:56.130Z</time>
      </trkpt>
      <trkpt lat="44.36454" lon="2.85076">
        <ele>646</ele>
        <time>2013-03-04T12:37:57.930Z</time>
      </trkpt>
      <trkpt lat="44.36453" lon="2.85076">
        <ele>646</ele>
        <time>2013-03-04T12:38:00.130Z</time>
      </trkpt>
      <trkpt lat="44.3645" lon="2.85076">
        <ele>646</ele>
        <time>2013-03-04T12:38:05.130Z</time>
      </trkpt>
      <trkpt lat="44.36445" lon="2.85077">
        <ele>646</ele>
        <time>2013-03-04T12:38:07.130Z</time>
      </trkpt>
      <trkpt lat="44.3644" lon="2.85076">
        <ele>647</ele>
        <time>2013-03-04T12:38:09.130Z</time>
      </trkpt>
      <trkpt lat="44.36436" lon="2.85076">
        <ele>647</ele>
        <time>2013-03-04T12:38:11.130Z</time>
      </trkpt>
      <trkpt lat="44.3643" lon="2.85075">
        <ele>647</ele>
        <time>2013-03-04T12:38:13.030Z</time>
      </trkpt>
      <trkpt lat="44.36425" lon="2.85074">
        <ele>647</ele>
        <time>2013-03-04T12:38:14.930Z</time>
      </trkpt>
      <trkpt lat="44.36423" lon="2.85074">
        <ele>647</ele>
        <time>2013-03-04T12:38:16.030Z</time>
      </trkpt>
      <trkpt lat="44.36419" lon="2.85072">
        <ele>647</ele>
        <time>2013-03-04T12:38:18.030Z</time>
      </trkpt>
      <trkpt lat="44.36415" lon="2.85071">
        <ele>648</ele>
        <time>2013-03-04T12:38:19.920Z</time>
      </trkpt>
      <trkpt lat="44.36413" lon="2.8507">
        <ele>648</ele>
        <time>2013-03-04T12:38:21.020Z</time>
      </trkpt>
      <trkpt lat="44.36408" lon="2.85069">
        <ele>648</ele>
        <time>2013-03-04T12:38:22.920Z</time>
      </trkpt>
      <trkpt lat="44.36405" lon="2.85069">
        <ele>648</ele>
        <time>2013-03-04T12:38:24.010Z</time>
      </trkpt>
      <trkpt lat="44.36399" lon="2.85067">
        <ele>648</ele>
        <time>2013-03-04T12:38:25.920Z</time>
      </trkpt>
      <trkpt lat="44.36396" lon="2.85066">
        <ele>649</ele>
        <time>2013-03-04T12:38:27.020Z</time>
      </trkpt>
      <trkpt lat="44.36391" lon="2.85063">
        <ele>649</ele>
        <time>2013-03-04T12:38:28.920Z</time>
      </trkpt>
      <trkpt lat="44.36388" lon="2.85062">
        <ele>649</ele>
        <time>2013-03-04T12:38:30.020Z</time>
      </trkpt>
      <trkpt lat="44.36383" lon="2.8506">
        <ele>649</ele>
        <time>2013-03-04T12:38:31.930Z</time>
      </trkpt>
      <trkpt lat="44.3638" lon="2.85058">
        <ele>649</ele>
        <time>2013-03-04T12:38:33.020Z</time>
      </trkpt>
      <trkpt lat="44.36375" lon="2.85056">
        <ele>649</ele>
        <time>2013-03-04T12:38:35.020Z</time>
      </trkpt>
      <trkpt lat="44.36371" lon="2.85053">
        <ele>649</ele>
        <time>2013-03-04T12:38:36.920Z</time>
      </trkpt>
      <trkpt lat="44.36369" lon="2.85051">
        <ele>649</ele>
        <time>2013-03-04T12:38:38.020Z</time>
      </trkpt>
      <trkpt lat="44.36364" lon="2.85047">
        <ele>649</ele>
        <time>2013-03-04T12:38:39.920Z</time>
      </trkpt>
      <trkpt lat="44.36362" lon="2.85045">
        <ele>649</ele>
        <time>2013-03-04T12:38:41.020Z</time>
      </trkpt>
      <trkpt lat="44.36356" lon="2.85042">
        <ele>649</ele>
        <time>2013-03-04T12:38:42.920Z</time>
      </trkpt>
      <trkpt lat="44.36354" lon="2.8504">
        <ele>649</ele>
        <time>2013-03-04T12:38:44.020Z</time>
      </trkpt>
      <trkpt lat="44.36348" lon="2.85036">
        <ele>649</ele>
        <time>2013-03-04T12:38:46.020Z</time>
      </trkpt>
      <trkpt lat="44.36344" lon="2.85032">
        <ele>649</ele>
        <time>2013-03-04T12:38:47.920Z</time>
      </trkpt>
      <trkpt lat="44.36342" lon="2.85029">
        <ele>649</ele>
        <time>2013-03-04T12:38:49.020Z</time>
      </trkpt>
      <trkpt lat="44.36337" lon="2.85024">
        <ele>649</ele>
        <time>2013-03-04T12:38:50.900Z</time>
      </trkpt>
      <trkpt lat="44.36333" lon="2.8502">
        <ele>651</ele>
        <time>2013-03-04T12:38:52.900Z</time>
      </trkpt>
      <trkpt lat="44.36331" lon="2.85019">
        <ele>651</ele>
        <time>2013-03-04T12:38:54.020Z</time>
      </trkpt>
      <trkpt lat="44.36327" lon="2.85016">
        <ele>651</ele>
        <time>2013-03-04T12:38:55.920Z</time>
      </trkpt>
      <trkpt lat="44.36325" lon="2.85015">
        <ele>651</ele>
        <time>2013-03-04T12:38:57.020Z</time>
      </trkpt>
      <trkpt lat="44.3632" lon="2.85012">
        <ele>651</ele>
        <time>2013-03-04T12:38:58.920Z</time>
      </trkpt>
      <trkpt lat="44.36316" lon="2.85008">
        <ele>651</ele>
        <time>2013-03-04T12:39:00.910Z</time>
      </trkpt>
      <trkpt lat="44.36313" lon="2.85006">
        <ele>651</ele>
        <time>2013-03-04T12:39:02.010Z</time>
      </trkpt>
      <trkpt lat="44.36308" lon="2.85002">
        <ele>652</ele>
        <time>2013-03-04T12:39:03.910Z</time>
      </trkpt>
      <trkpt lat="44.36305" lon="2.85">
        <ele>652</ele>
        <time>2013-03-04T12:39:05.000Z</time>
      </trkpt>
      <trkpt lat="44.363" lon="2.84998">
        <ele>652</ele>
        <time>2013-03-04T12:39:06.910Z</time>
      </trkpt>
      <trkpt lat="44.36297" lon="2.84995">
        <ele>652</ele>
        <time>2013-03-04T12:39:08.010Z</time>
      </trkpt>
      <trkpt lat="44.36292" lon="2.84991">
        <ele>652</ele>
        <time>2013-03-04T12:39:09.910Z</time>
      </trkpt>
      <trkpt lat="44.3629" lon="2.84988">
        <ele>652</ele>
        <time>2013-03-04T12:39:11.010Z</time>
      </trkpt>
      <trkpt lat="44.36285" lon="2.84983">
        <ele>652</ele>
        <time>2013-03-04T12:39:12.910Z</time>
      </trkpt>
      <trkpt lat="44.36282" lon="2.84981">
        <ele>652</ele>
        <time>2013-03-04T12:39:14.010Z</time>
      </trkpt>
      <trkpt lat="44.36277" lon="2.84978">
        <ele>652</ele>
        <time>2013-03-04T12:39:15.910Z</time>
      </trkpt>
      <trkpt lat="44.36272" lon="2.84975">
        <ele>652</ele>
        <time>2013-03-04T12:39:17.890Z</time>
      </trkpt>
      <trkpt lat="44.36269" lon="2.84973">
        <ele>652</ele>
        <time>2013-03-04T12:39:19.010Z</time>
      </trkpt>
      <trkpt lat="44.36263" lon="2.8497">
        <ele>653</ele>
        <time>2013-03-04T12:39:20.910Z</time>
      </trkpt>
      <trkpt lat="44.36261" lon="2.84968">
        <ele>653</ele>
        <time>2013-03-04T12:39:22.010Z</time>
      </trkpt>
      <trkpt lat="44.36257" lon="2.84965">
        <ele>653</ele>
        <time>2013-03-04T12:39:23.920Z</time>
      </trkpt>
      <trkpt lat="44.36254" lon="2.84963">
        <ele>653</ele>
        <time>2013-03-04T12:39:25.010Z</time>
      </trkpt>
      <trkpt lat="44.36249" lon="2.84961">
        <ele>655</ele>
        <time>2013-03-04T12:39:26.910Z</time>
      </trkpt>
      <trkpt lat="44.36247" lon="2.84959">
        <ele>655</ele>
        <time>2013-03-04T12:39:28.010Z</time>
      </trkpt>
      <trkpt lat="44.36243" lon="2.84957">
        <ele>655</ele>
        <time>2013-03-04T12:39:29.910Z</time>
      </trkpt>
      <trkpt lat="44.36241" lon="2.84956">
        <ele>655</ele>
        <time>2013-03-04T12:39:31.010Z</time>
      </trkpt>
      <trkpt lat="44.36238" lon="2.84955">
        <ele>655</ele>
        <time>2013-03-04T12:39:32.910Z</time>
      </trkpt>
      <trkpt lat="44.36236" lon="2.84954">
        <ele>655</ele>
        <time>2013-03-04T12:39:34.910Z</time>
      </trkpt>
      <trkpt lat="44.36235" lon="2.84954">
        <ele>655</ele>
        <time>2013-03-04T12:39:36.010Z</time>
      </trkpt>
      <trkpt lat="44.36232" lon="2.84955">
        <ele>655</ele>
        <time>2013-03-04T12:39:37.910Z</time>
      </trkpt>
      <trkpt lat="44.36231" lon="2.84955">
        <ele>655</ele>
        <time>2013-03-04T12:39:39.010Z</time>
      </trkpt>
      <trkpt lat="44.36229" lon="2.84957">
        <ele>655</ele>
        <time>2013-03-04T12:39:40.900Z</time>
      </trkpt>
      <trkpt lat="44.36228" lon="2.84958">
        <ele>655</ele>
        <time>2013-03-04T12:39:42.000Z</time>
      </trkpt>
      <trkpt lat="44.36225" lon="2.84963">
        <ele>655</ele>
        <time>2013-03-04T12:39:43.900Z</time>
      </trkpt>
      <trkpt lat="44.36224" lon="2.84965">
        <ele>655</ele>
        <time>2013-03-04T12:39:45.000Z</time>
      </trkpt>
      <trkpt lat="44.36222" lon="2.84971">
        <ele>655</ele>
        <time>2013-03-04T12:39:46.900Z</time>
      </trkpt>
      <trkpt lat="44.36221" lon="2.84975">
        <ele>655</ele>
        <time>2013-03-04T12:39:48.000Z</time>
      </trkpt>
      <trkpt lat="44.36218" lon="2.84982">
        <ele>655</ele>
        <time>2013-03-04T12:39:49.900Z</time>
      </trkpt>
      <trkpt lat="44.36216" lon="2.84986">
        <ele>655</ele>
        <time>2013-03-04T12:39:50.960Z</time>
      </trkpt>
      <trkpt lat="44.36214" lon="2.84994">
        <ele>655</ele>
        <time>2013-03-04T12:39:52.900Z</time>
      </trkpt>
      <trkpt lat="44.36213" lon="2.84998">
        <ele>655</ele>
        <time>2013-03-04T12:39:54.000Z</time>
      </trkpt>
      <trkpt lat="44.3621" lon="2.85007">
        <ele>655</ele>
        <time>2013-03-04T12:39:55.900Z</time>
      </trkpt>
      <trkpt lat="44.36209" lon="2.85011">
        <ele>655</ele>
        <time>2013-03-04T12:39:57.000Z</time>
      </trkpt>
      <trkpt lat="44.36207" lon="2.8502">
        <ele>655</ele>
        <time>2013-03-04T12:39:58.900Z</time>
      </trkpt>
      <trkpt lat="44.36205" lon="2.85029">
        <ele>655</ele>
        <time>2013-03-04T12:40:00.900Z</time>
      </trkpt>
      <trkpt lat="44.36204" lon="2.85035">
        <ele>655</ele>
        <time>2013-03-04T12:40:02.000Z</time>
      </trkpt>
      <trkpt lat="44.36203" lon="2.85044">
        <ele>655</ele>
        <time>2013-03-04T12:40:03.900Z</time>
      </trkpt>
      <trkpt lat="44.36202" lon="2.85049">
        <ele>655</ele>
        <time>2013-03-04T12:40:05.000Z</time>
      </trkpt>
      <trkpt lat="44.36201" lon="2.85057">
        <ele>655</ele>
        <time>2013-03-04T12:40:07.000Z</time>
      </trkpt>
      <trkpt lat="44.36199" lon="2.85066">
        <ele>655</ele>
        <time>2013-03-04T12:40:08.900Z</time>
      </trkpt>
      <trkpt lat="44.36198" lon="2.85071">
        <ele>655</ele>
        <time>2013-03-04T12:40:10.000Z</time>
      </trkpt>
      <trkpt lat="44.36197" lon="2.8508">
        <ele>654</ele>
        <time>2013-03-04T12:40:11.900Z</time>
      </trkpt>
      <trkpt lat="44.36196" lon="2.85084">
        <ele>653</ele>
        <time>2013-03-04T12:40:13.000Z</time>
      </trkpt>
      <trkpt lat="44.36193" lon="2.85093">
        <ele>653</ele>
        <time>2013-03-04T12:40:15.000Z</time>
      </trkpt>
      <trkpt lat="44.36191" lon="2.85101">
        <ele>653</ele>
        <time>2013-03-04T12:40:16.850Z</time>
      </trkpt>
      <trkpt lat="44.3619" lon="2.85109">
        <ele>653</ele>
        <time>2013-03-04T12:40:18.900Z</time>
      </trkpt>
      <trkpt lat="44.36189" lon="2.85113">
        <ele>653</ele>
        <time>2013-03-04T12:40:20.000Z</time>
      </trkpt>
      <trkpt lat="44.36187" lon="2.85121">
        <ele>653</ele>
        <time>2013-03-04T12:40:21.900Z</time>
      </trkpt>
      <trkpt lat="44.36187" lon="2.8513">
        <ele>653</ele>
        <time>2013-03-04T12:40:23.890Z</time>
      </trkpt>
      <trkpt lat="44.36186" lon="2.85135">
        <ele>652</ele>
        <time>2013-03-04T12:40:24.980Z</time>
      </trkpt>
      <trkpt lat="44.36184" lon="2.85143">
        <ele>652</ele>
        <time>2013-03-04T12:40:26.990Z</time>
      </trkpt>
      <trkpt lat="44.36182" lon="2.85149">
        <ele>652</ele>
        <time>2013-03-04T12:40:28.890Z</time>
      </trkpt>
      <trkpt lat="44.36182" lon="2.85151">
        <ele>652</ele>
        <time>2013-03-04T12:40:29.990Z</time>
      </trkpt>
      <trkpt lat="44.36181" lon="2.85154">
        <ele>652</ele>
        <time>2013-03-04T12:40:31.990Z</time>
      </trkpt>
      <trkpt lat="44.36178" lon="2.85158">
        <ele>652</ele>
        <time>2013-03-04T12:40:33.870Z</time>
      </trkpt>
      <trkpt lat="44.36174" lon="2.85163">
        <ele>652</ele>
        <time>2013-03-04T12:40:35.890Z</time>
      </trkpt>
      <trkpt lat="44.36172" lon="2.85165">
        <ele>651</ele>
        <time>2013-03-04T12:40:36.990Z</time>
      </trkpt>
      <trkpt lat="44.36167" lon="2.85171">
        <ele>651</ele>
        <time>2013-03-04T12:40:38.870Z</time>
      </trkpt>
      <trkpt lat="44.36166" lon="2.85174">
        <ele>651</ele>
        <time>2013-03-04T12:40:39.990Z</time>
      </trkpt>
      <trkpt lat="44.36162" lon="2.8518">
        <ele>651</ele>
        <time>2013-03-04T12:40:41.890Z</time>
      </trkpt>
      <trkpt lat="44.3616" lon="2.85184">
        <ele>651</ele>
        <time>2013-03-04T12:40:42.990Z</time>
      </trkpt>
      <trkpt lat="44.36156" lon="2.85192">
        <ele>651</ele>
        <time>2013-03-04T12:40:44.890Z</time>
      </trkpt>
      <trkpt lat="44.36155" lon="2.85195">
        <ele>651</ele>
        <time>2013-03-04T12:40:45.990Z</time>
      </trkpt>
      <trkpt lat="44.36152" lon="2.85203">
        <ele>651</ele>
        <time>2013-03-04T12:40:47.890Z</time>
      </trkpt>
      <trkpt lat="44.36151" lon="2.85207">
        <ele>651</ele>
        <time>2013-03-04T12:40:48.990Z</time>
      </trkpt>
      <trkpt lat="44.36148" lon="2.85216">
        <ele>651</ele>
        <time>2013-03-04T12:40:50.940Z</time>
      </trkpt>
      <trkpt lat="44.36145" lon="2.85224">
        <ele>651</ele>
        <time>2013-03-04T12:40:52.990Z</time>
      </trkpt>
      <trkpt lat="44.36143" lon="2.85231">
        <ele>651</ele>
        <time>2013-03-04T12:40:54.890Z</time>
      </trkpt>
      <trkpt lat="44.36141" lon="2.85239">
        <ele>651</ele>
        <time>2013-03-04T12:40:56.890Z</time>
      </trkpt>
      <trkpt lat="44.36141" lon="2.85243">
        <ele>651</ele>
        <time>2013-03-04T12:40:57.990Z</time>
      </trkpt>
      <trkpt lat="44.36139" lon="2.85251">
        <ele>650</ele>
        <time>2013-03-04T12:40:59.940Z</time>
      </trkpt>
      <trkpt lat="44.36136" lon="2.85257">
        <ele>650</ele>
        <time>2013-03-04T12:41:01.880Z</time>
      </trkpt>
      <trkpt lat="44.36135" lon="2.8526">
        <ele>650</ele>
        <time>2013-03-04T12:41:02.980Z</time>
      </trkpt>
      <trkpt lat="44.36133" lon="2.85267">
        <ele>650</ele>
        <time>2013-03-04T12:41:04.980Z</time>
      </trkpt>
      <trkpt lat="44.36129" lon="2.85274">
        <ele>650</ele>
        <time>2013-03-04T12:41:06.880Z</time>
      </trkpt>
      <trkpt lat="44.36128" lon="2.85277">
        <ele>650</ele>
        <time>2013-03-04T12:41:07.890Z</time>
      </trkpt>
      <trkpt lat="44.36126" lon="2.85281">
        <ele>650</ele>
        <time>2013-03-04T12:41:08.980Z</time>
      </trkpt>
      <trkpt lat="44.36122" lon="2.85288">
        <ele>650</ele>
        <time>2013-03-04T12:41:10.880Z</time>
      </trkpt>
      <trkpt lat="44.36118" lon="2.85295">
        <ele>650</ele>
        <time>2013-03-04T12:41:12.880Z</time>
      </trkpt>
      <trkpt lat="44.36114" lon="2.85302">
        <ele>650</ele>
        <time>2013-03-04T12:41:14.880Z</time>
      </trkpt>
      <trkpt lat="44.36111" lon="2.85309">
        <ele>650</ele>
        <time>2013-03-04T12:41:16.940Z</time>
      </trkpt>
      <trkpt lat="44.36108" lon="2.85317">
        <ele>650</ele>
        <time>2013-03-04T12:41:18.880Z</time>
      </trkpt>
      <trkpt lat="44.36106" lon="2.85321">
        <ele>650</ele>
        <time>2013-03-04T12:41:19.960Z</time>
      </trkpt>
      <trkpt lat="44.36104" lon="2.8533">
        <ele>651</ele>
        <time>2013-03-04T12:41:21.980Z</time>
      </trkpt>
      <trkpt lat="44.36102" lon="2.85338">
        <ele>649</ele>
        <time>2013-03-04T12:41:23.880Z</time>
      </trkpt>
      <trkpt lat="44.361" lon="2.85347">
        <ele>649</ele>
        <time>2013-03-04T12:41:25.880Z</time>
      </trkpt>
      <trkpt lat="44.36097" lon="2.85356">
        <ele>649</ele>
        <time>2013-03-04T12:41:27.880Z</time>
      </trkpt>
      <trkpt lat="44.36094" lon="2.85364">
        <ele>648</ele>
        <time>2013-03-04T12:41:29.980Z</time>
      </trkpt>
      <trkpt lat="44.36092" lon="2.85372">
        <ele>648</ele>
        <time>2013-03-04T12:41:31.880Z</time>
      </trkpt>
      <trkpt lat="44.3609" lon="2.8538">
        <ele>648</ele>
        <time>2013-03-04T12:41:33.930Z</time>
      </trkpt>
      <trkpt lat="44.36087" lon="2.85388">
        <ele>648</ele>
        <time>2013-03-04T12:41:35.980Z</time>
      </trkpt>
      <trkpt lat="44.36084" lon="2.85394">
        <ele>648</ele>
        <time>2013-03-04T12:41:37.880Z</time>
      </trkpt>
      <trkpt lat="44.36082" lon="2.854">
        <ele>652</ele>
        <time>2013-03-04T12:41:39.880Z</time>
      </trkpt>
      <trkpt lat="44.3608" lon="2.85405">
        <ele>651</ele>
        <time>2013-03-04T12:41:41.880Z</time>
      </trkpt>
      <trkpt lat="44.36078" lon="2.8541">
        <ele>650</ele>
        <time>2013-03-04T12:41:43.870Z</time>
      </trkpt>
      <trkpt lat="44.36077" lon="2.85412">
        <ele>650</ele>
        <time>2013-03-04T12:41:44.970Z</time>
      </trkpt>
      <trkpt lat="44.36074" lon="2.85417">
        <ele>649</ele>
        <time>2013-03-04T12:41:46.870Z</time>
      </trkpt>
      <trkpt lat="44.36071" lon="2.85425">
        <ele>649</ele>
        <time>2013-03-04T12:41:48.870Z</time>
      </trkpt>
      <trkpt lat="44.3607" lon="2.85429">
        <ele>649</ele>
        <time>2013-03-04T12:41:49.970Z</time>
      </trkpt>
      <trkpt lat="44.36067" lon="2.85437">
        <ele>649</ele>
        <time>2013-03-04T12:41:51.970Z</time>
      </trkpt>
      <trkpt lat="44.36063" lon="2.85445">
        <ele>649</ele>
        <time>2013-03-04T12:41:53.870Z</time>
      </trkpt>
      <trkpt lat="44.36061" lon="2.85449">
        <ele>649</ele>
        <time>2013-03-04T12:41:54.970Z</time>
      </trkpt>
      <trkpt lat="44.36057" lon="2.85457">
        <ele>649</ele>
        <time>2013-03-04T12:41:56.970Z</time>
      </trkpt>
      <trkpt lat="44.36053" lon="2.85463">
        <ele>649</ele>
        <time>2013-03-04T12:41:58.870Z</time>
      </trkpt>
      <trkpt lat="44.36051" lon="2.85466">
        <ele>649</ele>
        <time>2013-03-04T12:41:59.930Z</time>
      </trkpt>
      <trkpt lat="44.36046" lon="2.85472">
        <ele>649</ele>
        <time>2013-03-04T12:42:01.860Z</time>
      </trkpt>
      <trkpt lat="44.36041" lon="2.85476">
        <ele>649</ele>
        <time>2013-03-04T12:42:03.970Z</time>
      </trkpt>
      <trkpt lat="44.36036" lon="2.85481">
        <ele>650</ele>
        <time>2013-03-04T12:42:05.870Z</time>
      </trkpt>
      <trkpt lat="44.3603" lon="2.85484">
        <ele>650</ele>
        <time>2013-03-04T12:42:07.870Z</time>
      </trkpt>
      <trkpt lat="44.36026" lon="2.85486">
        <ele>650</ele>
        <time>2013-03-04T12:42:09.870Z</time>
      </trkpt>
      <trkpt lat="44.36022" lon="2.85489">
        <ele>650</ele>
        <time>2013-03-04T12:42:11.870Z</time>
      </trkpt>
      <trkpt lat="44.36018" lon="2.85491">
        <ele>650</ele>
        <time>2013-03-04T12:42:13.870Z</time>
      </trkpt>
      <trkpt lat="44.36013" lon="2.85493">
        <ele>650</ele>
        <time>2013-03-04T12:42:15.870Z</time>
      </trkpt>
      <trkpt lat="44.3601" lon="2.85494">
        <ele>651</ele>
        <time>2013-03-04T12:42:17.870Z</time>
      </trkpt>
      <trkpt lat="44.36005" lon="2.85496">
        <ele>651</ele>
        <time>2013-03-04T12:42:19.870Z</time>
      </trkpt>
      <trkpt lat="44.36001" lon="2.85499">
        <ele>651</ele>
        <time>2013-03-04T12:42:21.960Z</time>
      </trkpt>
      <trkpt lat="44.35997" lon="2.85501">
        <ele>651</ele>
        <time>2013-03-04T12:42:23.860Z</time>
      </trkpt>
      <trkpt lat="44.35994" lon="2.85502">
        <ele>652</ele>
        <time>2013-03-04T12:42:25.860Z</time>
      </trkpt>
      <trkpt lat="44.3599" lon="2.85503">
        <ele>652</ele>
        <time>2013-03-04T12:42:27.860Z</time>
      </trkpt>
      <trkpt lat="44.35986" lon="2.85506">
        <ele>653</ele>
        <time>2013-03-04T12:42:29.860Z</time>
      </trkpt>
      <trkpt lat="44.35984" lon="2.85507">
        <ele>653</ele>
        <time>2013-03-04T12:42:30.870Z</time>
      </trkpt>
      <trkpt lat="44.3598" lon="2.8551">
        <ele>653</ele>
        <time>2013-03-04T12:42:32.860Z</time>
      </trkpt>
      <trkpt lat="44.35977" lon="2.85511">
        <ele>653</ele>
        <time>2013-03-04T12:42:33.920Z</time>
      </trkpt>
      <trkpt lat="44.35972" lon="2.85515">
        <ele>654</ele>
        <time>2013-03-04T12:42:35.960Z</time>
      </trkpt>
      <trkpt lat="44.35969" lon="2.85518">
        <ele>654</ele>
        <time>2013-03-04T12:42:37.860Z</time>
      </trkpt>
      <trkpt lat="44.35966" lon="2.85521">
        <ele>654</ele>
        <time>2013-03-04T12:42:39.860Z</time>
      </trkpt>
      <trkpt lat="44.35962" lon="2.85525">
        <ele>654</ele>
        <time>2013-03-04T12:42:41.860Z</time>
      </trkpt>
      <trkpt lat="44.35958" lon="2.85529">
        <ele>655</ele>
        <time>2013-03-04T12:42:43.960Z</time>
      </trkpt>
      <trkpt lat="44.35954" lon="2.85534">
        <ele>655</ele>
        <time>2013-03-04T12:42:45.840Z</time>
      </trkpt>
      <trkpt lat="44.35949" lon="2.85539">
        <ele>655</ele>
        <time>2013-03-04T12:42:47.960Z</time>
      </trkpt>
      <trkpt lat="44.35944" lon="2.85544">
        <ele>655</ele>
        <time>2013-03-04T12:42:49.860Z</time>
      </trkpt>
      <trkpt lat="44.35942" lon="2.85546">
        <ele>655</ele>
        <time>2013-03-04T12:42:50.920Z</time>
      </trkpt>
      <trkpt lat="44.35937" lon="2.85551">
        <ele>655</ele>
        <time>2013-03-04T12:42:52.960Z</time>
      </trkpt>
      <trkpt lat="44.35931" lon="2.85555">
        <ele>655</ele>
        <time>2013-03-04T12:42:54.860Z</time>
      </trkpt>
      <trkpt lat="44.35928" lon="2.85559">
        <ele>655</ele>
        <time>2013-03-04T12:42:56.960Z</time>
      </trkpt>
      <trkpt lat="44.35924" lon="2.85563">
        <ele>654</ele>
        <time>2013-03-04T12:42:58.860Z</time>
      </trkpt>
      <trkpt lat="44.35922" lon="2.85566">
        <ele>654</ele>
        <time>2013-03-04T12:42:59.910Z</time>
      </trkpt>
      <trkpt lat="44.35917" lon="2.85571">
        <ele>654</ele>
        <time>2013-03-04T12:43:01.950Z</time>
      </trkpt>
      <trkpt lat="44.35913" lon="2.85575">
        <ele>658</ele>
        <time>2013-03-04T12:43:03.860Z</time>
      </trkpt>
      <trkpt lat="44.3591" lon="2.85576">
        <ele>658</ele>
        <time>2013-03-04T12:43:04.960Z</time>
      </trkpt>
      <trkpt lat="44.35907" lon="2.85579">
        <ele>658</ele>
        <time>2013-03-04T12:43:06.850Z</time>
      </trkpt>
      <trkpt lat="44.35903" lon="2.85582">
        <ele>659</ele>
        <time>2013-03-04T12:43:08.850Z</time>
      </trkpt>
      <trkpt lat="44.35898" lon="2.85586">
        <ele>656</ele>
        <time>2013-03-04T12:43:10.840Z</time>
      </trkpt>
      <trkpt lat="44.35894" lon="2.85592">
        <ele>657</ele>
        <time>2013-03-04T12:43:12.850Z</time>
      </trkpt>
      <trkpt lat="44.3589" lon="2.85596">
        <ele>657</ele>
        <time>2013-03-04T12:43:14.860Z</time>
      </trkpt>
      <trkpt lat="44.35886" lon="2.856">
        <ele>658</ele>
        <time>2013-03-04T12:43:16.910Z</time>
      </trkpt>
      <trkpt lat="44.35881" lon="2.85607">
        <ele>658</ele>
        <time>2013-03-04T12:43:18.950Z</time>
      </trkpt>
      <trkpt lat="44.35877" lon="2.85613">
        <ele>658</ele>
        <time>2013-03-04T12:43:20.850Z</time>
      </trkpt>
      <trkpt lat="44.35873" lon="2.8562">
        <ele>658</ele>
        <time>2013-03-04T12:43:22.950Z</time>
      </trkpt>
      <trkpt lat="44.35869" lon="2.85627">
        <ele>659</ele>
        <time>2013-03-04T12:43:24.830Z</time>
      </trkpt>
      <trkpt lat="44.35866" lon="2.85634">
        <ele>659</ele>
        <time>2013-03-04T12:43:26.950Z</time>
      </trkpt>
      <trkpt lat="44.35862" lon="2.8564">
        <ele>659</ele>
        <time>2013-03-04T12:43:28.850Z</time>
      </trkpt>
      <trkpt lat="44.35859" lon="2.85646">
        <ele>659</ele>
        <time>2013-03-04T12:43:30.850Z</time>
      </trkpt>
      <trkpt lat="44.35857" lon="2.85651">
        <ele>659</ele>
        <time>2013-03-04T12:43:32.850Z</time>
      </trkpt>
      <trkpt lat="44.35857" lon="2.85653">
        <ele>659</ele>
        <time>2013-03-04T12:43:33.900Z</time>
      </trkpt>
      <trkpt lat="44.35855" lon="2.85658">
        <ele>660</ele>
        <time>2013-03-04T12:43:35.950Z</time>
      </trkpt>
      <trkpt lat="44.35852" lon="2.85663">
        <ele>660</ele>
        <time>2013-03-04T12:43:37.930Z</time>
      </trkpt>
      <trkpt lat="44.3585" lon="2.85669">
        <ele>659</ele>
        <time>2013-03-04T12:43:39.950Z</time>
      </trkpt>
      <trkpt lat="44.35847" lon="2.85675">
        <ele>659</ele>
        <time>2013-03-04T12:43:41.850Z</time>
      </trkpt>
      <trkpt lat="44.35845" lon="2.85679">
        <ele>659</ele>
        <time>2013-03-04T12:43:43.850Z</time>
      </trkpt>
      <trkpt lat="44.35843" lon="2.85684">
        <ele>659</ele>
        <time>2013-03-04T12:43:45.840Z</time>
      </trkpt>
      <trkpt lat="44.35839" lon="2.8569">
        <ele>659</ele>
        <time>2013-03-04T12:43:47.840Z</time>
      </trkpt>
      <trkpt lat="44.35838" lon="2.85692">
        <ele>658</ele>
        <time>2013-03-04T12:43:48.940Z</time>
      </trkpt>
      <trkpt lat="44.35835" lon="2.85697">
        <ele>658</ele>
        <time>2013-03-04T12:43:50.730Z</time>
      </trkpt>
      <trkpt lat="44.35834" lon="2.857">
        <ele>658</ele>
        <time>2013-03-04T12:43:51.930Z</time>
      </trkpt>
      <trkpt lat="44.35831" lon="2.85705">
        <ele>662</ele>
        <time>2013-03-04T12:43:53.940Z</time>
      </trkpt>
      <trkpt lat="44.35828" lon="2.85708">
        <ele>662</ele>
        <time>2013-03-04T12:43:55.840Z</time>
      </trkpt>
      <trkpt lat="44.35827" lon="2.85711">
        <ele>662</ele>
        <time>2013-03-04T12:43:56.940Z</time>
      </trkpt>
      <trkpt lat="44.35825" lon="2.85716">
        <ele>662</ele>
        <time>2013-03-04T12:43:58.840Z</time>
      </trkpt>
      <trkpt lat="44.35824" lon="2.85718">
        <ele>662</ele>
        <time>2013-03-04T12:43:59.900Z</time>
      </trkpt>
      <trkpt lat="44.35821" lon="2.85721">
        <ele>662</ele>
        <time>2013-03-04T12:44:01.840Z</time>
      </trkpt>
      <trkpt lat="44.35819" lon="2.85723">
        <ele>662</ele>
        <time>2013-03-04T12:44:02.920Z</time>
      </trkpt>
      <trkpt lat="44.35815" lon="2.85727">
        <ele>662</ele>
        <time>2013-03-04T12:44:04.940Z</time>
      </trkpt>
      <trkpt lat="44.35811" lon="2.85728">
        <ele>662</ele>
        <time>2013-03-04T12:44:06.840Z</time>
      </trkpt>
      <trkpt lat="44.35806" lon="2.85731">
        <ele>662</ele>
        <time>2013-03-04T12:44:08.840Z</time>
      </trkpt>
      <trkpt lat="44.35801" lon="2.85733">
        <ele>662</ele>
        <time>2013-03-04T12:44:10.840Z</time>
      </trkpt>
      <trkpt lat="44.35798" lon="2.85735">
        <ele>662</ele>
        <time>2013-03-04T12:44:12.840Z</time>
      </trkpt>
      <trkpt lat="44.35796" lon="2.85736">
        <ele>663</ele>
        <time>2013-03-04T12:44:13.940Z</time>
      </trkpt>
      <trkpt lat="44.35793" lon="2.85738">
        <ele>663</ele>
        <time>2013-03-04T12:44:15.840Z</time>
      </trkpt>
      <trkpt lat="44.3579" lon="2.8574">
        <ele>663</ele>
        <time>2013-03-04T12:44:16.890Z</time>
      </trkpt>
      <trkpt lat="44.35786" lon="2.85743">
        <ele>663</ele>
        <time>2013-03-04T12:44:18.940Z</time>
      </trkpt>
      <trkpt lat="44.35782" lon="2.85745">
        <ele>663</ele>
        <time>2013-03-04T12:44:20.840Z</time>
      </trkpt>
      <trkpt lat="44.3578" lon="2.85746">
        <ele>663</ele>
        <time>2013-03-04T12:44:21.940Z</time>
      </trkpt>
      <trkpt lat="44.35775" lon="2.85747">
        <ele>663</ele>
        <time>2013-03-04T12:44:23.830Z</time>
      </trkpt>
      <trkpt lat="44.35771" lon="2.85751">
        <ele>663</ele>
        <time>2013-03-04T12:44:26.130Z</time>
      </trkpt>
      <trkpt lat="44.35768" lon="2.85754">
        <ele>663</ele>
        <time>2013-03-04T12:44:27.930Z</time>
      </trkpt>
      <trkpt lat="44.35766" lon="2.85755">
        <ele>663</ele>
        <time>2013-03-04T12:44:29.130Z</time>
      </trkpt>
      <trkpt lat="44.35763" lon="2.85757">
        <ele>664</ele>
        <time>2013-03-04T12:44:30.930Z</time>
      </trkpt>
      <trkpt lat="44.35759" lon="2.85759">
        <ele>664</ele>
        <time>2013-03-04T12:44:32.930Z</time>
      </trkpt>
      <trkpt lat="44.35755" lon="2.85762">
        <ele>664</ele>
        <time>2013-03-04T12:44:34.930Z</time>
      </trkpt>
      <trkpt lat="44.35753" lon="2.85764">
        <ele>664</ele>
        <time>2013-03-04T12:44:36.130Z</time>
      </trkpt>
      <trkpt lat="44.35751" lon="2.85767">
        <ele>664</ele>
        <time>2013-03-04T12:44:37.130Z</time>
      </trkpt>
      <trkpt lat="44.35747" lon="2.8577">
        <ele>668</ele>
        <time>2013-03-04T12:44:38.930Z</time>
      </trkpt>
      <trkpt lat="44.35745" lon="2.85772">
        <ele>668</ele>
        <time>2013-03-04T12:44:40.130Z</time>
      </trkpt>
      <trkpt lat="44.35744" lon="2.85775">
        <ele>668</ele>
        <time>2013-03-04T12:44:41.130Z</time>
      </trkpt>
      <trkpt lat="44.35741" lon="2.85781">
        <ele>669</ele>
        <time>2013-03-04T12:44:43.130Z</time>
      </trkpt>
      <trkpt lat="44.3574" lon="2.85784">
        <ele>669</ele>
        <time>2013-03-04T12:44:44.130Z</time>
      </trkpt>
      <trkpt lat="44.3574" lon="2.85787">
        <ele>669</ele>
        <time>2013-03-04T12:44:45.130Z</time>
      </trkpt>
      <trkpt lat="44.3574" lon="2.85793">
        <ele>669</ele>
        <time>2013-03-04T12:44:46.930Z</time>
      </trkpt>
      <trkpt lat="44.35739" lon="2.85799">
        <ele>669</ele>
        <time>2013-03-04T12:44:48.930Z</time>
      </trkpt>
      <trkpt lat="44.35739" lon="2.85802">
        <ele>669</ele>
        <time>2013-03-04T12:44:50.140Z</time>
      </trkpt>
      <trkpt lat="44.35738" lon="2.85808">
        <ele>669</ele>
        <time>2013-03-04T12:44:52.130Z</time>
      </trkpt>
      <trkpt lat="44.35736" lon="2.85817">
        <ele>669</ele>
        <time>2013-03-04T12:44:54.130Z</time>
      </trkpt>
      <trkpt lat="44.35734" lon="2.85825">
        <ele>669</ele>
        <time>2013-03-04T12:44:56.130Z</time>
      </trkpt>
      <trkpt lat="44.35732" lon="2.85832">
        <ele>669</ele>
        <time>2013-03-04T12:44:58.140Z</time>
      </trkpt>
      <trkpt lat="44.3573" lon="2.85839">
        <ele>669</ele>
        <time>2013-03-04T12:45:00.130Z</time>
      </trkpt>
      <trkpt lat="44.35727" lon="2.85846">
        <ele>670</ele>
        <time>2013-03-04T12:45:02.030Z</time>
      </trkpt>
      <trkpt lat="44.35726" lon="2.85851">
        <ele>670</ele>
        <time>2013-03-04T12:45:03.920Z</time>
      </trkpt>
      <trkpt lat="44.35723" lon="2.85854">
        <ele>670</ele>
        <time>2013-03-04T12:45:05.920Z</time>
      </trkpt>
      <trkpt lat="44.35722" lon="2.85857">
        <ele>670</ele>
        <time>2013-03-04T12:45:07.020Z</time>
      </trkpt>
      <trkpt lat="44.35718" lon="2.85862">
        <ele>671</ele>
        <time>2013-03-04T12:45:09.010Z</time>
      </trkpt>
      <trkpt lat="44.35715" lon="2.85867">
        <ele>671</ele>
        <time>2013-03-04T12:45:10.920Z</time>
      </trkpt>
      <trkpt lat="44.35713" lon="2.85869">
        <ele>671</ele>
        <time>2013-03-04T12:45:11.930Z</time>
      </trkpt>
      <trkpt lat="44.35712" lon="2.85872">
        <ele>671</ele>
        <time>2013-03-04T12:45:13.020Z</time>
      </trkpt>
      <trkpt lat="44.3571" lon="2.85877">
        <ele>671</ele>
        <time>2013-03-04T12:45:14.920Z</time>
      </trkpt>
      <trkpt lat="44.35708" lon="2.8588">
        <ele>672</ele>
        <time>2013-03-04T12:45:16.020Z</time>
      </trkpt>
      <trkpt lat="44.35704" lon="2.85886">
        <ele>672</ele>
        <time>2013-03-04T12:45:17.920Z</time>
      </trkpt>
      <trkpt lat="44.35702" lon="2.85889">
        <ele>672</ele>
        <time>2013-03-04T12:45:19.020Z</time>
      </trkpt>
      <trkpt lat="44.35698" lon="2.85893">
        <ele>672</ele>
        <time>2013-03-04T12:45:21.020Z</time>
      </trkpt>
      <trkpt lat="44.35694" lon="2.85898">
        <ele>673</ele>
        <time>2013-03-04T12:45:22.900Z</time>
      </trkpt>
      <trkpt lat="44.35691" lon="2.85904">
        <ele>673</ele>
        <time>2013-03-04T12:45:24.920Z</time>
      </trkpt>
      <trkpt lat="44.35689" lon="2.85906">
        <ele>673</ele>
        <time>2013-03-04T12:45:26.020Z</time>
      </trkpt>
      <trkpt lat="44.35685" lon="2.8591">
        <ele>674</ele>
        <time>2013-03-04T12:45:27.920Z</time>
      </trkpt>
      <trkpt lat="44.35682" lon="2.85916">
        <ele>674</ele>
        <time>2013-03-04T12:45:29.920Z</time>
      </trkpt>
      <trkpt lat="44.3568" lon="2.85918">
        <ele>675</ele>
        <time>2013-03-04T12:45:31.020Z</time>
      </trkpt>
      <trkpt lat="44.35676" lon="2.85923">
        <ele>675</ele>
        <time>2013-03-04T12:45:32.920Z</time>
      </trkpt>
      <trkpt lat="44.35673" lon="2.85927">
        <ele>675</ele>
        <time>2013-03-04T12:45:34.920Z</time>
      </trkpt>
      <trkpt lat="44.35672" lon="2.85929">
        <ele>675</ele>
        <time>2013-03-04T12:45:36.020Z</time>
      </trkpt>
      <trkpt lat="44.35668" lon="2.85933">
        <ele>675</ele>
        <time>2013-03-04T12:45:38.020Z</time>
      </trkpt>
      <trkpt lat="44.35665" lon="2.85937">
        <ele>678</ele>
        <time>2013-03-04T12:45:39.920Z</time>
      </trkpt>
      <trkpt lat="44.35663" lon="2.8594">
        <ele>678</ele>
        <time>2013-03-04T12:45:41.020Z</time>
      </trkpt>
      <trkpt lat="44.3566" lon="2.85942">
        <ele>678</ele>
        <time>2013-03-04T12:45:42.920Z</time>
      </trkpt>
      <trkpt lat="44.35659" lon="2.85944">
        <ele>678</ele>
        <time>2013-03-04T12:45:44.020Z</time>
      </trkpt>
      <trkpt lat="44.35655" lon="2.85948">
        <ele>678</ele>
        <time>2013-03-04T12:45:45.910Z</time>
      </trkpt>
      <trkpt lat="44.35654" lon="2.85949">
        <ele>678</ele>
        <time>2013-03-04T12:45:47.020Z</time>
      </trkpt>
      <trkpt lat="44.35651" lon="2.85953">
        <ele>678</ele>
        <time>2013-03-04T12:45:48.910Z</time>
      </trkpt>
      <trkpt lat="44.35647" lon="2.85956">
        <ele>678</ele>
        <time>2013-03-04T12:45:50.930Z</time>
      </trkpt>
      <trkpt lat="44.35644" lon="2.85959">
        <ele>679</ele>
        <time>2013-03-04T12:45:52.910Z</time>
      </trkpt>
      <trkpt lat="44.35641" lon="2.85963">
        <ele>679</ele>
        <time>2013-03-04T12:45:54.910Z</time>
      </trkpt>
      <trkpt lat="44.35639" lon="2.85965">
        <ele>679</ele>
        <time>2013-03-04T12:45:56.010Z</time>
      </trkpt>
      <trkpt lat="44.35636" lon="2.85969">
        <ele>679</ele>
        <time>2013-03-04T12:45:57.910Z</time>
      </trkpt>
      <trkpt lat="44.35635" lon="2.85971">
        <ele>679</ele>
        <time>2013-03-04T12:45:59.010Z</time>
      </trkpt>
      <trkpt lat="44.35632" lon="2.85974">
        <ele>679</ele>
        <time>2013-03-04T12:46:01.010Z</time>
      </trkpt>
      <trkpt lat="44.35629" lon="2.85977">
        <ele>679</ele>
        <time>2013-03-04T12:46:03.010Z</time>
      </trkpt>
      <trkpt lat="44.35626" lon="2.8598">
        <ele>679</ele>
        <time>2013-03-04T12:46:04.910Z</time>
      </trkpt>
      <trkpt lat="44.35623" lon="2.85984">
        <ele>679</ele>
        <time>2013-03-04T12:46:06.910Z</time>
      </trkpt>
      <trkpt lat="44.35621" lon="2.85986">
        <ele>679</ele>
        <time>2013-03-04T12:46:08.010Z</time>
      </trkpt>
      <trkpt lat="44.35617" lon="2.85989">
        <ele>679</ele>
        <time>2013-03-04T12:46:09.910Z</time>
      </trkpt>
      <trkpt lat="44.35614" lon="2.85993">
        <ele>679</ele>
        <time>2013-03-04T12:46:11.910Z</time>
      </trkpt>
      <trkpt lat="44.35612" lon="2.85994">
        <ele>679</ele>
        <time>2013-03-04T12:46:13.010Z</time>
      </trkpt>
      <trkpt lat="44.35607" lon="2.85996">
        <ele>680</ele>
        <time>2013-03-04T12:46:14.910Z</time>
      </trkpt>
      <trkpt lat="44.35605" lon="2.85995">
        <ele>680</ele>
        <time>2013-03-04T12:46:16.010Z</time>
      </trkpt>
      <trkpt lat="44.35601" lon="2.85994">
        <ele>680</ele>
        <time>2013-03-04T12:46:17.910Z</time>
      </trkpt>
      <trkpt lat="44.35596" lon="2.85992">
        <ele>680</ele>
        <time>2013-03-04T12:46:19.910Z</time>
      </trkpt>
      <trkpt lat="44.35595" lon="2.8599">
        <ele>680</ele>
        <time>2013-03-04T12:46:21.010Z</time>
      </trkpt>
      <trkpt lat="44.35593" lon="2.85985">
        <ele>680</ele>
        <time>2013-03-04T12:46:22.910Z</time>
      </trkpt>
      <trkpt lat="44.35591" lon="2.85984">
        <ele>680</ele>
        <time>2013-03-04T12:46:24.010Z</time>
      </trkpt>
      <trkpt lat="44.35589" lon="2.8598">
        <ele>680</ele>
        <time>2013-03-04T12:46:25.900Z</time>
      </trkpt>
      <trkpt lat="44.35587" lon="2.8598">
        <ele>680</ele>
        <time>2013-03-04T12:46:27.010Z</time>
      </trkpt>
      <trkpt lat="44.35586" lon="2.85977">
        <ele>680</ele>
        <time>2013-03-04T12:46:28.890Z</time>
      </trkpt>
      <trkpt lat="44.35585" lon="2.85975">
        <ele>680</ele>
        <time>2013-03-04T12:46:30.000Z</time>
      </trkpt>
      <trkpt lat="44.35583" lon="2.85972">
        <ele>684</ele>
        <time>2013-03-04T12:46:31.900Z</time>
      </trkpt>
      <trkpt lat="44.35582" lon="2.85969">
        <ele>684</ele>
        <time>2013-03-04T12:46:33.000Z</time>
      </trkpt>
      <trkpt lat="44.35579" lon="2.85966">
        <ele>684</ele>
        <time>2013-03-04T12:46:35.000Z</time>
      </trkpt>
      <trkpt lat="44.35577" lon="2.85963">
        <ele>684</ele>
        <time>2013-03-04T12:46:37.000Z</time>
      </trkpt>
      <trkpt lat="44.35575" lon="2.85959">
        <ele>684</ele>
        <time>2013-03-04T12:46:38.900Z</time>
      </trkpt>
      <trkpt lat="44.35573" lon="2.85955">
        <ele>684</ele>
        <time>2013-03-04T12:46:40.900Z</time>
      </trkpt>
      <trkpt lat="44.35572" lon="2.85953">
        <ele>684</ele>
        <time>2013-03-04T12:46:41.980Z</time>
      </trkpt>
      <trkpt lat="44.3557" lon="2.85949">
        <ele>685</ele>
        <time>2013-03-04T12:46:43.900Z</time>
      </trkpt>
      <trkpt lat="44.35569" lon="2.85947">
        <ele>685</ele>
        <time>2013-03-04T12:46:45.000Z</time>
      </trkpt>
      <trkpt lat="44.35566" lon="2.85943">
        <ele>685</ele>
        <time>2013-03-04T12:46:46.900Z</time>
      </trkpt>
      <trkpt lat="44.35564" lon="2.8594">
        <ele>685</ele>
        <time>2013-03-04T12:46:48.900Z</time>
      </trkpt>
      <trkpt lat="44.35562" lon="2.85938">
        <ele>685</ele>
        <time>2013-03-04T12:46:50.000Z</time>
      </trkpt>
      <trkpt lat="44.35559" lon="2.85934">
        <ele>685</ele>
        <time>2013-03-04T12:46:52.000Z</time>
      </trkpt>
      <trkpt lat="44.35556" lon="2.85929">
        <ele>685</ele>
        <time>2013-03-04T12:46:54.000Z</time>
      </trkpt>
      <trkpt lat="44.35553" lon="2.85925">
        <ele>685</ele>
        <time>2013-03-04T12:46:55.900Z</time>
      </trkpt>
      <trkpt lat="44.3555" lon="2.85919">
        <ele>685</ele>
        <time>2013-03-04T12:46:57.900Z</time>
      </trkpt>
      <trkpt lat="44.35549" lon="2.85917">
        <ele>688</ele>
        <time>2013-03-04T12:46:59.000Z</time>
      </trkpt>
      <trkpt lat="44.35547" lon="2.85911">
        <ele>688</ele>
        <time>2013-03-04T12:47:00.990Z</time>
      </trkpt>
      <trkpt lat="44.35544" lon="2.85907">
        <ele>689</ele>
        <time>2013-03-04T12:47:02.900Z</time>
      </trkpt>
      <trkpt lat="44.35543" lon="2.85905">
        <ele>689</ele>
        <time>2013-03-04T12:47:04.000Z</time>
      </trkpt>
      <trkpt lat="44.3554" lon="2.859">
        <ele>689</ele>
        <time>2013-03-04T12:47:05.900Z</time>
      </trkpt>
      <trkpt lat="44.35539" lon="2.85897">
        <ele>689</ele>
        <time>2013-03-04T12:47:06.990Z</time>
      </trkpt>
      <trkpt lat="44.35535" lon="2.85892">
        <ele>689</ele>
        <time>2013-03-04T12:47:08.890Z</time>
      </trkpt>
      <trkpt lat="44.35533" lon="2.85888">
        <ele>689</ele>
        <time>2013-03-04T12:47:10.890Z</time>
      </trkpt>
      <trkpt lat="44.35531" lon="2.85885">
        <ele>690</ele>
        <time>2013-03-04T12:47:11.990Z</time>
      </trkpt>
      <trkpt lat="44.35528" lon="2.85881">
        <ele>690</ele>
        <time>2013-03-04T12:47:13.890Z</time>
      </trkpt>
      <trkpt lat="44.35527" lon="2.85879">
        <ele>690</ele>
        <time>2013-03-04T12:47:14.990Z</time>
      </trkpt>
      <trkpt lat="44.35524" lon="2.85875">
        <ele>690</ele>
        <time>2013-03-04T12:47:16.880Z</time>
      </trkpt>
      <trkpt lat="44.35521" lon="2.8587">
        <ele>691</ele>
        <time>2013-03-04T12:47:18.900Z</time>
      </trkpt>
      <trkpt lat="44.3552" lon="2.85868">
        <ele>691</ele>
        <time>2013-03-04T12:47:19.990Z</time>
      </trkpt>
      <trkpt lat="44.35517" lon="2.85864">
        <ele>691</ele>
        <time>2013-03-04T12:47:21.970Z</time>
      </trkpt>
      <trkpt lat="44.35515" lon="2.8586">
        <ele>691</ele>
        <time>2013-03-04T12:47:23.890Z</time>
      </trkpt>
      <trkpt lat="44.35513" lon="2.85858">
        <ele>692</ele>
        <time>2013-03-04T12:47:24.990Z</time>
      </trkpt>
      <trkpt lat="44.35512" lon="2.85854">
        <ele>692</ele>
        <time>2013-03-04T12:47:26.990Z</time>
      </trkpt>
      <trkpt lat="44.3551" lon="2.8585">
        <ele>693</ele>
        <time>2013-03-04T12:47:28.890Z</time>
      </trkpt>
      <trkpt lat="44.35509" lon="2.85848">
        <ele>693</ele>
        <time>2013-03-04T12:47:29.990Z</time>
      </trkpt>
      <trkpt lat="44.35508" lon="2.85844">
        <ele>693</ele>
        <time>2013-03-04T12:47:31.990Z</time>
      </trkpt>
      <trkpt lat="44.35506" lon="2.85841">
        <ele>694</ele>
        <time>2013-03-04T12:47:33.940Z</time>
      </trkpt>
      <trkpt lat="44.35503" lon="2.85839">
        <ele>695</ele>
        <time>2013-03-04T12:47:35.870Z</time>
      </trkpt>
      <trkpt lat="44.35501" lon="2.85839">
        <ele>695</ele>
        <time>2013-03-04T12:47:36.990Z</time>
      </trkpt>
      <trkpt lat="44.35499" lon="2.85836">
        <ele>696</ele>
        <time>2013-03-04T12:47:38.890Z</time>
      </trkpt>
      <trkpt lat="44.35499" lon="2.85834">
        <ele>696</ele>
        <time>2013-03-04T12:47:39.990Z</time>
      </trkpt>
      <trkpt lat="44.35495" lon="2.85833">
        <ele>697</ele>
        <time>2013-03-04T12:47:41.890Z</time>
      </trkpt>
      <trkpt lat="44.35494" lon="2.85833">
        <ele>698</ele>
        <time>2013-03-04T12:47:42.990Z</time>
      </trkpt>
      <trkpt lat="44.3549" lon="2.85835">
        <ele>697</ele>
        <time>2013-03-04T12:47:44.990Z</time>
      </trkpt>
      <trkpt lat="44.35488" lon="2.85837">
        <ele>698</ele>
        <time>2013-03-04T12:47:46.890Z</time>
      </trkpt>
      <trkpt lat="44.35485" lon="2.85841">
        <ele>698</ele>
        <time>2013-03-04T12:47:48.870Z</time>
      </trkpt>
      <trkpt lat="44.35484" lon="2.85842">
        <ele>698</ele>
        <time>2013-03-04T12:47:49.980Z</time>
      </trkpt>
      <trkpt lat="44.35482" lon="2.85844">
        <ele>699</ele>
        <time>2013-03-04T12:47:51.880Z</time>
      </trkpt>
      <trkpt lat="44.35481" lon="2.85846">
        <ele>699</ele>
        <time>2013-03-04T12:47:52.980Z</time>
      </trkpt>
      <trkpt lat="44.35479" lon="2.85851">
        <ele>699</ele>
        <time>2013-03-04T12:47:54.880Z</time>
      </trkpt>
      <trkpt lat="44.35476" lon="2.85856">
        <ele>699</ele>
        <time>2013-03-04T12:47:56.880Z</time>
      </trkpt>
      <trkpt lat="44.35474" lon="2.85858">
        <ele>699</ele>
        <time>2013-03-04T12:47:57.980Z</time>
      </trkpt>
      <trkpt lat="44.35471" lon="2.85863">
        <ele>700</ele>
        <time>2013-03-04T12:47:59.940Z</time>
      </trkpt>
      <trkpt lat="44.35467" lon="2.85866">
        <ele>700</ele>
        <time>2013-03-04T12:48:01.980Z</time>
      </trkpt>
      <trkpt lat="44.35464" lon="2.8587">
        <ele>700</ele>
        <time>2013-03-04T12:48:03.880Z</time>
      </trkpt>
      <trkpt lat="44.3546" lon="2.85873">
        <ele>700</ele>
        <time>2013-03-04T12:48:05.880Z</time>
      </trkpt>
      <trkpt lat="44.35459" lon="2.85875">
        <ele>700</ele>
        <time>2013-03-04T12:48:06.890Z</time>
      </trkpt>
      <trkpt lat="44.35457" lon="2.85877">
        <ele>700</ele>
        <time>2013-03-04T12:48:07.980Z</time>
      </trkpt>
      <trkpt lat="44.35454" lon="2.8588">
        <ele>700</ele>
        <time>2013-03-04T12:48:09.980Z</time>
      </trkpt>
      <trkpt lat="44.35452" lon="2.85884">
        <ele>700</ele>
        <time>2013-03-04T12:48:11.880Z</time>
      </trkpt>
      <trkpt lat="44.3545" lon="2.85887">
        <ele>701</ele>
        <time>2013-03-04T12:48:13.860Z</time>
      </trkpt>
      <trkpt lat="44.35448" lon="2.85889">
        <ele>701</ele>
        <time>2013-03-04T12:48:15.880Z</time>
      </trkpt>
      <trkpt lat="44.35447" lon="2.85891">
        <ele>701</ele>
        <time>2013-03-04T12:48:16.930Z</time>
      </trkpt>
      <trkpt lat="44.35444" lon="2.85894">
        <ele>701</ele>
        <time>2013-03-04T12:48:18.980Z</time>
      </trkpt>
      <trkpt lat="44.35442" lon="2.85897">
        <ele>701</ele>
        <time>2013-03-04T12:48:20.880Z</time>
      </trkpt>
      <trkpt lat="44.35441" lon="2.85898">
        <ele>701</ele>
        <time>2013-03-04T12:48:21.980Z</time>
      </trkpt>
      <trkpt lat="44.35438" lon="2.85901">
        <ele>701</ele>
        <time>2013-03-04T12:48:23.880Z</time>
      </trkpt>
      <trkpt lat="44.35437" lon="2.85903">
        <ele>701</ele>
        <time>2013-03-04T12:48:24.980Z</time>
      </trkpt>
      <trkpt lat="44.35434" lon="2.85905">
        <ele>702</ele>
        <time>2013-03-04T12:48:26.970Z</time>
      </trkpt>
      <trkpt lat="44.35432" lon="2.85908">
        <ele>702</ele>
        <time>2013-03-04T12:48:28.870Z</time>
      </trkpt>
      <trkpt lat="44.35429" lon="2.8591">
        <ele>702</ele>
        <time>2013-03-04T12:48:30.870Z</time>
      </trkpt>
      <trkpt lat="44.35427" lon="2.85912">
        <ele>703</ele>
        <time>2013-03-04T12:48:32.870Z</time>
      </trkpt>
      <trkpt lat="44.35426" lon="2.85913">
        <ele>703</ele>
        <time>2013-03-04T12:48:33.930Z</time>
      </trkpt>
      <trkpt lat="44.35424" lon="2.85915">
        <ele>703</ele>
        <time>2013-03-04T12:48:35.970Z</time>
      </trkpt>
      <trkpt lat="44.35421" lon="2.85917">
        <ele>702</ele>
        <time>2013-03-04T12:48:37.870Z</time>
      </trkpt>
      <trkpt lat="44.35419" lon="2.85918">
        <ele>703</ele>
        <time>2013-03-04T12:48:39.870Z</time>
      </trkpt>
      <trkpt lat="44.35416" lon="2.8592">
        <ele>705</ele>
        <time>2013-03-04T12:48:41.870Z</time>
      </trkpt>
      <trkpt lat="44.35414" lon="2.85921">
        <ele>705</ele>
        <time>2013-03-04T12:48:43.870Z</time>
      </trkpt>
      <trkpt lat="44.35412" lon="2.85923">
        <ele>706</ele>
        <time>2013-03-04T12:48:45.870Z</time>
      </trkpt>
      <trkpt lat="44.3541" lon="2.85923">
        <ele>706</ele>
        <time>2013-03-04T12:48:47.870Z</time>
      </trkpt>
      <trkpt lat="44.35407" lon="2.85925">
        <ele>707</ele>
        <time>2013-03-04T12:48:49.870Z</time>
      </trkpt>
      <trkpt lat="44.35405" lon="2.85926">
        <ele>707</ele>
        <time>2013-03-04T12:48:50.930Z</time>
      </trkpt>
      <trkpt lat="44.35402" lon="2.85928">
        <ele>708</ele>
        <time>2013-03-04T12:48:52.870Z</time>
      </trkpt>
      <trkpt lat="44.35401" lon="2.85928">
        <ele>708</ele>
        <time>2013-03-04T12:48:53.970Z</time>
      </trkpt>
      <trkpt lat="44.35397" lon="2.85929">
        <ele>709</ele>
        <time>2013-03-04T12:48:55.870Z</time>
      </trkpt>
      <trkpt lat="44.35393" lon="2.85929">
        <ele>710</ele>
        <time>2013-03-04T12:48:57.870Z</time>
      </trkpt>
      <trkpt lat="44.35391" lon="2.85929">
        <ele>710</ele>
        <time>2013-03-04T12:48:58.880Z</time>
      </trkpt>
      <trkpt lat="44.35389" lon="2.85929">
        <ele>710</ele>
        <time>2013-03-04T12:49:00.960Z</time>
      </trkpt>
      <trkpt lat="44.35385" lon="2.8593">
        <ele>711</ele>
        <time>2013-03-04T12:49:02.870Z</time>
      </trkpt>
      <trkpt lat="44.35382" lon="2.85931">
        <ele>711</ele>
        <time>2013-03-04T12:49:04.870Z</time>
      </trkpt>
      <trkpt lat="44.35378" lon="2.85933">
        <ele>712</ele>
        <time>2013-03-04T12:49:06.870Z</time>
      </trkpt>
      <trkpt lat="44.35375" lon="2.85934">
        <ele>713</ele>
        <time>2013-03-04T12:49:08.870Z</time>
      </trkpt>
      <trkpt lat="44.35372" lon="2.85935">
        <ele>713</ele>
        <time>2013-03-04T12:49:10.860Z</time>
      </trkpt>
      <trkpt lat="44.35369" lon="2.85937">
        <ele>713</ele>
        <time>2013-03-04T12:49:12.860Z</time>
      </trkpt>
      <trkpt lat="44.35368" lon="2.85938">
        <ele>714</ele>
        <time>2013-03-04T12:49:13.960Z</time>
      </trkpt>
      <trkpt lat="44.35364" lon="2.8594">
        <ele>714</ele>
        <time>2013-03-04T12:49:15.860Z</time>
      </trkpt>
      <trkpt lat="44.35362" lon="2.85941">
        <ele>714</ele>
        <time>2013-03-04T12:49:16.920Z</time>
      </trkpt>
      <trkpt lat="44.3536" lon="2.85944">
        <ele>714</ele>
        <time>2013-03-04T12:49:18.960Z</time>
      </trkpt>
      <trkpt lat="44.35358" lon="2.85945">
        <ele>714</ele>
        <time>2013-03-04T12:49:20.860Z</time>
      </trkpt>
      <trkpt lat="44.35354" lon="2.85946">
        <ele>715</ele>
        <time>2013-03-04T12:49:22.860Z</time>
      </trkpt>
      <trkpt lat="44.35351" lon="2.85947">
        <ele>715</ele>
        <time>2013-03-04T12:49:24.860Z</time>
      </trkpt>
      <trkpt lat="44.3535" lon="2.85948">
        <ele>715</ele>
        <time>2013-03-04T12:49:25.870Z</time>
      </trkpt>
      <trkpt lat="44.35346" lon="2.8595">
        <ele>715</ele>
        <time>2013-03-04T12:49:27.860Z</time>
      </trkpt>
      <trkpt lat="44.35344" lon="2.85952">
        <ele>715</ele>
        <time>2013-03-04T12:49:29.860Z</time>
      </trkpt>
      <trkpt lat="44.3534" lon="2.85953">
        <ele>715</ele>
        <time>2013-03-04T12:49:31.960Z</time>
      </trkpt>
      <trkpt lat="44.35337" lon="2.85954">
        <ele>715</ele>
        <time>2013-03-04T12:49:33.920Z</time>
      </trkpt>
      <trkpt lat="44.35335" lon="2.85955">
        <ele>715</ele>
        <time>2013-03-04T12:49:35.960Z</time>
      </trkpt>
      <trkpt lat="44.35333" lon="2.85956">
        <ele>728</ele>
        <time>2013-03-04T12:49:37.860Z</time>
      </trkpt>
      <trkpt lat="44.3533" lon="2.85956">
        <ele>728</ele>
        <time>2013-03-04T12:49:39.860Z</time>
      </trkpt>
      <trkpt lat="44.35328" lon="2.85956">
        <ele>728</ele>
        <time>2013-03-04T12:49:41.860Z</time>
      </trkpt>
      <trkpt lat="44.35327" lon="2.85957">
        <ele>728</ele>
        <time>2013-03-04T12:49:43.860Z</time>
      </trkpt>
      <trkpt lat="44.35325" lon="2.85957">
        <ele>728</ele>
        <time>2013-03-04T12:49:44.960Z</time>
      </trkpt>
      <trkpt lat="44.35323" lon="2.85958">
        <ele>728</ele>
        <time>2013-03-04T12:49:46.840Z</time>
      </trkpt>
      <trkpt lat="44.3532" lon="2.85959">
        <ele>728</ele>
        <time>2013-03-04T12:49:48.950Z</time>
      </trkpt>
      <trkpt lat="44.35318" lon="2.85959">
        <ele>728</ele>
        <time>2013-03-04T12:49:50.910Z</time>
      </trkpt>
      <trkpt lat="44.35315" lon="2.85959">
        <ele>729</ele>
        <time>2013-03-04T12:49:52.850Z</time>
      </trkpt>
      <trkpt lat="44.35311" lon="2.85961">
        <ele>729</ele>
        <time>2013-03-04T12:49:54.850Z</time>
      </trkpt>
      <trkpt lat="44.35309" lon="2.85961">
        <ele>729</ele>
        <time>2013-03-04T12:49:57.130Z</time>
      </trkpt>
      <trkpt lat="44.35306" lon="2.85961">
        <ele>729</ele>
        <time>2013-03-04T12:49:58.850Z</time>
      </trkpt>
      <trkpt lat="44.35305" lon="2.85961">
        <ele>729</ele>
        <time>2013-03-04T12:49:59.910Z</time>
      </trkpt>
      <trkpt lat="44.35302" lon="2.85961">
        <ele>730</ele>
        <time>2013-03-04T12:50:01.850Z</time>
      </trkpt>
      <trkpt lat="44.35301" lon="2.85961">
        <ele>730</ele>
        <time>2013-03-04T12:50:02.950Z</time>
      </trkpt>
      <trkpt lat="44.35299" lon="2.8596">
        <ele>730</ele>
        <time>2013-03-04T12:50:04.850Z</time>
      </trkpt>
      <trkpt lat="44.35296" lon="2.8596">
        <ele>731</ele>
        <time>2013-03-04T12:50:06.850Z</time>
      </trkpt>
      <trkpt lat="44.35293" lon="2.8596">
        <ele>731</ele>
        <time>2013-03-04T12:50:08.850Z</time>
      </trkpt>
      <trkpt lat="44.3529" lon="2.85961">
        <ele>731</ele>
        <time>2013-03-04T12:50:10.850Z</time>
      </trkpt>
      <trkpt lat="44.35288" lon="2.85962">
        <ele>732</ele>
        <time>2013-03-04T12:50:11.860Z</time>
      </trkpt>
      <trkpt lat="44.35285" lon="2.85963">
        <ele>732</ele>
        <time>2013-03-04T12:50:13.850Z</time>
      </trkpt>
      <trkpt lat="44.35283" lon="2.85962">
        <ele>732</ele>
        <time>2013-03-04T12:50:15.950Z</time>
      </trkpt>
      <trkpt lat="44.35282" lon="2.85963">
        <ele>732</ele>
        <time>2013-03-04T12:50:17.950Z</time>
      </trkpt>
      <trkpt lat="44.3528" lon="2.8596">
        <ele>733</ele>
        <time>2013-03-04T12:50:19.850Z</time>
      </trkpt>
      <trkpt lat="44.35279" lon="2.85958">
        <ele>733</ele>
        <time>2013-03-04T12:50:21.850Z</time>
      </trkpt>
      <trkpt lat="44.35276" lon="2.85956">
        <ele>734</ele>
        <time>2013-03-04T12:50:23.850Z</time>
      </trkpt>
      <trkpt lat="44.35275" lon="2.85956">
        <ele>734</ele>
        <time>2013-03-04T12:50:25.930Z</time>
      </trkpt>
      <trkpt lat="44.35274" lon="2.85955">
        <ele>734</ele>
        <time>2013-03-04T12:50:27.850Z</time>
      </trkpt>
      <trkpt lat="44.35274" lon="2.85954">
        <ele>734</ele>
        <time>2013-03-04T12:50:29.940Z</time>
      </trkpt>
      <trkpt lat="44.35274" lon="2.85951">
        <ele>735</ele>
        <time>2013-03-04T12:50:31.840Z</time>
      </trkpt>
      <trkpt lat="44.35275" lon="2.85947">
        <ele>736</ele>
        <time>2013-03-04T12:50:33.730Z</time>
      </trkpt>
      <trkpt lat="44.35276" lon="2.85943">
        <ele>736</ele>
        <time>2013-03-04T12:50:35.840Z</time>
      </trkpt>
      <trkpt lat="44.35276" lon="2.8594">
        <ele>737</ele>
        <time>2013-03-04T12:50:37.840Z</time>
      </trkpt>
      <trkpt lat="44.35276" lon="2.85939">
        <ele>737</ele>
        <time>2013-03-04T12:50:38.940Z</time>
      </trkpt>
      <trkpt lat="44.35277" lon="2.85936">
        <ele>737</ele>
        <time>2013-03-04T12:50:40.840Z</time>
      </trkpt>
      <trkpt lat="44.35277" lon="2.85933">
        <ele>738</ele>
        <time>2013-03-04T12:50:42.940Z</time>
      </trkpt>
      <trkpt lat="44.35277" lon="2.85929">
        <ele>739</ele>
        <time>2013-03-04T12:50:44.840Z</time>
      </trkpt>
      <trkpt lat="44.35279" lon="2.85926">
        <ele>738</ele>
        <time>2013-03-04T12:50:47.130Z</time>
      </trkpt>
      <trkpt lat="44.35279" lon="2.85922">
        <ele>739</ele>
        <time>2013-03-04T12:50:48.940Z</time>
      </trkpt>
      <trkpt lat="44.35279" lon="2.8592">
        <ele>739</ele>
        <time>2013-03-04T12:50:50.900Z</time>
      </trkpt>
      <trkpt lat="44.3528" lon="2.85918">
        <ele>739</ele>
        <time>2013-03-04T12:50:52.940Z</time>
      </trkpt>
      <trkpt lat="44.35281" lon="2.85916">
        <ele>752</ele>
        <time>2013-03-04T12:50:54.840Z</time>
      </trkpt>
      <trkpt lat="44.35281" lon="2.85913">
        <ele>752</ele>
        <time>2013-03-04T12:50:56.940Z</time>
      </trkpt>
      <trkpt lat="44.35282" lon="2.8591">
        <ele>752</ele>
        <time>2013-03-04T12:50:58.840Z</time>
      </trkpt>
      <trkpt lat="44.35282" lon="2.85909">
        <ele>752</ele>
        <time>2013-03-04T12:50:59.890Z</time>
      </trkpt>
      <trkpt lat="44.35282" lon="2.85906">
        <ele>752</ele>
        <time>2013-03-04T12:51:01.840Z</time>
      </trkpt>
      <trkpt lat="44.35282" lon="2.85903">
        <ele>752</ele>
        <time>2013-03-04T12:51:03.840Z</time>
      </trkpt>
      <trkpt lat="44.35283" lon="2.85902">
        <ele>752</ele>
        <time>2013-03-04T12:51:04.920Z</time>
      </trkpt>
      <trkpt lat="44.35283" lon="2.85898">
        <ele>752</ele>
        <time>2013-03-04T12:51:06.840Z</time>
      </trkpt>
      <trkpt lat="44.35283" lon="2.85894">
        <ele>753</ele>
        <time>2013-03-04T12:51:08.830Z</time>
      </trkpt>
      <trkpt lat="44.35283" lon="2.85891">
        <ele>753</ele>
        <time>2013-03-04T12:51:10.830Z</time>
      </trkpt>
      <trkpt lat="44.35284" lon="2.85888">
        <ele>753</ele>
        <time>2013-03-04T12:51:12.830Z</time>
      </trkpt>
      <trkpt lat="44.35283" lon="2.85886">
        <ele>754</ele>
        <time>2013-03-04T12:51:15.930Z</time>
      </trkpt>
      <trkpt lat="44.35282" lon="2.85882">
        <ele>754</ele>
        <time>2013-03-04T12:51:17.830Z</time>
      </trkpt>
      <trkpt lat="44.35283" lon="2.85879">
        <ele>754</ele>
        <time>2013-03-04T12:51:18.920Z</time>
      </trkpt>
      <trkpt lat="44.35284" lon="2.85876">
        <ele>755</ele>
        <time>2013-03-04T12:51:20.830Z</time>
      </trkpt>
      <trkpt lat="44.35285" lon="2.85872">
        <ele>755</ele>
        <time>2013-03-04T12:51:23.130Z</time>
      </trkpt>
      <trkpt lat="44.35285" lon="2.85868">
        <ele>756</ele>
        <time>2013-03-04T12:51:24.930Z</time>
      </trkpt>
      <trkpt lat="44.35286" lon="2.85866">
        <ele>756</ele>
        <time>2013-03-04T12:51:27.130Z</time>
      </trkpt>
      <trkpt lat="44.35286" lon="2.85863">
        <ele>756</ele>
        <time>2013-03-04T12:51:28.930Z</time>
      </trkpt>
      <trkpt lat="44.35289" lon="2.85859">
        <ele>756</ele>
        <time>2013-03-04T12:51:30.930Z</time>
      </trkpt>
      <trkpt lat="44.35291" lon="2.85856">
        <ele>756</ele>
        <time>2013-03-04T12:51:32.830Z</time>
      </trkpt>
      <trkpt lat="44.35293" lon="2.85854">
        <ele>756</ele>
        <time>2013-03-04T12:51:34.130Z</time>
      </trkpt>
      <trkpt lat="44.35295" lon="2.8585">
        <ele>756</ele>
        <time>2013-03-04T12:51:36.130Z</time>
      </trkpt>
      <trkpt lat="44.35297" lon="2.85848">
        <ele>756</ele>
        <time>2013-03-04T12:51:37.930Z</time>
      </trkpt>
      <trkpt lat="44.35298" lon="2.85846">
        <ele>755</ele>
        <time>2013-03-04T12:51:41.130Z</time>
      </trkpt>
      <trkpt lat="44.35299" lon="2.85844">
        <ele>755</ele>
        <time>2013-03-04T12:51:43.130Z</time>
      </trkpt>
      <trkpt lat="44.35299" lon="2.85841">
        <ele>755</ele>
        <time>2013-03-04T12:51:45.130Z</time>
      </trkpt>
      <trkpt lat="44.35301" lon="2.85839">
        <ele>755</ele>
        <time>2013-03-04T12:51:47.130Z</time>
      </trkpt>
      <trkpt lat="44.35302" lon="2.85837">
        <ele>755</ele>
        <time>2013-03-04T12:51:49.130Z</time>
      </trkpt>
      <trkpt lat="44.35303" lon="2.85833">
        <ele>755</ele>
        <time>2013-03-04T12:51:51.130Z</time>
      </trkpt>
      <trkpt lat="44.35305" lon="2.85828">
        <ele>764</ele>
        <time>2013-03-04T12:51:52.930Z</time>
      </trkpt>
      <trkpt lat="44.35305" lon="2.85826">
        <ele>764</ele>
        <time>2013-03-04T12:51:54.020Z</time>
      </trkpt>
      <trkpt lat="44.35308" lon="2.85822">
        <ele>764</ele>
        <time>2013-03-04T12:51:55.920Z</time>
      </trkpt>
      <trkpt lat="44.35309" lon="2.85821">
        <ele>764</ele>
        <time>2013-03-04T12:51:57.020Z</time>
      </trkpt>
      <trkpt lat="44.3531" lon="2.85819">
        <ele>764</ele>
        <time>2013-03-04T12:51:58.920Z</time>
      </trkpt>
      <trkpt lat="44.3531" lon="2.85818">
        <ele>764</ele>
        <time>2013-03-04T12:52:00.920Z</time>
      </trkpt>
      <trkpt lat="44.35311" lon="2.85816">
        <ele>764</ele>
        <time>2013-03-04T12:52:03.020Z</time>
      </trkpt>
      <trkpt lat="44.3531" lon="2.85814">
        <ele>764</ele>
        <time>2013-03-04T12:52:04.920Z</time>
      </trkpt>
      <trkpt lat="44.35311" lon="2.85812">
        <ele>764</ele>
        <time>2013-03-04T12:52:06.920Z</time>
      </trkpt>
      <trkpt lat="44.35312" lon="2.8581">
        <ele>765</ele>
        <time>2013-03-04T12:52:08.020Z</time>
      </trkpt>
      <trkpt lat="44.35313" lon="2.85807">
        <ele>765</ele>
        <time>2013-03-04T12:52:09.920Z</time>
      </trkpt>
      <trkpt lat="44.35313" lon="2.85805">
        <ele>765</ele>
        <time>2013-03-04T12:52:11.000Z</time>
      </trkpt>
      <trkpt lat="44.35315" lon="2.85803">
        <ele>765</ele>
        <time>2013-03-04T12:52:12.920Z</time>
      </trkpt>
      <trkpt lat="44.35316" lon="2.85801">
        <ele>765</ele>
        <time>2013-03-04T12:52:14.920Z</time>
      </trkpt>
      <trkpt lat="44.35316" lon="2.85797">
        <ele>766</ele>
        <time>2013-03-04T12:52:17.920Z</time>
      </trkpt>
      <trkpt lat="44.35316" lon="2.85794">
        <ele>766</ele>
        <time>2013-03-04T12:52:19.920Z</time>
      </trkpt>
      <trkpt lat="44.35316" lon="2.85792">
        <ele>766</ele>
        <time>2013-03-04T12:52:22.020Z</time>
      </trkpt>
      <trkpt lat="44.35317" lon="2.8579">
        <ele>766</ele>
        <time>2013-03-04T12:52:23.920Z</time>
      </trkpt>
      <trkpt lat="44.35318" lon="2.85788">
        <ele>766</ele>
        <time>2013-03-04T12:52:25.000Z</time>
      </trkpt>
      <trkpt lat="44.35317" lon="2.85787">
        <ele>766</ele>
        <time>2013-03-04T12:52:27.020Z</time>
      </trkpt>
      <trkpt lat="44.35316" lon="2.85785">
        <ele>767</ele>
        <time>2013-03-04T12:52:28.920Z</time>
      </trkpt>
      <trkpt lat="44.35316" lon="2.85783">
        <ele>767</ele>
        <time>2013-03-04T12:52:30.020Z</time>
      </trkpt>
      <trkpt lat="44.35316" lon="2.85779">
        <ele>767</ele>
        <time>2013-03-04T12:52:31.920Z</time>
      </trkpt>
      <trkpt lat="44.35317" lon="2.85778">
        <ele>767</ele>
        <time>2013-03-04T12:52:33.020Z</time>
      </trkpt>
      <trkpt lat="44.35316" lon="2.85773">
        <ele>767</ele>
        <time>2013-03-04T12:52:35.010Z</time>
      </trkpt>
      <trkpt lat="44.35316" lon="2.8577">
        <ele>766</ele>
        <time>2013-03-04T12:52:37.010Z</time>
      </trkpt>
      <trkpt lat="44.35316" lon="2.85768">
        <ele>766</ele>
        <time>2013-03-04T12:52:38.910Z</time>
      </trkpt>
      <trkpt lat="44.35314" lon="2.85765">
        <ele>767</ele>
        <time>2013-03-04T12:52:40.910Z</time>
      </trkpt>
      <trkpt lat="44.35313" lon="2.85764">
        <ele>767</ele>
        <time>2013-03-04T12:52:42.010Z</time>
      </trkpt>
      <trkpt lat="44.35312" lon="2.85763">
        <ele>767</ele>
        <time>2013-03-04T12:52:43.910Z</time>
      </trkpt>
      <trkpt lat="44.35312" lon="2.85762">
        <ele>767</ele>
        <time>2013-03-04T12:52:45.910Z</time>
      </trkpt>
      <trkpt lat="44.35312" lon="2.8576">
        <ele>767</ele>
        <time>2013-03-04T12:52:49.010Z</time>
      </trkpt>
      <trkpt lat="44.35313" lon="2.85759">
        <ele>767</ele>
        <time>2013-03-04T12:52:50.970Z</time>
      </trkpt>
      <trkpt lat="44.35314" lon="2.85755">
        <ele>766</ele>
        <time>2013-03-04T12:52:56.910Z</time>
      </trkpt>
      <trkpt lat="44.35315" lon="2.85753">
        <ele>766</ele>
        <time>2013-03-04T12:52:58.010Z</time>
      </trkpt>
      <trkpt lat="44.35314" lon="2.85754">
        <ele>766</ele>
        <time>2013-03-04T12:52:59.860Z</time>
      </trkpt>
      <trkpt lat="44.35315" lon="2.85755">
        <ele>766</ele>
        <time>2013-03-04T12:53:02.010Z</time>
      </trkpt>
      <trkpt lat="44.35316" lon="2.85759">
        <ele>766</ele>
        <time>2013-03-04T12:53:03.910Z</time>
      </trkpt>
      <trkpt lat="44.35315" lon="2.8576">
        <ele>766</ele>
        <time>2013-03-04T12:53:05.010Z</time>
      </trkpt>
      <trkpt lat="44.35314" lon="2.8576">
        <ele>767</ele>
        <time>2013-03-04T12:53:07.910Z</time>
      </trkpt>
      <trkpt lat="44.35311" lon="2.85762">
        <ele>767</ele>
        <time>2013-03-04T12:53:09.910Z</time>
      </trkpt>
      <trkpt lat="44.35311" lon="2.85763">
        <ele>767</ele>
        <time>2013-03-04T12:53:11.010Z</time>
      </trkpt>
      <trkpt lat="44.35311" lon="2.85766">
        <ele>767</ele>
        <time>2013-03-04T12:53:12.910Z</time>
      </trkpt>
      <trkpt lat="44.35311" lon="2.85768">
        <ele>767</ele>
        <time>2013-03-04T12:53:15.000Z</time>
      </trkpt>
      <trkpt lat="44.35309" lon="2.8577">
        <ele>768</ele>
        <time>2013-03-04T12:53:16.860Z</time>
      </trkpt>
      <trkpt lat="44.35307" lon="2.85773">
        <ele>768</ele>
        <time>2013-03-04T12:53:18.900Z</time>
      </trkpt>
      <trkpt lat="44.35305" lon="2.85773">
        <ele>769</ele>
        <time>2013-03-04T12:53:21.000Z</time>
      </trkpt>
      <trkpt lat="44.35304" lon="2.85772">
        <ele>769</ele>
        <time>2013-03-04T12:53:23.000Z</time>
      </trkpt>
      <trkpt lat="44.35303" lon="2.85774">
        <ele>769</ele>
        <time>2013-03-04T12:53:24.900Z</time>
      </trkpt>
      <trkpt lat="44.35306" lon="2.85771">
        <ele>769</ele>
        <time>2013-03-04T12:53:43.000Z</time>
      </trkpt>
      <trkpt lat="44.35306" lon="2.85772">
        <ele>768</ele>
        <time>2013-03-04T12:53:47.900Z</time>
      </trkpt>
      <trkpt lat="44.35307" lon="2.85774">
        <ele>768</ele>
        <time>2013-03-04T12:53:51.900Z</time>
      </trkpt>
      <trkpt lat="44.35306" lon="2.85774">
        <ele>769</ele>
        <time>2013-03-04T12:53:57.990Z</time>
      </trkpt>
      <trkpt lat="44.35305" lon="2.85774">
        <ele>769</ele>
        <time>2013-03-04T12:53:59.880Z</time>
      </trkpt>
      <trkpt lat="44.35305" lon="2.85773">
        <ele>769</ele>
        <time>2013-03-04T12:54:03.870Z</time>
      </trkpt>
      <trkpt lat="44.35304" lon="2.85772">
        <ele>769</ele>
        <time>2013-03-04T12:54:13.990Z</time>
      </trkpt>
      <trkpt lat="44.35303" lon="2.85771">
        <ele>769</ele>
        <time>2013-03-04T12:54:19.990Z</time>
      </trkpt>
      <trkpt lat="44.35303" lon="2.85769">
        <ele>769</ele>
        <time>2013-03-04T12:54:21.890Z</time>
      </trkpt>
      <trkpt lat="44.35304" lon="2.85769">
        <ele>769</ele>
        <time>2013-03-04T12:54:24.890Z</time>
      </trkpt>
      <trkpt lat="44.35304" lon="2.85767">
        <ele>769</ele>
        <time>2013-03-04T12:54:25.990Z</time>
      </trkpt>
      <trkpt lat="44.35305" lon="2.85764">
        <ele>769</ele>
        <time>2013-03-04T12:54:27.890Z</time>
      </trkpt>
      <trkpt lat="44.35307" lon="2.85762">
        <ele>768</ele>
        <time>2013-03-04T12:54:28.990Z</time>
      </trkpt>
      <trkpt lat="44.35311" lon="2.85759">
        <ele>767</ele>
        <time>2013-03-04T12:54:30.890Z</time>
      </trkpt>
      <trkpt lat="44.35312" lon="2.85757">
        <ele>767</ele>
        <time>2013-03-04T12:54:31.990Z</time>
      </trkpt>
      <trkpt lat="44.35311" lon="2.85754">
        <ele>767</ele>
        <time>2013-03-04T12:54:33.840Z</time>
      </trkpt>
      <trkpt lat="44.35311" lon="2.85752">
        <ele>767</ele>
        <time>2013-03-04T12:54:34.970Z</time>
      </trkpt>
      <trkpt lat="44.35313" lon="2.85748">
        <ele>769</ele>
        <time>2013-03-04T12:54:36.880Z</time>
      </trkpt>
      <trkpt lat="44.35315" lon="2.85749">
        <ele>768</ele>
        <time>2013-03-04T12:54:38.980Z</time>
      </trkpt>
      <trkpt lat="44.35316" lon="2.8575">
        <ele>768</ele>
        <time>2013-03-04T12:54:40.880Z</time>
      </trkpt>
      <trkpt lat="44.35317" lon="2.85749">
        <ele>767</ele>
        <time>2013-03-04T12:54:42.880Z</time>
      </trkpt>
      <trkpt lat="44.35318" lon="2.8575">
        <ele>767</ele>
        <time>2013-03-04T12:54:43.980Z</time>
      </trkpt>
      <trkpt lat="44.3532" lon="2.85751">
        <ele>764</ele>
        <time>2013-03-04T12:54:45.880Z</time>
      </trkpt>
      <trkpt lat="44.3532" lon="2.85754">
        <ele>764</ele>
        <time>2013-03-04T12:54:46.980Z</time>
      </trkpt>
      <trkpt lat="44.35321" lon="2.85758">
        <ele>764</ele>
        <time>2013-03-04T12:54:48.880Z</time>
      </trkpt>
      <trkpt lat="44.35323" lon="2.8576">
        <ele>764</ele>
        <time>2013-03-04T12:54:50.840Z</time>
      </trkpt>
      <trkpt lat="44.35324" lon="2.85761">
        <ele>764</ele>
        <time>2013-03-04T12:54:51.980Z</time>
      </trkpt>
      <trkpt lat="44.35325" lon="2.85764">
        <ele>764</ele>
        <time>2013-03-04T12:54:53.980Z</time>
      </trkpt>
      <trkpt lat="44.35325" lon="2.85766">
        <ele>765</ele>
        <time>2013-03-04T12:54:55.880Z</time>
      </trkpt>
      <trkpt lat="44.35327" lon="2.85768">
        <ele>764</ele>
        <time>2013-03-04T12:54:57.880Z</time>
      </trkpt>
      <trkpt lat="44.35328" lon="2.85769">
        <ele>765</ele>
        <time>2013-03-04T12:54:59.940Z</time>
      </trkpt>
      <trkpt lat="44.35327" lon="2.85771">
        <ele>765</ele>
        <time>2013-03-04T12:55:01.860Z</time>
      </trkpt>
      <trkpt lat="44.35326" lon="2.85772">
        <ele>765</ele>
        <time>2013-03-04T12:55:02.980Z</time>
      </trkpt>
      <trkpt lat="44.35325" lon="2.85774">
        <ele>765</ele>
        <time>2013-03-04T12:55:04.880Z</time>
      </trkpt>
      <trkpt lat="44.35326" lon="2.85776">
        <ele>765</ele>
        <time>2013-03-04T12:55:06.880Z</time>
      </trkpt>
      <trkpt lat="44.35325" lon="2.85778">
        <ele>765</ele>
        <time>2013-03-04T12:55:08.880Z</time>
      </trkpt>
      <trkpt lat="44.35326" lon="2.8578">
        <ele>765</ele>
        <time>2013-03-04T12:55:11.880Z</time>
      </trkpt>
      <trkpt lat="44.35325" lon="2.85779">
        <ele>765</ele>
        <time>2013-03-04T12:55:14.880Z</time>
      </trkpt>
      <trkpt lat="44.35326" lon="2.85779">
        <ele>765</ele>
        <time>2013-03-04T12:55:18.970Z</time>
      </trkpt>
      <trkpt lat="44.35325" lon="2.85779">
        <ele>765</ele>
        <time>2013-03-04T12:55:26.870Z</time>
      </trkpt>
      <trkpt lat="44.35325" lon="2.85778">
        <ele>765</ele>
        <time>2013-03-04T12:55:30.970Z</time>
      </trkpt>
      <trkpt lat="44.35324" lon="2.85778">
        <ele>766</ele>
        <time>2013-03-04T12:55:36.880Z</time>
      </trkpt>
      <trkpt lat="44.35324" lon="2.85777">
        <ele>765</ele>
        <time>2013-03-04T12:55:39.970Z</time>
      </trkpt>
      <trkpt lat="44.35323" lon="2.85776">
        <ele>766</ele>
        <time>2013-03-04T12:55:41.870Z</time>
      </trkpt>
      <trkpt lat="44.35323" lon="2.85774">
        <ele>766</ele>
        <time>2013-03-04T12:55:43.870Z</time>
      </trkpt>
      <trkpt lat="44.35321" lon="2.85773">
        <ele>766</ele>
        <time>2013-03-04T12:55:44.970Z</time>
      </trkpt>
      <trkpt lat="44.3532" lon="2.85775">
        <ele>766</ele>
        <time>2013-03-04T12:55:46.870Z</time>
      </trkpt>
      <trkpt lat="44.35321" lon="2.85778">
        <ele>766</ele>
        <time>2013-03-04T12:55:48.950Z</time>
      </trkpt>
      <trkpt lat="44.35321" lon="2.85785">
        <ele>766</ele>
        <time>2013-03-04T12:55:50.850Z</time>
      </trkpt>
      <trkpt lat="44.35321" lon="2.85795">
        <ele>765</ele>
        <time>2013-03-04T12:55:52.870Z</time>
      </trkpt>
      <trkpt lat="44.35318" lon="2.85806">
        <ele>764</ele>
        <time>2013-03-04T12:55:54.870Z</time>
      </trkpt>
      <trkpt lat="44.35313" lon="2.85817">
        <ele>763</ele>
        <time>2013-03-04T12:55:56.870Z</time>
      </trkpt>
      <trkpt lat="44.35311" lon="2.85824">
        <ele>763</ele>
        <time>2013-03-04T12:55:57.970Z</time>
      </trkpt>
      <trkpt lat="44.35308" lon="2.85837">
        <ele>754</ele>
        <time>2013-03-04T12:55:59.820Z</time>
      </trkpt>
      <trkpt lat="44.35305" lon="2.85852">
        <ele>754</ele>
        <time>2013-03-04T12:56:01.960Z</time>
      </trkpt>
      <trkpt lat="44.35302" lon="2.85868">
        <ele>753</ele>
        <time>2013-03-04T12:56:03.860Z</time>
      </trkpt>
      <trkpt lat="44.35298" lon="2.85884">
        <ele>751</ele>
        <time>2013-03-04T12:56:05.860Z</time>
      </trkpt>
      <trkpt lat="44.35294" lon="2.859">
        <ele>750</ele>
        <time>2013-03-04T12:56:07.860Z</time>
      </trkpt>
      <trkpt lat="44.35293" lon="2.85918">
        <ele>735</ele>
        <time>2013-03-04T12:56:09.860Z</time>
      </trkpt>
      <trkpt lat="44.35292" lon="2.85926">
        <ele>735</ele>
        <time>2013-03-04T12:56:10.960Z</time>
      </trkpt>
      <trkpt lat="44.35289" lon="2.8594">
        <ele>734</ele>
        <time>2013-03-04T12:56:12.860Z</time>
      </trkpt>
      <trkpt lat="44.35286" lon="2.85951">
        <ele>733</ele>
        <time>2013-03-04T12:56:14.970Z</time>
      </trkpt>
      <trkpt lat="44.35284" lon="2.85961">
        <ele>732</ele>
        <time>2013-03-04T12:56:16.920Z</time>
      </trkpt>
      <trkpt lat="44.35287" lon="2.85969">
        <ele>731</ele>
        <time>2013-03-04T12:56:18.860Z</time>
      </trkpt>
      <trkpt lat="44.35289" lon="2.85969">
        <ele>730</ele>
        <time>2013-03-04T12:56:19.960Z</time>
      </trkpt>
      <trkpt lat="44.35288" lon="2.85968">
        <ele>731</ele>
        <time>2013-03-04T12:56:21.860Z</time>
      </trkpt>
      <trkpt lat="44.35286" lon="2.85969">
        <ele>731</ele>
        <time>2013-03-04T12:56:23.860Z</time>
      </trkpt>
      <trkpt lat="44.35283" lon="2.8597">
        <ele>731</ele>
        <time>2013-03-04T12:56:25.860Z</time>
      </trkpt>
      <trkpt lat="44.3528" lon="2.85973">
        <ele>731</ele>
        <time>2013-03-04T12:56:27.840Z</time>
      </trkpt>
      <trkpt lat="44.35278" lon="2.85973">
        <ele>731</ele>
        <time>2013-03-04T12:56:28.860Z</time>
      </trkpt>
      <trkpt lat="44.35277" lon="2.85973">
        <ele>731</ele>
        <time>2013-03-04T12:56:30.860Z</time>
      </trkpt>
      <trkpt lat="44.35274" lon="2.85974">
        <ele>731</ele>
        <time>2013-03-04T12:56:32.960Z</time>
      </trkpt>
      <trkpt lat="44.35271" lon="2.85975">
        <ele>731</ele>
        <time>2013-03-04T12:56:34.960Z</time>
      </trkpt>
      <trkpt lat="44.35268" lon="2.85977">
        <ele>731</ele>
        <time>2013-03-04T12:56:36.860Z</time>
      </trkpt>
      <trkpt lat="44.35265" lon="2.85978">
        <ele>731</ele>
        <time>2013-03-04T12:56:38.860Z</time>
      </trkpt>
      <trkpt lat="44.35262" lon="2.85978">
        <ele>731</ele>
        <time>2013-03-04T12:56:40.850Z</time>
      </trkpt>
      <trkpt lat="44.3526" lon="2.85979">
        <ele>731</ele>
        <time>2013-03-04T12:56:42.850Z</time>
      </trkpt>
      <trkpt lat="44.35258" lon="2.85979">
        <ele>731</ele>
        <time>2013-03-04T12:56:44.130Z</time>
      </trkpt>
      <trkpt lat="44.35255" lon="2.85981">
        <ele>731</ele>
        <time>2013-03-04T12:56:45.850Z</time>
      </trkpt>
      <trkpt lat="44.35252" lon="2.85981">
        <ele>731</ele>
        <time>2013-03-04T12:56:47.850Z</time>
      </trkpt>
      <trkpt lat="44.3525" lon="2.85982">
        <ele>740</ele>
        <time>2013-03-04T12:56:49.850Z</time>
      </trkpt>
      <trkpt lat="44.35249" lon="2.85982">
        <ele>739</ele>
        <time>2013-03-04T12:56:50.910Z</time>
      </trkpt>
      <trkpt lat="44.35246" lon="2.85983">
        <ele>739</ele>
        <time>2013-03-04T12:56:52.850Z</time>
      </trkpt>
      <trkpt lat="44.35245" lon="2.85984">
        <ele>739</ele>
        <time>2013-03-04T12:56:53.860Z</time>
      </trkpt>
      <trkpt lat="44.35242" lon="2.85984">
        <ele>739</ele>
        <time>2013-03-04T12:56:55.850Z</time>
      </trkpt>
      <trkpt lat="44.35238" lon="2.85987">
        <ele>739</ele>
        <time>2013-03-04T12:56:57.850Z</time>
      </trkpt>
      <trkpt lat="44.35234" lon="2.8599">
        <ele>740</ele>
        <time>2013-03-04T12:56:59.810Z</time>
      </trkpt>
      <trkpt lat="44.35232" lon="2.85991">
        <ele>740</ele>
        <time>2013-03-04T12:57:01.850Z</time>
      </trkpt>
      <trkpt lat="44.35229" lon="2.85991">
        <ele>741</ele>
        <time>2013-03-04T12:57:03.850Z</time>
      </trkpt>
      <trkpt lat="44.35227" lon="2.85991">
        <ele>742</ele>
        <time>2013-03-04T12:57:05.850Z</time>
      </trkpt>
      <trkpt lat="44.35224" lon="2.85991">
        <ele>743</ele>
        <time>2013-03-04T12:57:07.850Z</time>
      </trkpt>
      <trkpt lat="44.35221" lon="2.85992">
        <ele>743</ele>
        <time>2013-03-04T12:57:09.850Z</time>
      </trkpt>
      <trkpt lat="44.35217" lon="2.85994">
        <ele>744</ele>
        <time>2013-03-04T12:57:11.850Z</time>
      </trkpt>
      <trkpt lat="44.35215" lon="2.85994">
        <ele>745</ele>
        <time>2013-03-04T12:57:12.950Z</time>
      </trkpt>
      <trkpt lat="44.35209" lon="2.85996">
        <ele>745</ele>
        <time>2013-03-04T12:57:14.850Z</time>
      </trkpt>
      <trkpt lat="44.35204" lon="2.85999">
        <ele>746</ele>
        <time>2013-03-04T12:57:16.730Z</time>
      </trkpt>
      <trkpt lat="44.352" lon="2.85998">
        <ele>747</ele>
        <time>2013-03-04T12:57:18.850Z</time>
      </trkpt>
      <trkpt lat="44.35197" lon="2.85998">
        <ele>747</ele>
        <time>2013-03-04T12:57:19.930Z</time>
      </trkpt>
      <trkpt lat="44.35192" lon="2.85998">
        <ele>748</ele>
        <time>2013-03-04T12:57:21.840Z</time>
      </trkpt>
      <trkpt lat="44.35187" lon="2.85999">
        <ele>748</ele>
        <time>2013-03-04T12:57:23.840Z</time>
      </trkpt>
      <trkpt lat="44.35182" lon="2.86002">
        <ele>741</ele>
        <time>2013-03-04T12:57:25.940Z</time>
      </trkpt>
      <trkpt lat="44.35177" lon="2.86004">
        <ele>743</ele>
        <time>2013-03-04T12:57:27.840Z</time>
      </trkpt>
      <trkpt lat="44.35172" lon="2.86006">
        <ele>744</ele>
        <time>2013-03-04T12:57:29.840Z</time>
      </trkpt>
      <trkpt lat="44.35168" lon="2.86007">
        <ele>744</ele>
        <time>2013-03-04T12:57:31.840Z</time>
      </trkpt>
      <trkpt lat="44.35165" lon="2.86005">
        <ele>750</ele>
        <time>2013-03-04T12:57:33.860Z</time>
      </trkpt>
      <trkpt lat="44.35162" lon="2.86004">
        <ele>750</ele>
        <time>2013-03-04T12:57:35.840Z</time>
      </trkpt>
      <trkpt lat="44.35158" lon="2.86002">
        <ele>751</ele>
        <time>2013-03-04T12:57:37.840Z</time>
      </trkpt>
      <trkpt lat="44.35155" lon="2.86">
        <ele>751</ele>
        <time>2013-03-04T12:57:39.940Z</time>
      </trkpt>
      <trkpt lat="44.35153" lon="2.85999">
        <ele>755</ele>
        <time>2013-03-04T12:57:41.840Z</time>
      </trkpt>
      <trkpt lat="44.35153" lon="2.86">
        <ele>752</ele>
        <time>2013-03-04T12:57:44.940Z</time>
      </trkpt>
      <trkpt lat="44.35155" lon="2.86002">
        <ele>751</ele>
        <time>2013-03-04T12:57:46.840Z</time>
      </trkpt>
      <trkpt lat="44.35156" lon="2.86003">
        <ele>751</ele>
        <time>2013-03-04T12:57:47.920Z</time>
      </trkpt>
      <trkpt lat="44.35159" lon="2.86006">
        <ele>751</ele>
        <time>2013-03-04T12:57:49.940Z</time>
      </trkpt>
      <trkpt lat="44.3516" lon="2.8601">
        <ele>751</ele>
        <time>2013-03-04T12:57:51.840Z</time>
      </trkpt>
      <trkpt lat="44.35162" lon="2.86013">
        <ele>751</ele>
        <time>2013-03-04T12:57:52.940Z</time>
      </trkpt>
      <trkpt lat="44.35162" lon="2.86017">
        <ele>752</ele>
        <time>2013-03-04T12:57:54.840Z</time>
      </trkpt>
      <trkpt lat="44.35162" lon="2.86022">
        <ele>752</ele>
        <time>2013-03-04T12:57:56.840Z</time>
      </trkpt>
      <trkpt lat="44.35162" lon="2.86025">
        <ele>752</ele>
        <time>2013-03-04T12:57:58.130Z</time>
      </trkpt>
      <trkpt lat="44.35161" lon="2.86031">
        <ele>752</ele>
        <time>2013-03-04T12:57:59.890Z</time>
      </trkpt>
      <trkpt lat="44.35161" lon="2.86037">
        <ele>752</ele>
        <time>2013-03-04T12:58:01.930Z</time>
      </trkpt>
      <trkpt lat="44.35159" lon="2.86043">
        <ele>752</ele>
        <time>2013-03-04T12:58:03.830Z</time>
      </trkpt>
      <trkpt lat="44.35157" lon="2.86048">
        <ele>752</ele>
        <time>2013-03-04T12:58:05.830Z</time>
      </trkpt>
      <trkpt lat="44.35155" lon="2.86052">
        <ele>752</ele>
        <time>2013-03-04T12:58:07.830Z</time>
      </trkpt>
      <trkpt lat="44.35154" lon="2.86056">
        <ele>751</ele>
        <time>2013-03-04T12:58:09.830Z</time>
      </trkpt>
      <trkpt lat="44.35152" lon="2.86061">
        <ele>751</ele>
        <time>2013-03-04T12:58:11.930Z</time>
      </trkpt>
      <trkpt lat="44.35151" lon="2.86064">
        <ele>750</ele>
        <time>2013-03-04T12:58:13.830Z</time>
      </trkpt>
      <trkpt lat="44.3515" lon="2.86066">
        <ele>750</ele>
        <time>2013-03-04T12:58:15.930Z</time>
      </trkpt>
      <trkpt lat="44.3515" lon="2.86069">
        <ele>750</ele>
        <time>2013-03-04T12:58:17.930Z</time>
      </trkpt>
      <trkpt lat="44.35149" lon="2.86071">
        <ele>750</ele>
        <time>2013-03-04T12:58:19.130Z</time>
      </trkpt>
      <trkpt lat="44.35146" lon="2.86075">
        <ele>750</ele>
        <time>2013-03-04T12:58:21.130Z</time>
      </trkpt>
      <trkpt lat="44.35144" lon="2.86078">
        <ele>750</ele>
        <time>2013-03-04T12:58:22.930Z</time>
      </trkpt>
      <trkpt lat="44.35142" lon="2.86079">
        <ele>751</ele>
        <time>2013-03-04T12:58:24.130Z</time>
      </trkpt>
      <trkpt lat="44.35141" lon="2.86081">
        <ele>751</ele>
        <time>2013-03-04T12:58:25.130Z</time>
      </trkpt>
      <trkpt lat="44.35139" lon="2.86083">
        <ele>752</ele>
        <time>2013-03-04T12:58:26.130Z</time>
      </trkpt>
      <trkpt lat="44.35137" lon="2.86088">
        <ele>748</ele>
        <time>2013-03-04T12:58:28.130Z</time>
      </trkpt>
      <trkpt lat="44.35135" lon="2.86091">
        <ele>749</ele>
        <time>2013-03-04T12:58:30.130Z</time>
      </trkpt>
      <trkpt lat="44.35132" lon="2.86094">
        <ele>750</ele>
        <time>2013-03-04T12:58:32.130Z</time>
      </trkpt>
      <trkpt lat="44.35129" lon="2.86099">
        <ele>750</ele>
        <time>2013-03-04T12:58:34.130Z</time>
      </trkpt>
      <trkpt lat="44.35127" lon="2.86103">
        <ele>750</ele>
        <time>2013-03-04T12:58:36.130Z</time>
      </trkpt>
      <trkpt lat="44.35125" lon="2.86106">
        <ele>751</ele>
        <time>2013-03-04T12:58:38.130Z</time>
      </trkpt>
      <trkpt lat="44.35124" lon="2.86108">
        <ele>751</ele>
        <time>2013-03-04T12:58:40.130Z</time>
      </trkpt>
      <trkpt lat="44.3512" lon="2.86111">
        <ele>752</ele>
        <time>2013-03-04T12:58:41.920Z</time>
      </trkpt>
      <trkpt lat="44.35119" lon="2.86113">
        <ele>752</ele>
        <time>2013-03-04T12:58:43.030Z</time>
      </trkpt>
      <trkpt lat="44.35117" lon="2.86116">
        <ele>752</ele>
        <time>2013-03-04T12:58:45.020Z</time>
      </trkpt>
      <trkpt lat="44.35115" lon="2.8612">
        <ele>752</ele>
        <time>2013-03-04T12:58:46.920Z</time>
      </trkpt>
      <trkpt lat="44.35114" lon="2.86122">
        <ele>752</ele>
        <time>2013-03-04T12:58:48.020Z</time>
      </trkpt>
      <trkpt lat="44.35112" lon="2.86126">
        <ele>752</ele>
        <time>2013-03-04T12:58:49.920Z</time>
      </trkpt>
      <trkpt lat="44.3511" lon="2.86127">
        <ele>752</ele>
        <time>2013-03-04T12:58:50.980Z</time>
      </trkpt>
      <trkpt lat="44.35108" lon="2.86131">
        <ele>752</ele>
        <time>2013-03-04T12:58:52.920Z</time>
      </trkpt>
      <trkpt lat="44.35106" lon="2.86134">
        <ele>752</ele>
        <time>2013-03-04T12:58:54.910Z</time>
      </trkpt>
      <trkpt lat="44.35104" lon="2.86136">
        <ele>752</ele>
        <time>2013-03-04T12:58:56.020Z</time>
      </trkpt>
      <trkpt lat="44.35102" lon="2.86139">
        <ele>753</ele>
        <time>2013-03-04T12:58:57.920Z</time>
      </trkpt>
      <trkpt lat="44.351" lon="2.8614">
        <ele>753</ele>
        <time>2013-03-04T12:58:59.020Z</time>
      </trkpt>
      <trkpt lat="44.35097" lon="2.86141">
        <ele>753</ele>
        <time>2013-03-04T12:59:00.920Z</time>
      </trkpt>
      <trkpt lat="44.35094" lon="2.86144">
        <ele>753</ele>
        <time>2013-03-04T12:59:02.920Z</time>
      </trkpt>
      <trkpt lat="44.35093" lon="2.86145">
        <ele>754</ele>
        <time>2013-03-04T12:59:04.130Z</time>
      </trkpt>
      <trkpt lat="44.35091" lon="2.86147">
        <ele>754</ele>
        <time>2013-03-04T12:59:05.900Z</time>
      </trkpt>
      <trkpt lat="44.35089" lon="2.86148">
        <ele>754</ele>
        <time>2013-03-04T12:59:07.020Z</time>
      </trkpt>
      <trkpt lat="44.35085" lon="2.8615">
        <ele>754</ele>
        <time>2013-03-04T12:59:08.920Z</time>
      </trkpt>
      <trkpt lat="44.35081" lon="2.86153">
        <ele>767</ele>
        <time>2013-03-04T12:59:10.920Z</time>
      </trkpt>
      <trkpt lat="44.3508" lon="2.86155">
        <ele>766</ele>
        <time>2013-03-04T12:59:12.020Z</time>
      </trkpt>
      <trkpt lat="44.35077" lon="2.86155">
        <ele>767</ele>
        <time>2013-03-04T12:59:13.920Z</time>
      </trkpt>
      <trkpt lat="44.35075" lon="2.86157">
        <ele>767</ele>
        <time>2013-03-04T12:59:15.920Z</time>
      </trkpt>
      <trkpt lat="44.35071" lon="2.86159">
        <ele>768</ele>
        <time>2013-03-04T12:59:17.920Z</time>
      </trkpt>
      <trkpt lat="44.35068" lon="2.8616">
        <ele>769</ele>
        <time>2013-03-04T12:59:19.020Z</time>
      </trkpt>
      <trkpt lat="44.35064" lon="2.86162">
        <ele>771</ele>
        <time>2013-03-04T12:59:20.920Z</time>
      </trkpt>
      <trkpt lat="44.35063" lon="2.86163">
        <ele>771</ele>
        <time>2013-03-04T12:59:22.010Z</time>
      </trkpt>
      <trkpt lat="44.35061" lon="2.86165">
        <ele>772</ele>
        <time>2013-03-04T12:59:23.920Z</time>
      </trkpt>
      <trkpt lat="44.35059" lon="2.86166">
        <ele>773</ele>
        <time>2013-03-04T12:59:25.010Z</time>
      </trkpt>
      <trkpt lat="44.35056" lon="2.86167">
        <ele>766</ele>
        <time>2013-03-04T12:59:26.910Z</time>
      </trkpt>
      <trkpt lat="44.35054" lon="2.86168">
        <ele>767</ele>
        <time>2013-03-04T12:59:28.910Z</time>
      </trkpt>
      <trkpt lat="44.35052" lon="2.86168">
        <ele>767</ele>
        <time>2013-03-04T12:59:31.010Z</time>
      </trkpt>
      <trkpt lat="44.35051" lon="2.86167">
        <ele>768</ele>
        <time>2013-03-04T12:59:33.000Z</time>
      </trkpt>
      <trkpt lat="44.35049" lon="2.86168">
        <ele>768</ele>
        <time>2013-03-04T12:59:35.010Z</time>
      </trkpt>
      <trkpt lat="44.35046" lon="2.8617">
        <ele>769</ele>
        <time>2013-03-04T12:59:37.010Z</time>
      </trkpt>
      <trkpt lat="44.35044" lon="2.86173">
        <ele>770</ele>
        <time>2013-03-04T12:59:38.910Z</time>
      </trkpt>
      <trkpt lat="44.35042" lon="2.86174">
        <ele>770</ele>
        <time>2013-03-04T12:59:40.010Z</time>
      </trkpt>
      <trkpt lat="44.35041" lon="2.86176">
        <ele>770</ele>
        <time>2013-03-04T12:59:42.010Z</time>
      </trkpt>
      <trkpt lat="44.3504" lon="2.86179">
        <ele>770</ele>
        <time>2013-03-04T12:59:43.910Z</time>
      </trkpt>
      <trkpt lat="44.35039" lon="2.86181">
        <ele>771</ele>
        <time>2013-03-04T12:59:45.010Z</time>
      </trkpt>
      <trkpt lat="44.35038" lon="2.86184">
        <ele>771</ele>
        <time>2013-03-04T12:59:46.890Z</time>
      </trkpt>
      <trkpt lat="44.35037" lon="2.86184">
        <ele>771</ele>
        <time>2013-03-04T12:59:48.010Z</time>
      </trkpt>
      <trkpt lat="44.35035" lon="2.86187">
        <ele>771</ele>
        <time>2013-03-04T12:59:50.010Z</time>
      </trkpt>
      <trkpt lat="44.35035" lon="2.86189">
        <ele>771</ele>
        <time>2013-03-04T12:59:52.010Z</time>
      </trkpt>
      <trkpt lat="44.35034" lon="2.8619">
        <ele>771</ele>
        <time>2013-03-04T12:59:53.910Z</time>
      </trkpt>
      <trkpt lat="44.35033" lon="2.86192">
        <ele>771</ele>
        <time>2013-03-04T12:59:55.010Z</time>
      </trkpt>
      <trkpt lat="44.35031" lon="2.86194">
        <ele>771</ele>
        <time>2013-03-04T12:59:56.910Z</time>
      </trkpt>
      <trkpt lat="44.3503" lon="2.86196">
        <ele>771</ele>
        <time>2013-03-04T12:59:58.010Z</time>
      </trkpt>
      <trkpt lat="44.35027" lon="2.86199">
        <ele>772</ele>
        <time>2013-03-04T12:59:59.820Z</time>
      </trkpt>
      <trkpt lat="44.35027" lon="2.862">
        <ele>771</ele>
        <time>2013-03-04T13:00:01.000Z</time>
      </trkpt>
      <trkpt lat="44.35026" lon="2.86203">
        <ele>771</ele>
        <time>2013-03-04T13:00:03.000Z</time>
      </trkpt>
      <trkpt lat="44.35024" lon="2.86205">
        <ele>771</ele>
        <time>2013-03-04T13:00:04.900Z</time>
      </trkpt>
      <trkpt lat="44.35021" lon="2.86209">
        <ele>771</ele>
        <time>2013-03-04T13:00:06.900Z</time>
      </trkpt>
      <trkpt lat="44.35018" lon="2.8621">
        <ele>771</ele>
        <time>2013-03-04T13:00:08.000Z</time>
      </trkpt>
      <trkpt lat="44.35015" lon="2.86213">
        <ele>771</ele>
        <time>2013-03-04T13:00:09.900Z</time>
      </trkpt>
      <trkpt lat="44.35013" lon="2.86216">
        <ele>771</ele>
        <time>2013-03-04T13:00:11.900Z</time>
      </trkpt>
      <trkpt lat="44.35012" lon="2.86217">
        <ele>771</ele>
        <time>2013-03-04T13:00:13.000Z</time>
      </trkpt>
      <trkpt lat="44.3501" lon="2.8622">
        <ele>771</ele>
        <time>2013-03-04T13:00:15.000Z</time>
      </trkpt>
      <trkpt lat="44.35008" lon="2.86223">
        <ele>771</ele>
        <time>2013-03-04T13:00:16.860Z</time>
      </trkpt>
      <trkpt lat="44.35006" lon="2.86225">
        <ele>771</ele>
        <time>2013-03-04T13:00:18.000Z</time>
      </trkpt>
      <trkpt lat="44.35004" lon="2.86227">
        <ele>771</ele>
        <time>2013-03-04T13:00:20.000Z</time>
      </trkpt>
      <trkpt lat="44.35002" lon="2.86229">
        <ele>771</ele>
        <time>2013-03-04T13:00:21.900Z</time>
      </trkpt>
      <trkpt lat="44.35" lon="2.86231">
        <ele>782</ele>
        <time>2013-03-04T13:00:23.000Z</time>
      </trkpt>
      <trkpt lat="44.34997" lon="2.86232">
        <ele>782</ele>
        <time>2013-03-04T13:00:24.880Z</time>
      </trkpt>
      <trkpt lat="44.34995" lon="2.86233">
        <ele>782</ele>
        <time>2013-03-04T13:00:26.000Z</time>
      </trkpt>
      <trkpt lat="44.34991" lon="2.86235">
        <ele>782</ele>
        <time>2013-03-04T13:00:28.000Z</time>
      </trkpt>
      <trkpt lat="44.34988" lon="2.86236">
        <ele>782</ele>
        <time>2013-03-04T13:00:29.900Z</time>
      </trkpt>
      <trkpt lat="44.34987" lon="2.86236">
        <ele>783</ele>
        <time>2013-03-04T13:00:31.000Z</time>
      </trkpt>
      <trkpt lat="44.34983" lon="2.86238">
        <ele>783</ele>
        <time>2013-03-04T13:00:32.900Z</time>
      </trkpt>
      <trkpt lat="44.34981" lon="2.86239">
        <ele>784</ele>
        <time>2013-03-04T13:00:34.910Z</time>
      </trkpt>
      <trkpt lat="44.34979" lon="2.8624">
        <ele>784</ele>
        <time>2013-03-04T13:00:36.000Z</time>
      </trkpt>
      <trkpt lat="44.34975" lon="2.8624">
        <ele>785</ele>
        <time>2013-03-04T13:00:37.880Z</time>
      </trkpt>
      <trkpt lat="44.34973" lon="2.86241">
        <ele>785</ele>
        <time>2013-03-04T13:00:39.000Z</time>
      </trkpt>
      <trkpt lat="44.34969" lon="2.86244">
        <ele>786</ele>
        <time>2013-03-04T13:00:41.000Z</time>
      </trkpt>
      <trkpt lat="44.34966" lon="2.86243">
        <ele>787</ele>
        <time>2013-03-04T13:00:42.900Z</time>
      </trkpt>
      <trkpt lat="44.34964" lon="2.86242">
        <ele>787</ele>
        <time>2013-03-04T13:00:44.000Z</time>
      </trkpt>
      <trkpt lat="44.34958" lon="2.86242">
        <ele>788</ele>
        <time>2013-03-04T13:00:45.890Z</time>
      </trkpt>
      <trkpt lat="44.34955" lon="2.86244">
        <ele>789</ele>
        <time>2013-03-04T13:00:46.990Z</time>
      </trkpt>
      <trkpt lat="44.34953" lon="2.86245">
        <ele>789</ele>
        <time>2013-03-04T13:00:48.000Z</time>
      </trkpt>
      <trkpt lat="44.34948" lon="2.86246">
        <ele>790</ele>
        <time>2013-03-04T13:00:49.890Z</time>
      </trkpt>
      <trkpt lat="44.34943" lon="2.86246">
        <ele>790</ele>
        <time>2013-03-04T13:00:51.890Z</time>
      </trkpt>
      <trkpt lat="44.34941" lon="2.86247">
        <ele>790</ele>
        <time>2013-03-04T13:00:52.990Z</time>
      </trkpt>
      <trkpt lat="44.34938" lon="2.86248">
        <ele>790</ele>
        <time>2013-03-04T13:00:54.890Z</time>
      </trkpt>
      <trkpt lat="44.34936" lon="2.86248">
        <ele>791</ele>
        <time>2013-03-04T13:00:55.990Z</time>
      </trkpt>
      <trkpt lat="44.34933" lon="2.86246">
        <ele>791</ele>
        <time>2013-03-04T13:00:57.890Z</time>
      </trkpt>
      <trkpt lat="44.34931" lon="2.86245">
        <ele>791</ele>
        <time>2013-03-04T13:00:58.990Z</time>
      </trkpt>
      <trkpt lat="44.3493" lon="2.86242">
        <ele>791</ele>
        <time>2013-03-04T13:01:00.890Z</time>
      </trkpt>
      <trkpt lat="44.34928" lon="2.86242">
        <ele>791</ele>
        <time>2013-03-04T13:01:01.970Z</time>
      </trkpt>
      <trkpt lat="44.34925" lon="2.8624">
        <ele>791</ele>
        <time>2013-03-04T13:01:03.890Z</time>
      </trkpt>
      <trkpt lat="44.34924" lon="2.8624">
        <ele>791</ele>
        <time>2013-03-04T13:01:04.990Z</time>
      </trkpt>
      <trkpt lat="44.34921" lon="2.86237">
        <ele>792</ele>
        <time>2013-03-04T13:01:06.890Z</time>
      </trkpt>
      <trkpt lat="44.34919" lon="2.86235">
        <ele>792</ele>
        <time>2013-03-04T13:01:07.990Z</time>
      </trkpt>
      <trkpt lat="44.34916" lon="2.86234">
        <ele>799</ele>
        <time>2013-03-04T13:01:09.990Z</time>
      </trkpt>
      <trkpt lat="44.34913" lon="2.86233">
        <ele>800</ele>
        <time>2013-03-04T13:01:11.890Z</time>
      </trkpt>
      <trkpt lat="44.34912" lon="2.86233">
        <ele>800</ele>
        <time>2013-03-04T13:01:12.990Z</time>
      </trkpt>
      <trkpt lat="44.34908" lon="2.86232">
        <ele>801</ele>
        <time>2013-03-04T13:01:14.870Z</time>
      </trkpt>
      <trkpt lat="44.34907" lon="2.86232">
        <ele>801</ele>
        <time>2013-03-04T13:01:15.990Z</time>
      </trkpt>
      <trkpt lat="44.34904" lon="2.8623">
        <ele>802</ele>
        <time>2013-03-04T13:01:17.990Z</time>
      </trkpt>
      <trkpt lat="44.34901" lon="2.86227">
        <ele>803</ele>
        <time>2013-03-04T13:01:19.890Z</time>
      </trkpt>
      <trkpt lat="44.349" lon="2.86226">
        <ele>804</ele>
        <time>2013-03-04T13:01:20.990Z</time>
      </trkpt>
      <trkpt lat="44.34898" lon="2.86224">
        <ele>804</ele>
        <time>2013-03-04T13:01:22.880Z</time>
      </trkpt>
      <trkpt lat="44.34897" lon="2.86224">
        <ele>804</ele>
        <time>2013-03-04T13:01:23.980Z</time>
      </trkpt>
      <trkpt lat="44.34896" lon="2.86224">
        <ele>805</ele>
        <time>2013-03-04T13:01:25.880Z</time>
      </trkpt>
      <trkpt lat="44.34895" lon="2.86223">
        <ele>805</ele>
        <time>2013-03-04T13:01:26.980Z</time>
      </trkpt>
      <trkpt lat="44.34892" lon="2.86223">
        <ele>805</ele>
        <time>2013-03-04T13:01:28.880Z</time>
      </trkpt>
      <trkpt lat="44.3489" lon="2.86224">
        <ele>805</ele>
        <time>2013-03-04T13:01:29.980Z</time>
      </trkpt>
      <trkpt lat="44.34886" lon="2.86227">
        <ele>805</ele>
        <time>2013-03-04T13:01:31.880Z</time>
      </trkpt>
      <trkpt lat="44.34884" lon="2.86228">
        <ele>806</ele>
        <time>2013-03-04T13:01:32.980Z</time>
      </trkpt>
      <trkpt lat="44.34881" lon="2.86229">
        <ele>806</ele>
        <time>2013-03-04T13:01:34.980Z</time>
      </trkpt>
      <trkpt lat="44.34879" lon="2.86228">
        <ele>806</ele>
        <time>2013-03-04T13:01:36.880Z</time>
      </trkpt>
      <trkpt lat="44.34876" lon="2.8623">
        <ele>806</ele>
        <time>2013-03-04T13:01:38.980Z</time>
      </trkpt>
      <trkpt lat="44.34873" lon="2.86233">
        <ele>806</ele>
        <time>2013-03-04T13:01:40.880Z</time>
      </trkpt>
      <trkpt lat="44.34869" lon="2.86234">
        <ele>807</ele>
        <time>2013-03-04T13:01:42.880Z</time>
      </trkpt>
      <trkpt lat="44.34868" lon="2.86234">
        <ele>807</ele>
        <time>2013-03-04T13:01:44.980Z</time>
      </trkpt>
      <trkpt lat="44.34865" lon="2.86236">
        <ele>807</ele>
        <time>2013-03-04T13:01:46.880Z</time>
      </trkpt>
      <trkpt lat="44.34862" lon="2.86237">
        <ele>807</ele>
        <time>2013-03-04T13:01:48.880Z</time>
      </trkpt>
      <trkpt lat="44.3486" lon="2.86238">
        <ele>807</ele>
        <time>2013-03-04T13:01:50.860Z</time>
      </trkpt>
      <trkpt lat="44.34856" lon="2.86239">
        <ele>807</ele>
        <time>2013-03-04T13:01:52.980Z</time>
      </trkpt>
      <trkpt lat="44.34854" lon="2.8624">
        <ele>807</ele>
        <time>2013-03-04T13:01:54.880Z</time>
      </trkpt>
      <trkpt lat="44.34853" lon="2.8624">
        <ele>807</ele>
        <time>2013-03-04T13:01:56.880Z</time>
      </trkpt>
      <trkpt lat="44.3485" lon="2.86241">
        <ele>807</ele>
        <time>2013-03-04T13:01:58.880Z</time>
      </trkpt>
      <trkpt lat="44.34848" lon="2.86241">
        <ele>807</ele>
        <time>2013-03-04T13:02:00.870Z</time>
      </trkpt>
      <trkpt lat="44.34847" lon="2.86241">
        <ele>807</ele>
        <time>2013-03-04T13:02:02.880Z</time>
      </trkpt>
      <trkpt lat="44.34844" lon="2.86242">
        <ele>807</ele>
        <time>2013-03-04T13:02:04.880Z</time>
      </trkpt>
      <trkpt lat="44.34842" lon="2.86243">
        <ele>807</ele>
        <time>2013-03-04T13:02:05.970Z</time>
      </trkpt>
      <trkpt lat="44.3484" lon="2.86243">
        <ele>807</ele>
        <time>2013-03-04T13:02:07.870Z</time>
      </trkpt>
      <trkpt lat="44.34839" lon="2.86243">
        <ele>807</ele>
        <time>2013-03-04T13:02:09.870Z</time>
      </trkpt>
      <trkpt lat="44.34837" lon="2.86245">
        <ele>807</ele>
        <time>2013-03-04T13:02:11.870Z</time>
      </trkpt>
      <trkpt lat="44.34836" lon="2.86248">
        <ele>806</ele>
        <time>2013-03-04T13:02:13.870Z</time>
      </trkpt>
      <trkpt lat="44.34835" lon="2.86249">
        <ele>806</ele>
        <time>2013-03-04T13:02:15.870Z</time>
      </trkpt>
      <trkpt lat="44.34834" lon="2.8625">
        <ele>806</ele>
        <time>2013-03-04T13:02:16.930Z</time>
      </trkpt>
      <trkpt lat="44.34831" lon="2.8625">
        <ele>808</ele>
        <time>2013-03-04T13:02:18.970Z</time>
      </trkpt>
      <trkpt lat="44.34829" lon="2.8625">
        <ele>810</ele>
        <time>2013-03-04T13:02:20.850Z</time>
      </trkpt>
      <trkpt lat="44.34828" lon="2.86252">
        <ele>809</ele>
        <time>2013-03-04T13:02:22.970Z</time>
      </trkpt>
      <trkpt lat="44.34825" lon="2.86254">
        <ele>811</ele>
        <time>2013-03-04T13:02:24.870Z</time>
      </trkpt>
      <trkpt lat="44.34823" lon="2.86257">
        <ele>812</ele>
        <time>2013-03-04T13:02:26.870Z</time>
      </trkpt>
      <trkpt lat="44.34822" lon="2.86258">
        <ele>813</ele>
        <time>2013-03-04T13:02:28.870Z</time>
      </trkpt>
      <trkpt lat="44.34821" lon="2.8626">
        <ele>813</ele>
        <time>2013-03-04T13:02:30.870Z</time>
      </trkpt>
      <trkpt lat="44.34821" lon="2.86261">
        <ele>813</ele>
        <time>2013-03-04T13:02:32.870Z</time>
      </trkpt>
      <trkpt lat="44.3482" lon="2.86263">
        <ele>814</ele>
        <time>2013-03-04T13:02:34.950Z</time>
      </trkpt>
      <trkpt lat="44.34817" lon="2.86265">
        <ele>815</ele>
        <time>2013-03-04T13:02:36.970Z</time>
      </trkpt>
      <trkpt lat="44.34816" lon="2.86268">
        <ele>815</ele>
        <time>2013-03-04T13:02:38.870Z</time>
      </trkpt>
      <trkpt lat="44.34816" lon="2.86269">
        <ele>816</ele>
        <time>2013-03-04T13:02:40.970Z</time>
      </trkpt>
      <trkpt lat="44.34815" lon="2.86272">
        <ele>816</ele>
        <time>2013-03-04T13:02:42.870Z</time>
      </trkpt>
      <trkpt lat="44.34812" lon="2.86273">
        <ele>817</ele>
        <time>2013-03-04T13:02:44.860Z</time>
      </trkpt>
      <trkpt lat="44.3481" lon="2.86275">
        <ele>817</ele>
        <time>2013-03-04T13:02:46.860Z</time>
      </trkpt>
      <trkpt lat="44.34807" lon="2.86276">
        <ele>818</ele>
        <time>2013-03-04T13:02:48.850Z</time>
      </trkpt>
      <trkpt lat="44.34804" lon="2.86279">
        <ele>818</ele>
        <time>2013-03-04T13:02:50.920Z</time>
      </trkpt>
      <trkpt lat="44.34803" lon="2.86281">
        <ele>819</ele>
        <time>2013-03-04T13:02:52.860Z</time>
      </trkpt>
      <trkpt lat="44.34802" lon="2.86283">
        <ele>819</ele>
        <time>2013-03-04T13:02:53.960Z</time>
      </trkpt>
      <trkpt lat="44.34802" lon="2.86284">
        <ele>819</ele>
        <time>2013-03-04T13:02:55.860Z</time>
      </trkpt>
      <trkpt lat="44.34801" lon="2.86287">
        <ele>819</ele>
        <time>2013-03-04T13:02:57.860Z</time>
      </trkpt>
      <trkpt lat="44.34798" lon="2.86289">
        <ele>819</ele>
        <time>2013-03-04T13:02:59.920Z</time>
      </trkpt>
      <trkpt lat="44.34796" lon="2.8629">
        <ele>820</ele>
        <time>2013-03-04T13:03:01.860Z</time>
      </trkpt>
      <trkpt lat="44.34793" lon="2.86292">
        <ele>820</ele>
        <time>2013-03-04T13:03:03.860Z</time>
      </trkpt>
      <trkpt lat="44.3479" lon="2.86293">
        <ele>820</ele>
        <time>2013-03-04T13:03:05.860Z</time>
      </trkpt>
      <trkpt lat="44.34788" lon="2.86293">
        <ele>821</ele>
        <time>2013-03-04T13:03:06.960Z</time>
      </trkpt>
      <trkpt lat="44.34785" lon="2.86296">
        <ele>821</ele>
        <time>2013-03-04T13:03:08.860Z</time>
      </trkpt>
      <trkpt lat="44.34783" lon="2.86298">
        <ele>821</ele>
        <time>2013-03-04T13:03:10.860Z</time>
      </trkpt>
      <trkpt lat="44.34781" lon="2.863">
        <ele>821</ele>
        <time>2013-03-04T13:03:12.860Z</time>
      </trkpt>
      <trkpt lat="44.34779" lon="2.86302">
        <ele>822</ele>
        <time>2013-03-04T13:03:14.860Z</time>
      </trkpt>
      <trkpt lat="44.34777" lon="2.86305">
        <ele>822</ele>
        <time>2013-03-04T13:03:16.910Z</time>
      </trkpt>
      <trkpt lat="44.34775" lon="2.86309">
        <ele>822</ele>
        <time>2013-03-04T13:03:18.860Z</time>
      </trkpt>
      <trkpt lat="44.34774" lon="2.8631">
        <ele>822</ele>
        <time>2013-03-04T13:03:19.960Z</time>
      </trkpt>
      <trkpt lat="44.34772" lon="2.86313">
        <ele>822</ele>
        <time>2013-03-04T13:03:21.860Z</time>
      </trkpt>
      <trkpt lat="44.3477" lon="2.86315">
        <ele>822</ele>
        <time>2013-03-04T13:03:23.860Z</time>
      </trkpt>
      <trkpt lat="44.34769" lon="2.86315">
        <ele>823</ele>
        <time>2013-03-04T13:03:24.960Z</time>
      </trkpt>
      <trkpt lat="44.34766" lon="2.86317">
        <ele>823</ele>
        <time>2013-03-04T13:03:26.840Z</time>
      </trkpt>
      <trkpt lat="44.34764" lon="2.86317">
        <ele>823</ele>
        <time>2013-03-04T13:03:27.950Z</time>
      </trkpt>
      <trkpt lat="44.34759" lon="2.86321">
        <ele>824</ele>
        <time>2013-03-04T13:03:29.850Z</time>
      </trkpt>
      <trkpt lat="44.34754" lon="2.86325">
        <ele>824</ele>
        <time>2013-03-04T13:03:32.130Z</time>
      </trkpt>
      <trkpt lat="44.34752" lon="2.86328">
        <ele>825</ele>
        <time>2013-03-04T13:03:33.840Z</time>
      </trkpt>
      <trkpt lat="44.34748" lon="2.86329">
        <ele>829</ele>
        <time>2013-03-04T13:03:35.860Z</time>
      </trkpt>
      <trkpt lat="44.34743" lon="2.86332">
        <ele>831</ele>
        <time>2013-03-04T13:03:37.950Z</time>
      </trkpt>
      <trkpt lat="44.34739" lon="2.86334">
        <ele>831</ele>
        <time>2013-03-04T13:03:39.850Z</time>
      </trkpt>
      <trkpt lat="44.34735" lon="2.86335">
        <ele>833</ele>
        <time>2013-03-04T13:03:41.950Z</time>
      </trkpt>
      <trkpt lat="44.34731" lon="2.86336">
        <ele>834</ele>
        <time>2013-03-04T13:03:43.850Z</time>
      </trkpt>
      <trkpt lat="44.34728" lon="2.86339">
        <ele>835</ele>
        <time>2013-03-04T13:03:45.850Z</time>
      </trkpt>
      <trkpt lat="44.34725" lon="2.86342">
        <ele>836</ele>
        <time>2013-03-04T13:03:47.850Z</time>
      </trkpt>
      <trkpt lat="44.34722" lon="2.86344">
        <ele>837</ele>
        <time>2013-03-04T13:03:49.850Z</time>
      </trkpt>
      <trkpt lat="44.3472" lon="2.86345">
        <ele>837</ele>
        <time>2013-03-04T13:03:50.910Z</time>
      </trkpt>
      <trkpt lat="44.34716" lon="2.86346">
        <ele>838</ele>
        <time>2013-03-04T13:03:52.850Z</time>
      </trkpt>
      <trkpt lat="44.34713" lon="2.86349">
        <ele>839</ele>
        <time>2013-03-04T13:03:54.930Z</time>
      </trkpt>
      <trkpt lat="44.34711" lon="2.86348">
        <ele>839</ele>
        <time>2013-03-04T13:03:56.850Z</time>
      </trkpt>
      <trkpt lat="44.34709" lon="2.86347">
        <ele>839</ele>
        <time>2013-03-04T13:03:58.850Z</time>
      </trkpt>
      <trkpt lat="44.3471" lon="2.86347">
        <ele>839</ele>
        <time>2013-03-04T13:04:00.840Z</time>
      </trkpt>
      <trkpt lat="44.34711" lon="2.86346">
        <ele>839</ele>
        <time>2013-03-04T13:04:02.850Z</time>
      </trkpt>
      <trkpt lat="44.34712" lon="2.86347">
        <ele>839</ele>
        <time>2013-03-04T13:04:04.950Z</time>
      </trkpt>
      <trkpt lat="44.34711" lon="2.86349">
        <ele>839</ele>
        <time>2013-03-04T13:04:06.840Z</time>
      </trkpt>
      <trkpt lat="44.3471" lon="2.86351">
        <ele>839</ele>
        <time>2013-03-04T13:04:08.940Z</time>
      </trkpt>
      <trkpt lat="44.34708" lon="2.86352">
        <ele>840</ele>
        <time>2013-03-04T13:04:10.840Z</time>
      </trkpt>
      <trkpt lat="44.34706" lon="2.86353">
        <ele>840</ele>
        <time>2013-03-04T13:04:12.840Z</time>
      </trkpt>
      <trkpt lat="44.34705" lon="2.86355">
        <ele>840</ele>
        <time>2013-03-04T13:04:14.840Z</time>
      </trkpt>
      <trkpt lat="44.34703" lon="2.86357">
        <ele>840</ele>
        <time>2013-03-04T13:04:16.900Z</time>
      </trkpt>
      <trkpt lat="44.34701" lon="2.86358">
        <ele>841</ele>
        <time>2013-03-04T13:04:18.940Z</time>
      </trkpt>
      <trkpt lat="44.34699" lon="2.86361">
        <ele>841</ele>
        <time>2013-03-04T13:04:20.840Z</time>
      </trkpt>
      <trkpt lat="44.34698" lon="2.86362">
        <ele>841</ele>
        <time>2013-03-04T13:04:25.940Z</time>
      </trkpt>
      <trkpt lat="44.34696" lon="2.86363">
        <ele>841</ele>
        <time>2013-03-04T13:04:27.940Z</time>
      </trkpt>
      <trkpt lat="44.34693" lon="2.86363">
        <ele>842</ele>
        <time>2013-03-04T13:04:29.840Z</time>
      </trkpt>
      <trkpt lat="44.34692" lon="2.86365">
        <ele>842</ele>
        <time>2013-03-04T13:04:32.940Z</time>
      </trkpt>
      <trkpt lat="44.34691" lon="2.86365">
        <ele>842</ele>
        <time>2013-03-04T13:04:35.840Z</time>
      </trkpt>
      <trkpt lat="44.34689" lon="2.86364">
        <ele>842</ele>
        <time>2013-03-04T13:04:37.840Z</time>
      </trkpt>
      <trkpt lat="44.34687" lon="2.86364">
        <ele>842</ele>
        <time>2013-03-04T13:04:39.840Z</time>
      </trkpt>
      <trkpt lat="44.34683" lon="2.86364">
        <ele>843</ele>
        <time>2013-03-04T13:04:43.130Z</time>
      </trkpt>
      <trkpt lat="44.34681" lon="2.86365">
        <ele>843</ele>
        <time>2013-03-04T13:04:45.040Z</time>
      </trkpt>
      <trkpt lat="44.3468" lon="2.86365">
        <ele>843</ele>
        <time>2013-03-04T13:04:46.890Z</time>
      </trkpt>
      <trkpt lat="44.34679" lon="2.86365">
        <ele>843</ele>
        <time>2013-03-04T13:04:49.930Z</time>
      </trkpt>
      <trkpt lat="44.34677" lon="2.86367">
        <ele>843</ele>
        <time>2013-03-04T13:04:51.930Z</time>
      </trkpt>
      <trkpt lat="44.34675" lon="2.8637">
        <ele>843</ele>
        <time>2013-03-04T13:04:53.930Z</time>
      </trkpt>
      <trkpt lat="44.34675" lon="2.86375">
        <ele>843</ele>
        <time>2013-03-04T13:04:55.830Z</time>
      </trkpt>
      <trkpt lat="44.34675" lon="2.86377">
        <ele>842</ele>
        <time>2013-03-04T13:04:56.930Z</time>
      </trkpt>
      <trkpt lat="44.34674" lon="2.86378">
        <ele>842</ele>
        <time>2013-03-04T13:04:58.830Z</time>
      </trkpt>
      <trkpt lat="44.34673" lon="2.86378">
        <ele>843</ele>
        <time>2013-03-04T13:04:59.890Z</time>
      </trkpt>
      <trkpt lat="44.3467" lon="2.86378">
        <ele>843</ele>
        <time>2013-03-04T13:05:01.930Z</time>
      </trkpt>
      <trkpt lat="44.34669" lon="2.86379">
        <ele>843</ele>
        <time>2013-03-04T13:05:03.830Z</time>
      </trkpt>
      <trkpt lat="44.34668" lon="2.86382">
        <ele>843</ele>
        <time>2013-03-04T13:05:05.930Z</time>
      </trkpt>
      <trkpt lat="44.34667" lon="2.86384">
        <ele>843</ele>
        <time>2013-03-04T13:05:07.830Z</time>
      </trkpt>
      <trkpt lat="44.34666" lon="2.86387">
        <ele>855</ele>
        <time>2013-03-04T13:05:09.930Z</time>
      </trkpt>
      <trkpt lat="44.34665" lon="2.8639">
        <ele>855</ele>
        <time>2013-03-04T13:05:11.830Z</time>
      </trkpt>
      <trkpt lat="44.34665" lon="2.86392">
        <ele>854</ele>
        <time>2013-03-04T13:05:13.130Z</time>
      </trkpt>
      <trkpt lat="44.34664" lon="2.86393">
        <ele>854</ele>
        <time>2013-03-04T13:05:14.130Z</time>
      </trkpt>
      <trkpt lat="44.34662" lon="2.86396">
        <ele>854</ele>
        <time>2013-03-04T13:05:16.140Z</time>
      </trkpt>
      <trkpt lat="44.34661" lon="2.86398">
        <ele>853</ele>
        <time>2013-03-04T13:05:17.920Z</time>
      </trkpt>
      <trkpt lat="44.34658" lon="2.86399">
        <ele>853</ele>
        <time>2013-03-04T13:05:21.130Z</time>
      </trkpt>
      <trkpt lat="44.34658" lon="2.86401">
        <ele>853</ele>
        <time>2013-03-04T13:05:25.130Z</time>
      </trkpt>
      <trkpt lat="44.34658" lon="2.86403">
        <ele>853</ele>
        <time>2013-03-04T13:05:27.130Z</time>
      </trkpt>
      <trkpt lat="44.34656" lon="2.86403">
        <ele>853</ele>
        <time>2013-03-04T13:05:29.130Z</time>
      </trkpt>
      <trkpt lat="44.34655" lon="2.86406">
        <ele>853</ele>
        <time>2013-03-04T13:05:31.020Z</time>
      </trkpt>
      <trkpt lat="44.34653" lon="2.86407">
        <ele>853</ele>
        <time>2013-03-04T13:05:33.980Z</time>
      </trkpt>
      <trkpt lat="44.34651" lon="2.86408">
        <ele>853</ele>
        <time>2013-03-04T13:05:35.920Z</time>
      </trkpt>
      <trkpt lat="44.34649" lon="2.8641">
        <ele>854</ele>
        <time>2013-03-04T13:05:37.020Z</time>
      </trkpt>
      <trkpt lat="44.34647" lon="2.86412">
        <ele>854</ele>
        <time>2013-03-04T13:05:38.920Z</time>
      </trkpt>
      <trkpt lat="44.34646" lon="2.86413">
        <ele>854</ele>
        <time>2013-03-04T13:05:40.020Z</time>
      </trkpt>
      <trkpt lat="44.34644" lon="2.86416">
        <ele>855</ele>
        <time>2013-03-04T13:05:41.900Z</time>
      </trkpt>
      <trkpt lat="44.34643" lon="2.86417">
        <ele>853</ele>
        <time>2013-03-04T13:05:43.020Z</time>
      </trkpt>
      <trkpt lat="44.34642" lon="2.86419">
        <ele>854</ele>
        <time>2013-03-04T13:05:45.020Z</time>
      </trkpt>
      <trkpt lat="44.34641" lon="2.8642">
        <ele>854</ele>
        <time>2013-03-04T13:05:46.920Z</time>
      </trkpt>
      <trkpt lat="44.34639" lon="2.86421">
        <ele>855</ele>
        <time>2013-03-04T13:05:49.020Z</time>
      </trkpt>
      <trkpt lat="44.34635" lon="2.86421">
        <ele>855</ele>
        <time>2013-03-04T13:05:50.980Z</time>
      </trkpt>
      <trkpt lat="44.34635" lon="2.86423">
        <ele>856</ele>
        <time>2013-03-04T13:05:53.920Z</time>
      </trkpt>
      <trkpt lat="44.34634" lon="2.86425">
        <ele>856</ele>
        <time>2013-03-04T13:05:55.900Z</time>
      </trkpt>
      <trkpt lat="44.34633" lon="2.86427">
        <ele>856</ele>
        <time>2013-03-04T13:05:57.020Z</time>
      </trkpt>
      <trkpt lat="44.3463" lon="2.8643">
        <ele>857</ele>
        <time>2013-03-04T13:05:59.020Z</time>
      </trkpt>
      <trkpt lat="44.34628" lon="2.86432">
        <ele>857</ele>
        <time>2013-03-04T13:06:01.020Z</time>
      </trkpt>
      <trkpt lat="44.34625" lon="2.86433">
        <ele>858</ele>
        <time>2013-03-04T13:06:02.920Z</time>
      </trkpt>
      <trkpt lat="44.34623" lon="2.86434">
        <ele>858</ele>
        <time>2013-03-04T13:06:04.020Z</time>
      </trkpt>
      <trkpt lat="44.34618" lon="2.86436">
        <ele>859</ele>
        <time>2013-03-04T13:06:05.920Z</time>
      </trkpt>
      <trkpt lat="44.34616" lon="2.86438">
        <ele>859</ele>
        <time>2013-03-04T13:06:07.920Z</time>
      </trkpt>
      <trkpt lat="44.34615" lon="2.86438">
        <ele>860</ele>
        <time>2013-03-04T13:06:09.020Z</time>
      </trkpt>
      <trkpt lat="44.34613" lon="2.86438">
        <ele>860</ele>
        <time>2013-03-04T13:06:10.910Z</time>
      </trkpt>
      <trkpt lat="44.34612" lon="2.86439">
        <ele>860</ele>
        <time>2013-03-04T13:06:12.020Z</time>
      </trkpt>
      <trkpt lat="44.34611" lon="2.8644">
        <ele>860</ele>
        <time>2013-03-04T13:06:13.910Z</time>
      </trkpt>
      <trkpt lat="44.34609" lon="2.86442">
        <ele>860</ele>
        <time>2013-03-04T13:06:18.010Z</time>
      </trkpt>
      <trkpt lat="44.34607" lon="2.86445">
        <ele>860</ele>
        <time>2013-03-04T13:06:19.910Z</time>
      </trkpt>
      <trkpt lat="44.34605" lon="2.86446">
        <ele>861</ele>
        <time>2013-03-04T13:06:21.890Z</time>
      </trkpt>
      <trkpt lat="44.34604" lon="2.86448">
        <ele>860</ele>
        <time>2013-03-04T13:06:25.010Z</time>
      </trkpt>
      <trkpt lat="44.34603" lon="2.86448">
        <ele>861</ele>
        <time>2013-03-04T13:06:26.910Z</time>
      </trkpt>
      <trkpt lat="44.34602" lon="2.86449">
        <ele>861</ele>
        <time>2013-03-04T13:06:28.010Z</time>
      </trkpt>
      <trkpt lat="44.346" lon="2.86451">
        <ele>861</ele>
        <time>2013-03-04T13:06:29.910Z</time>
      </trkpt>
      <trkpt lat="44.34599" lon="2.86451">
        <ele>861</ele>
        <time>2013-03-04T13:06:31.010Z</time>
      </trkpt>
      <trkpt lat="44.34598" lon="2.86453">
        <ele>861</ele>
        <time>2013-03-04T13:06:32.910Z</time>
      </trkpt>
      <trkpt lat="44.34598" lon="2.86455">
        <ele>861</ele>
        <time>2013-03-04T13:06:34.890Z</time>
      </trkpt>
      <trkpt lat="44.34597" lon="2.86456">
        <ele>861</ele>
        <time>2013-03-04T13:06:36.010Z</time>
      </trkpt>
      <trkpt lat="44.34595" lon="2.86457">
        <ele>861</ele>
        <time>2013-03-04T13:06:37.910Z</time>
      </trkpt>
      <trkpt lat="44.34595" lon="2.86458">
        <ele>861</ele>
        <time>2013-03-04T13:06:39.010Z</time>
      </trkpt>
      <trkpt lat="44.34595" lon="2.86459">
        <ele>860</ele>
        <time>2013-03-04T13:06:42.910Z</time>
      </trkpt>
      <trkpt lat="44.34593" lon="2.86459">
        <ele>861</ele>
        <time>2013-03-04T13:06:45.010Z</time>
      </trkpt>
      <trkpt lat="44.34591" lon="2.86461">
        <ele>861</ele>
        <time>2013-03-04T13:06:46.910Z</time>
      </trkpt>
      <trkpt lat="44.3459" lon="2.86461">
        <ele>861</ele>
        <time>2013-03-04T13:06:48.010Z</time>
      </trkpt>
      <trkpt lat="44.34588" lon="2.8646">
        <ele>861</ele>
        <time>2013-03-04T13:06:49.910Z</time>
      </trkpt>
      <trkpt lat="44.34586" lon="2.86461">
        <ele>861</ele>
        <time>2013-03-04T13:06:51.900Z</time>
      </trkpt>
      <trkpt lat="44.34584" lon="2.86462">
        <ele>861</ele>
        <time>2013-03-04T13:06:53.000Z</time>
      </trkpt>
      <trkpt lat="44.34581" lon="2.86463">
        <ele>871</ele>
        <time>2013-03-04T13:06:54.900Z</time>
      </trkpt>
      <trkpt lat="44.34579" lon="2.86463">
        <ele>872</ele>
        <time>2013-03-04T13:06:57.000Z</time>
      </trkpt>
      <trkpt lat="44.34577" lon="2.86464">
        <ele>872</ele>
        <time>2013-03-04T13:06:58.900Z</time>
      </trkpt>
      <trkpt lat="44.34577" lon="2.86464">
        <ele>872</ele>
        <time>2013-03-04T13:06:59.890Z</time>
      </trkpt>
      <trkpt lat="44.34575" lon="2.86463">
        <ele>872</ele>
        <time>2013-03-04T13:07:01.900Z</time>
      </trkpt>
      <trkpt lat="44.34574" lon="2.86464">
        <ele>872</ele>
        <time>2013-03-04T13:07:03.000Z</time>
      </trkpt>
      <trkpt lat="44.34571" lon="2.86462">
        <ele>872</ele>
        <time>2013-03-04T13:07:04.900Z</time>
      </trkpt>
      <trkpt lat="44.3457" lon="2.86462">
        <ele>872</ele>
        <time>2013-03-04T13:07:06.000Z</time>
      </trkpt>
      <trkpt lat="44.34569" lon="2.86463">
        <ele>872</ele>
        <time>2013-03-04T13:07:07.900Z</time>
      </trkpt>
      <trkpt lat="44.34568" lon="2.86464">
        <ele>872</ele>
        <time>2013-03-04T13:07:10.000Z</time>
      </trkpt>
      <trkpt lat="44.34564" lon="2.86466">
        <ele>872</ele>
        <time>2013-03-04T13:07:11.910Z</time>
      </trkpt>
      <trkpt lat="44.34563" lon="2.86467">
        <ele>872</ele>
        <time>2013-03-04T13:07:13.000Z</time>
      </trkpt>
      <trkpt lat="44.34561" lon="2.86468">
        <ele>873</ele>
        <time>2013-03-04T13:07:15.900Z</time>
      </trkpt>
      <trkpt lat="44.34561" lon="2.86469">
        <ele>872</ele>
        <time>2013-03-04T13:07:17.900Z</time>
      </trkpt>
      <trkpt lat="44.34561" lon="2.8647">
        <ele>872</ele>
        <time>2013-03-04T13:07:20.000Z</time>
      </trkpt>
      <trkpt lat="44.34561" lon="2.86472">
        <ele>872</ele>
        <time>2013-03-04T13:07:22.000Z</time>
      </trkpt>
      <trkpt lat="44.34561" lon="2.86474">
        <ele>872</ele>
        <time>2013-03-04T13:07:23.900Z</time>
      </trkpt>
      <trkpt lat="44.34561" lon="2.86475">
        <ele>872</ele>
        <time>2013-03-04T13:07:25.000Z</time>
      </trkpt>
      <trkpt lat="44.34561" lon="2.86478">
        <ele>871</ele>
        <time>2013-03-04T13:07:26.900Z</time>
      </trkpt>
      <trkpt lat="44.3456" lon="2.86479">
        <ele>871</ele>
        <time>2013-03-04T13:07:27.980Z</time>
      </trkpt>
      <trkpt lat="44.34557" lon="2.8648">
        <ele>872</ele>
        <time>2013-03-04T13:07:30.000Z</time>
      </trkpt>
      <trkpt lat="44.34556" lon="2.86481">
        <ele>872</ele>
        <time>2013-03-04T13:07:31.890Z</time>
      </trkpt>
      <trkpt lat="44.34556" lon="2.86483">
        <ele>872</ele>
        <time>2013-03-04T13:07:32.990Z</time>
      </trkpt>
      <trkpt lat="44.34555" lon="2.86484">
        <ele>872</ele>
        <time>2013-03-04T13:07:35.990Z</time>
      </trkpt>
      <trkpt lat="44.34553" lon="2.86487">
        <ele>872</ele>
        <time>2013-03-04T13:07:37.890Z</time>
      </trkpt>
      <trkpt lat="44.34553" lon="2.86488">
        <ele>872</ele>
        <time>2013-03-04T13:07:38.990Z</time>
      </trkpt>
      <trkpt lat="44.34552" lon="2.86491">
        <ele>872</ele>
        <time>2013-03-04T13:07:40.890Z</time>
      </trkpt>
      <trkpt lat="44.34551" lon="2.86494">
        <ele>872</ele>
        <time>2013-03-04T13:07:42.890Z</time>
      </trkpt>
      <trkpt lat="44.34551" lon="2.86495">
        <ele>872</ele>
        <time>2013-03-04T13:07:43.990Z</time>
      </trkpt>
      <trkpt lat="44.34549" lon="2.86497">
        <ele>872</ele>
        <time>2013-03-04T13:07:45.890Z</time>
      </trkpt>
      <trkpt lat="44.34548" lon="2.86498">
        <ele>872</ele>
        <time>2013-03-04T13:07:46.990Z</time>
      </trkpt>
      <trkpt lat="44.34546" lon="2.86501">
        <ele>868</ele>
        <time>2013-03-04T13:07:48.890Z</time>
      </trkpt>
      <trkpt lat="44.34543" lon="2.86504">
        <ele>868</ele>
        <time>2013-03-04T13:07:50.850Z</time>
      </trkpt>
      <trkpt lat="44.34543" lon="2.86506">
        <ele>868</ele>
        <time>2013-03-04T13:07:51.990Z</time>
      </trkpt>
      <trkpt lat="44.34541" lon="2.86507">
        <ele>869</ele>
        <time>2013-03-04T13:07:53.890Z</time>
      </trkpt>
      <trkpt lat="44.3454" lon="2.8651">
        <ele>869</ele>
        <time>2013-03-04T13:07:55.890Z</time>
      </trkpt>
      <trkpt lat="44.34539" lon="2.86511">
        <ele>869</ele>
        <time>2013-03-04T13:07:56.970Z</time>
      </trkpt>
      <trkpt lat="44.34537" lon="2.86514">
        <ele>869</ele>
        <time>2013-03-04T13:07:58.990Z</time>
      </trkpt>
      <trkpt lat="44.34536" lon="2.86516">
        <ele>869</ele>
        <time>2013-03-04T13:08:00.990Z</time>
      </trkpt>
      <trkpt lat="44.34534" lon="2.86519">
        <ele>869</ele>
        <time>2013-03-04T13:08:02.890Z</time>
      </trkpt>
      <trkpt lat="44.34533" lon="2.86521">
        <ele>869</ele>
        <time>2013-03-04T13:08:03.990Z</time>
      </trkpt>
      <trkpt lat="44.34531" lon="2.86523">
        <ele>869</ele>
        <time>2013-03-04T13:08:05.890Z</time>
      </trkpt>
      <trkpt lat="44.3453" lon="2.86525">
        <ele>869</ele>
        <time>2013-03-04T13:08:06.990Z</time>
      </trkpt>
      <trkpt lat="44.34528" lon="2.86528">
        <ele>870</ele>
        <time>2013-03-04T13:08:08.870Z</time>
      </trkpt>
      <trkpt lat="44.34526" lon="2.8653">
        <ele>870</ele>
        <time>2013-03-04T13:08:09.990Z</time>
      </trkpt>
      <trkpt lat="44.34524" lon="2.86532">
        <ele>870</ele>
        <time>2013-03-04T13:08:11.980Z</time>
      </trkpt>
      <trkpt lat="44.34521" lon="2.86535">
        <ele>870</ele>
        <time>2013-03-04T13:08:13.880Z</time>
      </trkpt>
      <trkpt lat="44.34519" lon="2.86537">
        <ele>870</ele>
        <time>2013-03-04T13:08:14.980Z</time>
      </trkpt>
      <trkpt lat="44.34517" lon="2.86538">
        <ele>870</ele>
        <time>2013-03-04T13:08:16.840Z</time>
      </trkpt>
      <trkpt lat="44.34515" lon="2.86539">
        <ele>870</ele>
        <time>2013-03-04T13:08:17.980Z</time>
      </trkpt>
      <trkpt lat="44.34512" lon="2.86539">
        <ele>870</ele>
        <time>2013-03-04T13:08:19.880Z</time>
      </trkpt>
      <trkpt lat="44.34511" lon="2.86539">
        <ele>870</ele>
        <time>2013-03-04T13:08:20.980Z</time>
      </trkpt>
      <trkpt lat="44.3451" lon="2.86538">
        <ele>870</ele>
        <time>2013-03-04T13:08:26.980Z</time>
      </trkpt>
      <trkpt lat="44.34509" lon="2.86538">
        <ele>870</ele>
        <time>2013-03-04T13:08:28.880Z</time>
      </trkpt>
      <trkpt lat="44.34507" lon="2.86539">
        <ele>870</ele>
        <time>2013-03-04T13:08:38.880Z</time>
      </trkpt>
      <trkpt lat="44.34506" lon="2.86538">
        <ele>870</ele>
        <time>2013-03-04T13:08:40.980Z</time>
      </trkpt>
      <trkpt lat="44.34503" lon="2.86538">
        <ele>870</ele>
        <time>2013-03-04T13:08:42.880Z</time>
      </trkpt>
      <trkpt lat="44.345" lon="2.86536">
        <ele>879</ele>
        <time>2013-03-04T13:08:44.880Z</time>
      </trkpt>
      <trkpt lat="44.34496" lon="2.86535">
        <ele>879</ele>
        <time>2013-03-04T13:08:46.880Z</time>
      </trkpt>
      <trkpt lat="44.34494" lon="2.86533">
        <ele>880</ele>
        <time>2013-03-04T13:08:48.880Z</time>
      </trkpt>
      <trkpt lat="44.3449" lon="2.86533">
        <ele>880</ele>
        <time>2013-03-04T13:08:50.930Z</time>
      </trkpt>
      <trkpt lat="44.34488" lon="2.86532">
        <ele>880</ele>
        <time>2013-03-04T13:08:52.870Z</time>
      </trkpt>
      <trkpt lat="44.34487" lon="2.86531">
        <ele>880</ele>
        <time>2013-03-04T13:08:53.970Z</time>
      </trkpt>
      <trkpt lat="44.34484" lon="2.86528">
        <ele>880</ele>
        <time>2013-03-04T13:08:55.870Z</time>
      </trkpt>
      <trkpt lat="44.34479" lon="2.86525">
        <ele>881</ele>
        <time>2013-03-04T13:08:57.970Z</time>
      </trkpt>
      <trkpt lat="44.34474" lon="2.86524">
        <ele>881</ele>
        <time>2013-03-04T13:08:59.930Z</time>
      </trkpt>
      <trkpt lat="44.3447" lon="2.86522">
        <ele>881</ele>
        <time>2013-03-04T13:09:01.870Z</time>
      </trkpt>
      <trkpt lat="44.34466" lon="2.8652">
        <ele>882</ele>
        <time>2013-03-04T13:09:03.870Z</time>
      </trkpt>
      <trkpt lat="44.34464" lon="2.8652">
        <ele>882</ele>
        <time>2013-03-04T13:09:05.870Z</time>
      </trkpt>
      <trkpt lat="44.34463" lon="2.86521">
        <ele>882</ele>
        <time>2013-03-04T13:09:06.880Z</time>
      </trkpt>
      <trkpt lat="44.3446" lon="2.86522">
        <ele>882</ele>
        <time>2013-03-04T13:09:08.870Z</time>
      </trkpt>
      <trkpt lat="44.34459" lon="2.86523">
        <ele>883</ele>
        <time>2013-03-04T13:09:09.970Z</time>
      </trkpt>
      <trkpt lat="44.34459" lon="2.86525">
        <ele>883</ele>
        <time>2013-03-04T13:09:11.970Z</time>
      </trkpt>
      <trkpt lat="44.34458" lon="2.86527">
        <ele>883</ele>
        <time>2013-03-04T13:09:13.870Z</time>
      </trkpt>
      <trkpt lat="44.34457" lon="2.86528">
        <ele>883</ele>
        <time>2013-03-04T13:09:16.930Z</time>
      </trkpt>
      <trkpt lat="44.34458" lon="2.86528">
        <ele>883</ele>
        <time>2013-03-04T13:09:18.870Z</time>
      </trkpt>
      <trkpt lat="44.34457" lon="2.86529">
        <ele>883</ele>
        <time>2013-03-04T13:09:25.970Z</time>
      </trkpt>
      <trkpt lat="44.34458" lon="2.8653">
        <ele>883</ele>
        <time>2013-03-04T13:09:29.870Z</time>
      </trkpt>
      <trkpt lat="44.34459" lon="2.86532">
        <ele>882</ele>
        <time>2013-03-04T13:09:31.870Z</time>
      </trkpt>
      <trkpt lat="44.34461" lon="2.86533">
        <ele>882</ele>
        <time>2013-03-04T13:09:33.920Z</time>
      </trkpt>
      <trkpt lat="44.34462" lon="2.86535">
        <ele>882</ele>
        <time>2013-03-04T13:09:35.960Z</time>
      </trkpt>
      <trkpt lat="44.34464" lon="2.8654">
        <ele>882</ele>
        <time>2013-03-04T13:09:37.850Z</time>
      </trkpt>
      <trkpt lat="44.34467" lon="2.86544">
        <ele>881</ele>
        <time>2013-03-04T13:09:39.960Z</time>
      </trkpt>
      <trkpt lat="44.3447" lon="2.86545">
        <ele>881</ele>
        <time>2013-03-04T13:09:41.860Z</time>
      </trkpt>
      <trkpt lat="44.34473" lon="2.86547">
        <ele>881</ele>
        <time>2013-03-04T13:09:43.860Z</time>
      </trkpt>
      <trkpt lat="44.34477" lon="2.86552">
        <ele>880</ele>
        <time>2013-03-04T13:09:45.860Z</time>
      </trkpt>
      <trkpt lat="44.34479" lon="2.86559">
        <ele>879</ele>
        <time>2013-03-04T13:09:47.860Z</time>
      </trkpt>
      <trkpt lat="44.34482" lon="2.86566">
        <ele>878</ele>
        <time>2013-03-04T13:09:49.860Z</time>
      </trkpt>
      <trkpt lat="44.34484" lon="2.86568">
        <ele>877</ele>
        <time>2013-03-04T13:09:50.920Z</time>
      </trkpt>
      <trkpt lat="44.34488" lon="2.86572">
        <ele>876</ele>
        <time>2013-03-04T13:09:52.860Z</time>
      </trkpt>
      <trkpt lat="44.34493" lon="2.86577">
        <ele>873</ele>
        <time>2013-03-04T13:09:54.860Z</time>
      </trkpt>
      <trkpt lat="44.34497" lon="2.86583">
        <ele>870</ele>
        <time>2013-03-04T13:09:56.860Z</time>
      </trkpt>
      <trkpt lat="44.34499" lon="2.86587">
        <ele>871</ele>
        <time>2013-03-04T13:09:58.860Z</time>
      </trkpt>
      <trkpt lat="44.34499" lon="2.86589">
        <ele>872</ele>
        <time>2013-03-04T13:09:59.910Z</time>
      </trkpt>
      <trkpt lat="44.345" lon="2.86593">
        <ele>870</ele>
        <time>2013-03-04T13:10:01.960Z</time>
      </trkpt>
      <trkpt lat="44.34501" lon="2.86596">
        <ele>870</ele>
        <time>2013-03-04T13:10:03.860Z</time>
      </trkpt>
      <trkpt lat="44.34502" lon="2.86595">
        <ele>870</ele>
        <time>2013-03-04T13:10:06.960Z</time>
      </trkpt>
      <trkpt lat="44.34502" lon="2.86597">
        <ele>870</ele>
        <time>2013-03-04T13:10:08.860Z</time>
      </trkpt>
      <trkpt lat="44.34502" lon="2.866">
        <ele>871</ele>
        <time>2013-03-04T13:10:10.960Z</time>
      </trkpt>
      <trkpt lat="44.34502" lon="2.86602">
        <ele>871</ele>
        <time>2013-03-04T13:10:12.860Z</time>
      </trkpt>
      <trkpt lat="44.34503" lon="2.86606">
        <ele>871</ele>
        <time>2013-03-04T13:10:14.860Z</time>
      </trkpt>
      <trkpt lat="44.34505" lon="2.86611">
        <ele>871</ele>
        <time>2013-03-04T13:10:16.840Z</time>
      </trkpt>
      <trkpt lat="44.34506" lon="2.86614">
        <ele>872</ele>
        <time>2013-03-04T13:10:18.130Z</time>
      </trkpt>
      <trkpt lat="44.34507" lon="2.86617">
        <ele>872</ele>
        <time>2013-03-04T13:10:19.960Z</time>
      </trkpt>
      <trkpt lat="44.34508" lon="2.86619">
        <ele>872</ele>
        <time>2013-03-04T13:10:21.850Z</time>
      </trkpt>
      <trkpt lat="44.3451" lon="2.86618">
        <ele>872</ele>
        <time>2013-03-04T13:10:25.950Z</time>
      </trkpt>
      <trkpt lat="44.3451" lon="2.86617">
        <ele>872</ele>
        <time>2013-03-04T13:10:27.850Z</time>
      </trkpt>
      <trkpt lat="44.34512" lon="2.86617">
        <ele>872</ele>
        <time>2013-03-04T13:10:29.950Z</time>
      </trkpt>
      <trkpt lat="44.34513" lon="2.86618">
        <ele>872</ele>
        <time>2013-03-04T13:10:31.850Z</time>
      </trkpt>
      <trkpt lat="44.34512" lon="2.8662">
        <ele>872</ele>
        <time>2013-03-04T13:10:33.760Z</time>
      </trkpt>
      <trkpt lat="44.34511" lon="2.86619">
        <ele>872</ele>
        <time>2013-03-04T13:10:35.850Z</time>
      </trkpt>
      <trkpt lat="44.34511" lon="2.86617">
        <ele>872</ele>
        <time>2013-03-04T13:10:40.950Z</time>
      </trkpt>
      <trkpt lat="44.34513" lon="2.86617">
        <ele>872</ele>
        <time>2013-03-04T13:10:42.850Z</time>
      </trkpt>
      <trkpt lat="44.34514" lon="2.86618">
        <ele>872</ele>
        <time>2013-03-04T13:10:43.950Z</time>
      </trkpt>
      <trkpt lat="44.34517" lon="2.8662">
        <ele>872</ele>
        <time>2013-03-04T13:10:45.850Z</time>
      </trkpt>
      <trkpt lat="44.34521" lon="2.8662">
        <ele>872</ele>
        <time>2013-03-04T13:10:47.850Z</time>
      </trkpt>
      <trkpt lat="44.34525" lon="2.8662">
        <ele>872</ele>
        <time>2013-03-04T13:10:49.850Z</time>
      </trkpt>
      <trkpt lat="44.34527" lon="2.86621">
        <ele>872</ele>
        <time>2013-03-04T13:10:50.900Z</time>
      </trkpt>
      <trkpt lat="44.34531" lon="2.86622">
        <ele>872</ele>
        <time>2013-03-04T13:10:52.940Z</time>
      </trkpt>
      <trkpt lat="44.34535" lon="2.86622">
        <ele>872</ele>
        <time>2013-03-04T13:10:54.840Z</time>
      </trkpt>
      <trkpt lat="44.34539" lon="2.86625">
        <ele>872</ele>
        <time>2013-03-04T13:10:56.940Z</time>
      </trkpt>
      <trkpt lat="44.34542" lon="2.86625">
        <ele>872</ele>
        <time>2013-03-04T13:10:58.850Z</time>
      </trkpt>
      <trkpt lat="44.34544" lon="2.86626">
        <ele>872</ele>
        <time>2013-03-04T13:10:59.900Z</time>
      </trkpt>
      <trkpt lat="44.34548" lon="2.86627">
        <ele>872</ele>
        <time>2013-03-04T13:11:01.940Z</time>
      </trkpt>
      <trkpt lat="44.34553" lon="2.86627">
        <ele>872</ele>
        <time>2013-03-04T13:11:03.840Z</time>
      </trkpt>
      <trkpt lat="44.34555" lon="2.86628">
        <ele>872</ele>
        <time>2013-03-04T13:11:04.940Z</time>
      </trkpt>
      <trkpt lat="44.34559" lon="2.86629">
        <ele>872</ele>
        <time>2013-03-04T13:11:06.840Z</time>
      </trkpt>
      <trkpt lat="44.34563" lon="2.86631">
        <ele>873</ele>
        <time>2013-03-04T13:11:09.130Z</time>
      </trkpt>
      <trkpt lat="44.34565" lon="2.86634">
        <ele>873</ele>
        <time>2013-03-04T13:11:10.940Z</time>
      </trkpt>
      <trkpt lat="44.34568" lon="2.86635">
        <ele>873</ele>
        <time>2013-03-04T13:11:12.840Z</time>
      </trkpt>
      <trkpt lat="44.34572" lon="2.86637">
        <ele>873</ele>
        <time>2013-03-04T13:11:14.850Z</time>
      </trkpt>
      <trkpt lat="44.34576" lon="2.86639">
        <ele>873</ele>
        <time>2013-03-04T13:11:16.900Z</time>
      </trkpt>
      <trkpt lat="44.34576" lon="2.86642">
        <ele>874</ele>
        <time>2013-03-04T13:11:18.940Z</time>
      </trkpt>
      <trkpt lat="44.34575" lon="2.86643">
        <ele>874</ele>
        <time>2013-03-04T13:11:20.840Z</time>
      </trkpt>
      <trkpt lat="44.34576" lon="2.86645">
        <ele>874</ele>
        <time>2013-03-04T13:11:23.940Z</time>
      </trkpt>
      <trkpt lat="44.34578" lon="2.86645">
        <ele>874</ele>
        <time>2013-03-04T13:11:25.840Z</time>
      </trkpt>
      <trkpt lat="44.34579" lon="2.86646">
        <ele>874</ele>
        <time>2013-03-04T13:11:28.940Z</time>
      </trkpt>
      <trkpt lat="44.3458" lon="2.86645">
        <ele>874</ele>
        <time>2013-03-04T13:11:32.840Z</time>
      </trkpt>
      <trkpt lat="44.34583" lon="2.86644">
        <ele>874</ele>
        <time>2013-03-04T13:11:34.840Z</time>
      </trkpt>
      <trkpt lat="44.34585" lon="2.86644">
        <ele>877</ele>
        <time>2013-03-04T13:11:36.830Z</time>
      </trkpt>
      <trkpt lat="44.34586" lon="2.86643">
        <ele>877</ele>
        <time>2013-03-04T13:11:38.930Z</time>
      </trkpt>
      <trkpt lat="44.34589" lon="2.86641">
        <ele>877</ele>
        <time>2013-03-04T13:11:40.830Z</time>
      </trkpt>
      <trkpt lat="44.34592" lon="2.86638">
        <ele>877</ele>
        <time>2013-03-04T13:11:42.930Z</time>
      </trkpt>
      <trkpt lat="44.34594" lon="2.86636">
        <ele>877</ele>
        <time>2013-03-04T13:11:44.830Z</time>
      </trkpt>
      <trkpt lat="44.34593" lon="2.86634">
        <ele>877</ele>
        <time>2013-03-04T13:11:47.930Z</time>
      </trkpt>
      <trkpt lat="44.34593" lon="2.86635">
        <ele>877</ele>
        <time>2013-03-04T13:11:50.140Z</time>
      </trkpt>
      <trkpt lat="44.34592" lon="2.86633">
        <ele>877</ele>
        <time>2013-03-04T13:11:56.930Z</time>
      </trkpt>
      <trkpt lat="44.34592" lon="2.86636">
        <ele>877</ele>
        <time>2013-03-04T13:11:59.810Z</time>
      </trkpt>
      <trkpt lat="44.34592" lon="2.86638">
        <ele>877</ele>
        <time>2013-03-04T13:12:01.930Z</time>
      </trkpt>
      <trkpt lat="44.34593" lon="2.86638">
        <ele>877</ele>
        <time>2013-03-04T13:12:03.130Z</time>
      </trkpt>
      <trkpt lat="44.34595" lon="2.86638">
        <ele>877</ele>
        <time>2013-03-04T13:12:05.130Z</time>
      </trkpt>
      <trkpt lat="44.34597" lon="2.86639">
        <ele>878</ele>
        <time>2013-03-04T13:12:09.130Z</time>
      </trkpt>
      <trkpt lat="44.34597" lon="2.86641">
        <ele>878</ele>
        <time>2013-03-04T13:12:13.130Z</time>
      </trkpt>
      <trkpt lat="44.34598" lon="2.86641">
        <ele>878</ele>
        <time>2013-03-04T13:12:19.130Z</time>
      </trkpt>
      <trkpt lat="44.346" lon="2.86641">
        <ele>878</ele>
        <time>2013-03-04T13:12:20.920Z</time>
      </trkpt>
      <trkpt lat="44.34601" lon="2.8664">
        <ele>878</ele>
        <time>2013-03-04T13:12:22.920Z</time>
      </trkpt>
      <trkpt lat="44.34602" lon="2.86641">
        <ele>878</ele>
        <time>2013-03-04T13:12:26.020Z</time>
      </trkpt>
      <trkpt lat="44.34603" lon="2.8664">
        <ele>878</ele>
        <time>2013-03-04T13:12:29.920Z</time>
      </trkpt>
      <trkpt lat="44.34603" lon="2.86638">
        <ele>878</ele>
        <time>2013-03-04T13:12:32.020Z</time>
      </trkpt>
      <trkpt lat="44.34603" lon="2.86636">
        <ele>878</ele>
        <time>2013-03-04T13:12:33.880Z</time>
      </trkpt>
      <trkpt lat="44.34604" lon="2.86634">
        <ele>878</ele>
        <time>2013-03-04T13:12:36.020Z</time>
      </trkpt>
      <trkpt lat="44.34606" lon="2.86633">
        <ele>878</ele>
        <time>2013-03-04T13:12:38.020Z</time>
      </trkpt>
      <trkpt lat="44.34607" lon="2.86633">
        <ele>878</ele>
        <time>2013-03-04T13:12:39.920Z</time>
      </trkpt>
      <trkpt lat="44.34608" lon="2.86632">
        <ele>878</ele>
        <time>2013-03-04T13:12:41.020Z</time>
      </trkpt>
      <trkpt lat="44.3461" lon="2.8663">
        <ele>878</ele>
        <time>2013-03-04T13:12:42.920Z</time>
      </trkpt>
      <trkpt lat="44.34611" lon="2.86629">
        <ele>878</ele>
        <time>2013-03-04T13:12:45.020Z</time>
      </trkpt>
      <trkpt lat="44.34612" lon="2.86628">
        <ele>878</ele>
        <time>2013-03-04T13:12:46.920Z</time>
      </trkpt>
      <trkpt lat="44.34613" lon="2.86627">
        <ele>878</ele>
        <time>2013-03-04T13:12:49.020Z</time>
      </trkpt>
      <trkpt lat="44.34614" lon="2.86625">
        <ele>878</ele>
        <time>2013-03-04T13:12:50.970Z</time>
      </trkpt>
      <trkpt lat="44.34613" lon="2.86624">
        <ele>878</ele>
        <time>2013-03-04T13:12:59.930Z</time>
      </trkpt>
      <trkpt lat="44.34615" lon="2.86623">
        <ele>878</ele>
        <time>2013-03-04T13:13:03.010Z</time>
      </trkpt>
      <trkpt lat="44.34615" lon="2.86623">
        <ele>878</ele>
        <time>2013-03-04T13:13:04.910Z</time>
      </trkpt>
      <trkpt lat="44.34618" lon="2.86622">
        <ele>878</ele>
        <time>2013-03-04T13:13:06.910Z</time>
      </trkpt>
      <trkpt lat="44.34619" lon="2.86621">
        <ele>878</ele>
        <time>2013-03-04T13:13:08.010Z</time>
      </trkpt>
      <trkpt lat="44.34622" lon="2.86619">
        <ele>878</ele>
        <time>2013-03-04T13:13:09.910Z</time>
      </trkpt>
      <trkpt lat="44.34624" lon="2.86619">
        <ele>878</ele>
        <time>2013-03-04T13:13:11.010Z</time>
      </trkpt>
      <trkpt lat="44.34627" lon="2.86617">
        <ele>878</ele>
        <time>2013-03-04T13:13:12.890Z</time>
      </trkpt>
      <trkpt lat="44.34629" lon="2.86616">
        <ele>878</ele>
        <time>2013-03-04T13:13:14.010Z</time>
      </trkpt>
      <trkpt lat="44.34634" lon="2.86613">
        <ele>879</ele>
        <time>2013-03-04T13:13:15.910Z</time>
      </trkpt>
      <trkpt lat="44.34638" lon="2.8661">
        <ele>879</ele>
        <time>2013-03-04T13:13:17.910Z</time>
      </trkpt>
      <trkpt lat="44.3464" lon="2.86609">
        <ele>879</ele>
        <time>2013-03-04T13:13:19.010Z</time>
      </trkpt>
      <trkpt lat="44.34645" lon="2.86606">
        <ele>879</ele>
        <time>2013-03-04T13:13:20.910Z</time>
      </trkpt>
      <trkpt lat="44.34649" lon="2.86603">
        <ele>879</ele>
        <time>2013-03-04T13:13:22.910Z</time>
      </trkpt>
      <trkpt lat="44.34651" lon="2.86601">
        <ele>879</ele>
        <time>2013-03-04T13:13:24.010Z</time>
      </trkpt>
      <trkpt lat="44.34656" lon="2.86596">
        <ele>879</ele>
        <time>2013-03-04T13:13:25.910Z</time>
      </trkpt>
      <trkpt lat="44.34659" lon="2.86594">
        <ele>878</ele>
        <time>2013-03-04T13:13:27.010Z</time>
      </trkpt>
      <trkpt lat="44.34664" lon="2.86589">
        <ele>878</ele>
        <time>2013-03-04T13:13:28.910Z</time>
      </trkpt>
      <trkpt lat="44.34669" lon="2.86585">
        <ele>880</ele>
        <time>2013-03-04T13:13:30.910Z</time>
      </trkpt>
      <trkpt lat="44.34672" lon="2.86584">
        <ele>881</ele>
        <time>2013-03-04T13:13:32.010Z</time>
      </trkpt>
      <trkpt lat="44.34677" lon="2.8658">
        <ele>876</ele>
        <time>2013-03-04T13:13:33.960Z</time>
      </trkpt>
      <trkpt lat="44.34683" lon="2.86578">
        <ele>875</ele>
        <time>2013-03-04T13:13:35.910Z</time>
      </trkpt>
      <trkpt lat="44.34685" lon="2.86576">
        <ele>875</ele>
        <time>2013-03-04T13:13:37.010Z</time>
      </trkpt>
      <trkpt lat="44.34691" lon="2.86573">
        <ele>875</ele>
        <time>2013-03-04T13:13:39.010Z</time>
      </trkpt>
      <trkpt lat="44.34697" lon="2.8657">
        <ele>874</ele>
        <time>2013-03-04T13:13:40.890Z</time>
      </trkpt>
      <trkpt lat="44.34704" lon="2.86568">
        <ele>875</ele>
        <time>2013-03-04T13:13:42.900Z</time>
      </trkpt>
      <trkpt lat="44.34707" lon="2.86567">
        <ele>875</ele>
        <time>2013-03-04T13:13:44.000Z</time>
      </trkpt>
      <trkpt lat="44.34714" lon="2.86566">
        <ele>875</ele>
        <time>2013-03-04T13:13:45.900Z</time>
      </trkpt>
      <trkpt lat="44.3472" lon="2.86565">
        <ele>876</ele>
        <time>2013-03-04T13:13:47.900Z</time>
      </trkpt>
      <trkpt lat="44.34722" lon="2.86564">
        <ele>876</ele>
        <time>2013-03-04T13:13:49.000Z</time>
      </trkpt>
      <trkpt lat="44.34728" lon="2.86562">
        <ele>876</ele>
        <time>2013-03-04T13:13:50.790Z</time>
      </trkpt>
      <trkpt lat="44.34732" lon="2.86561">
        <ele>877</ele>
        <time>2013-03-04T13:13:52.000Z</time>
      </trkpt>
      <trkpt lat="44.34738" lon="2.8656">
        <ele>877</ele>
        <time>2013-03-04T13:13:53.880Z</time>
      </trkpt>
      <trkpt lat="44.34743" lon="2.86557">
        <ele>877</ele>
        <time>2013-03-04T13:13:55.900Z</time>
      </trkpt>
      <trkpt lat="44.34745" lon="2.86557">
        <ele>877</ele>
        <time>2013-03-04T13:13:57.000Z</time>
      </trkpt>
      <trkpt lat="44.3475" lon="2.86557">
        <ele>877</ele>
        <time>2013-03-04T13:13:58.900Z</time>
      </trkpt>
      <trkpt lat="44.34756" lon="2.86554">
        <ele>876</ele>
        <time>2013-03-04T13:14:00.900Z</time>
      </trkpt>
      <trkpt lat="44.34759" lon="2.86553">
        <ele>875</ele>
        <time>2013-03-04T13:14:02.000Z</time>
      </trkpt>
      <trkpt lat="44.34766" lon="2.86551">
        <ele>874</ele>
        <time>2013-03-04T13:14:03.900Z</time>
      </trkpt>
      <trkpt lat="44.34769" lon="2.8655">
        <ele>874</ele>
        <time>2013-03-04T13:14:04.990Z</time>
      </trkpt>
      <trkpt lat="44.34775" lon="2.8655">
        <ele>873</ele>
        <time>2013-03-04T13:14:06.900Z</time>
      </trkpt>
      <trkpt lat="44.34778" lon="2.86549">
        <ele>873</ele>
        <time>2013-03-04T13:14:08.000Z</time>
      </trkpt>
      <trkpt lat="44.34784" lon="2.86548">
        <ele>873</ele>
        <time>2013-03-04T13:14:09.900Z</time>
      </trkpt>
      <trkpt lat="44.34788" lon="2.86548">
        <ele>872</ele>
        <time>2013-03-04T13:14:11.000Z</time>
      </trkpt>
      <trkpt lat="44.34794" lon="2.86548">
        <ele>872</ele>
        <time>2013-03-04T13:14:12.900Z</time>
      </trkpt>
      <trkpt lat="44.34798" lon="2.86549">
        <ele>872</ele>
        <time>2013-03-04T13:14:14.000Z</time>
      </trkpt>
      <trkpt lat="44.34804" lon="2.86551">
        <ele>872</ele>
        <time>2013-03-04T13:14:15.900Z</time>
      </trkpt>
      <trkpt lat="44.34809" lon="2.86553">
        <ele>872</ele>
        <time>2013-03-04T13:14:17.880Z</time>
      </trkpt>
      <trkpt lat="44.3481" lon="2.86554">
        <ele>872</ele>
        <time>2013-03-04T13:14:19.000Z</time>
      </trkpt>
      <trkpt lat="44.34814" lon="2.86557">
        <ele>872</ele>
        <time>2013-03-04T13:14:20.900Z</time>
      </trkpt>
      <trkpt lat="44.34816" lon="2.86558">
        <ele>872</ele>
        <time>2013-03-04T13:14:21.990Z</time>
      </trkpt>
      <trkpt lat="44.34821" lon="2.86561">
        <ele>872</ele>
        <time>2013-03-04T13:14:23.890Z</time>
      </trkpt>
      <trkpt lat="44.34823" lon="2.86562">
        <ele>872</ele>
        <time>2013-03-04T13:14:24.990Z</time>
      </trkpt>
      <trkpt lat="44.34828" lon="2.86563">
        <ele>873</ele>
        <time>2013-03-04T13:14:26.890Z</time>
      </trkpt>
      <trkpt lat="44.34833" lon="2.86567">
        <ele>873</ele>
        <time>2013-03-04T13:14:28.890Z</time>
      </trkpt>
      <trkpt lat="44.34836" lon="2.86568">
        <ele>867</ele>
        <time>2013-03-04T13:14:29.990Z</time>
      </trkpt>
      <trkpt lat="44.34843" lon="2.86573">
        <ele>867</ele>
        <time>2013-03-04T13:14:31.890Z</time>
      </trkpt>
      <trkpt lat="44.34846" lon="2.86575">
        <ele>867</ele>
        <time>2013-03-04T13:14:32.990Z</time>
      </trkpt>
      <trkpt lat="44.34853" lon="2.86581">
        <ele>865</ele>
        <time>2013-03-04T13:14:34.890Z</time>
      </trkpt>
      <trkpt lat="44.34861" lon="2.86586">
        <ele>874</ele>
        <time>2013-03-04T13:14:36.890Z</time>
      </trkpt>
      <trkpt lat="44.34863" lon="2.86587">
        <ele>874</ele>
        <time>2013-03-04T13:14:37.990Z</time>
      </trkpt>
      <trkpt lat="44.34868" lon="2.86588">
        <ele>873</ele>
        <time>2013-03-04T13:14:39.990Z</time>
      </trkpt>
      <trkpt lat="44.34874" lon="2.86592">
        <ele>872</ele>
        <time>2013-03-04T13:14:41.900Z</time>
      </trkpt>
      <trkpt lat="44.34877" lon="2.86594">
        <ele>872</ele>
        <time>2013-03-04T13:14:42.990Z</time>
      </trkpt>
      <trkpt lat="44.34882" lon="2.86599">
        <ele>872</ele>
        <time>2013-03-04T13:14:44.890Z</time>
      </trkpt>
      <trkpt lat="44.34884" lon="2.86601">
        <ele>872</ele>
        <time>2013-03-04T13:14:45.990Z</time>
      </trkpt>
      <trkpt lat="44.34888" lon="2.86603">
        <ele>871</ele>
        <time>2013-03-04T13:14:47.990Z</time>
      </trkpt>
      <trkpt lat="44.34893" lon="2.86607">
        <ele>871</ele>
        <time>2013-03-04T13:14:49.890Z</time>
      </trkpt>
      <trkpt lat="44.34898" lon="2.86611">
        <ele>871</ele>
        <time>2013-03-04T13:14:51.890Z</time>
      </trkpt>
      <trkpt lat="44.34902" lon="2.86615">
        <ele>871</ele>
        <time>2013-03-04T13:14:53.890Z</time>
      </trkpt>
      <trkpt lat="44.34904" lon="2.86616">
        <ele>871</ele>
        <time>2013-03-04T13:14:54.990Z</time>
      </trkpt>
      <trkpt lat="44.34909" lon="2.86622">
        <ele>872</ele>
        <time>2013-03-04T13:14:56.890Z</time>
      </trkpt>
      <trkpt lat="44.34911" lon="2.86624">
        <ele>872</ele>
        <time>2013-03-04T13:14:57.970Z</time>
      </trkpt>
      <trkpt lat="44.34916" lon="2.86629">
        <ele>873</ele>
        <time>2013-03-04T13:14:59.940Z</time>
      </trkpt>
      <trkpt lat="44.34921" lon="2.86634">
        <ele>865</ele>
        <time>2013-03-04T13:15:01.980Z</time>
      </trkpt>
      <trkpt lat="44.34927" lon="2.86639">
        <ele>866</ele>
        <time>2013-03-04T13:15:03.880Z</time>
      </trkpt>
      <trkpt lat="44.3493" lon="2.86641">
        <ele>866</ele>
        <time>2013-03-04T13:15:04.980Z</time>
      </trkpt>
      <trkpt lat="44.34936" lon="2.86644">
        <ele>866</ele>
        <time>2013-03-04T13:15:06.900Z</time>
      </trkpt>
      <trkpt lat="44.3494" lon="2.86645">
        <ele>866</ele>
        <time>2013-03-04T13:15:07.980Z</time>
      </trkpt>
      <trkpt lat="44.34948" lon="2.86647">
        <ele>865</ele>
        <time>2013-03-04T13:15:09.980Z</time>
      </trkpt>
      <trkpt lat="44.34955" lon="2.86648">
        <ele>865</ele>
        <time>2013-03-04T13:15:11.880Z</time>
      </trkpt>
      <trkpt lat="44.34959" lon="2.86649">
        <ele>864</ele>
        <time>2013-03-04T13:15:12.980Z</time>
      </trkpt>
      <trkpt lat="44.34967" lon="2.86653">
        <ele>864</ele>
        <time>2013-03-04T13:15:14.880Z</time>
      </trkpt>
      <trkpt lat="44.34971" lon="2.86654">
        <ele>864</ele>
        <time>2013-03-04T13:15:15.980Z</time>
      </trkpt>
      <trkpt lat="44.3498" lon="2.86653">
        <ele>864</ele>
        <time>2013-03-04T13:15:17.980Z</time>
      </trkpt>
      <trkpt lat="44.34986" lon="2.86651">
        <ele>863</ele>
        <time>2013-03-04T13:15:19.880Z</time>
      </trkpt>
      <trkpt lat="44.34988" lon="2.8665">
        <ele>863</ele>
        <time>2013-03-04T13:15:20.980Z</time>
      </trkpt>
      <trkpt lat="44.34992" lon="2.86649">
        <ele>863</ele>
        <time>2013-03-04T13:15:22.880Z</time>
      </trkpt>
      <trkpt lat="44.34994" lon="2.86649">
        <ele>863</ele>
        <time>2013-03-04T13:15:23.980Z</time>
      </trkpt>
      <trkpt lat="44.34997" lon="2.86647">
        <ele>863</ele>
        <time>2013-03-04T13:15:25.880Z</time>
      </trkpt>
      <trkpt lat="44.34999" lon="2.86645">
        <ele>863</ele>
        <time>2013-03-04T13:15:26.980Z</time>
      </trkpt>
      <trkpt lat="44.35005" lon="2.86639">
        <ele>855</ele>
        <time>2013-03-04T13:15:28.880Z</time>
      </trkpt>
      <trkpt lat="44.35013" lon="2.86634">
        <ele>854</ele>
        <time>2013-03-04T13:15:30.880Z</time>
      </trkpt>
      <trkpt lat="44.35021" lon="2.86633">
        <ele>853</ele>
        <time>2013-03-04T13:15:32.880Z</time>
      </trkpt>
      <trkpt lat="44.35024" lon="2.86632">
        <ele>853</ele>
        <time>2013-03-04T13:15:33.930Z</time>
      </trkpt>
      <trkpt lat="44.35031" lon="2.86629">
        <ele>852</ele>
        <time>2013-03-04T13:15:35.880Z</time>
      </trkpt>
      <trkpt lat="44.35038" lon="2.86624">
        <ele>851</ele>
        <time>2013-03-04T13:15:37.980Z</time>
      </trkpt>
      <trkpt lat="44.35043" lon="2.8662">
        <ele>851</ele>
        <time>2013-03-04T13:15:39.880Z</time>
      </trkpt>
      <trkpt lat="44.35046" lon="2.86613">
        <ele>850</ele>
        <time>2013-03-04T13:15:41.880Z</time>
      </trkpt>
      <trkpt lat="44.3505" lon="2.86606">
        <ele>849</ele>
        <time>2013-03-04T13:15:43.870Z</time>
      </trkpt>
      <trkpt lat="44.35056" lon="2.86601">
        <ele>848</ele>
        <time>2013-03-04T13:15:45.870Z</time>
      </trkpt>
      <trkpt lat="44.35061" lon="2.86596">
        <ele>847</ele>
        <time>2013-03-04T13:15:47.870Z</time>
      </trkpt>
      <trkpt lat="44.35067" lon="2.86591">
        <ele>846</ele>
        <time>2013-03-04T13:15:49.870Z</time>
      </trkpt>
      <trkpt lat="44.35071" lon="2.86591">
        <ele>846</ele>
        <time>2013-03-04T13:15:50.930Z</time>
      </trkpt>
      <trkpt lat="44.35077" lon="2.8659">
        <ele>845</ele>
        <time>2013-03-04T13:15:52.870Z</time>
      </trkpt>
      <trkpt lat="44.3508" lon="2.86588">
        <ele>844</ele>
        <time>2013-03-04T13:15:53.970Z</time>
      </trkpt>
      <trkpt lat="44.35084" lon="2.86581">
        <ele>840</ele>
        <time>2013-03-04T13:15:55.870Z</time>
      </trkpt>
      <trkpt lat="44.35088" lon="2.86574">
        <ele>834</ele>
        <time>2013-03-04T13:15:57.870Z</time>
      </trkpt>
      <trkpt lat="44.35089" lon="2.86571">
        <ele>832</ele>
        <time>2013-03-04T13:15:58.880Z</time>
      </trkpt>
      <trkpt lat="44.35092" lon="2.86563">
        <ele>828</ele>
        <time>2013-03-04T13:16:00.870Z</time>
      </trkpt>
      <trkpt lat="44.35093" lon="2.8656">
        <ele>827</ele>
        <time>2013-03-04T13:16:01.970Z</time>
      </trkpt>
      <trkpt lat="44.35096" lon="2.86553">
        <ele>825</ele>
        <time>2013-03-04T13:16:03.870Z</time>
      </trkpt>
      <trkpt lat="44.35097" lon="2.86544">
        <ele>823</ele>
        <time>2013-03-04T13:16:05.870Z</time>
      </trkpt>
      <trkpt lat="44.35101" lon="2.86536">
        <ele>822</ele>
        <time>2013-03-04T13:16:07.970Z</time>
      </trkpt>
      <trkpt lat="44.35105" lon="2.86529">
        <ele>821</ele>
        <time>2013-03-04T13:16:09.870Z</time>
      </trkpt>
      <trkpt lat="44.35106" lon="2.86525">
        <ele>821</ele>
        <time>2013-03-04T13:16:10.970Z</time>
      </trkpt>
      <trkpt lat="44.35107" lon="2.86516">
        <ele>821</ele>
        <time>2013-03-04T13:16:12.970Z</time>
      </trkpt>
      <trkpt lat="44.35108" lon="2.86505">
        <ele>821</ele>
        <time>2013-03-04T13:16:14.860Z</time>
      </trkpt>
      <trkpt lat="44.35107" lon="2.86499">
        <ele>815</ele>
        <time>2013-03-04T13:16:15.970Z</time>
      </trkpt>
      <trkpt lat="44.35104" lon="2.86491">
        <ele>815</ele>
        <time>2013-03-04T13:16:17.960Z</time>
      </trkpt>
      <trkpt lat="44.35098" lon="2.86482">
        <ele>815</ele>
        <time>2013-03-04T13:16:19.860Z</time>
      </trkpt>
      <trkpt lat="44.35093" lon="2.86469">
        <ele>812</ele>
        <time>2013-03-04T13:16:21.860Z</time>
      </trkpt>
      <trkpt lat="44.35091" lon="2.86463">
        <ele>811</ele>
        <time>2013-03-04T13:16:22.960Z</time>
      </trkpt>
      <trkpt lat="44.35087" lon="2.86453">
        <ele>810</ele>
        <time>2013-03-04T13:16:24.860Z</time>
      </trkpt>
      <trkpt lat="44.35087" lon="2.8645">
        <ele>809</ele>
        <time>2013-03-04T13:16:26.840Z</time>
      </trkpt>
      <trkpt lat="44.35086" lon="2.86448">
        <ele>809</ele>
        <time>2013-03-04T13:16:28.860Z</time>
      </trkpt>
      <trkpt lat="44.35086" lon="2.8645">
        <ele>809</ele>
        <time>2013-03-04T13:16:32.860Z</time>
      </trkpt>
      <trkpt lat="44.35084" lon="2.86451">
        <ele>809</ele>
        <time>2013-03-04T13:16:34.860Z</time>
      </trkpt>
      <trkpt lat="44.35085" lon="2.86451">
        <ele>809</ele>
        <time>2013-03-04T13:16:40.960Z</time>
      </trkpt>
      <trkpt lat="44.35087" lon="2.8645">
        <ele>809</ele>
        <time>2013-03-04T13:16:44.960Z</time>
      </trkpt>
      <trkpt lat="44.35086" lon="2.86448">
        <ele>809</ele>
        <time>2013-03-04T13:16:47.860Z</time>
      </trkpt>
      <trkpt lat="44.35087" lon="2.86444">
        <ele>808</ele>
        <time>2013-03-04T13:16:51.860Z</time>
      </trkpt>
      <trkpt lat="44.3509" lon="2.86438">
        <ele>808</ele>
        <time>2013-03-04T13:16:53.860Z</time>
      </trkpt>
      <trkpt lat="44.35091" lon="2.86436">
        <ele>807</ele>
        <time>2013-03-04T13:16:54.960Z</time>
      </trkpt>
      <trkpt lat="44.35094" lon="2.86431">
        <ele>807</ele>
        <time>2013-03-04T13:16:56.840Z</time>
      </trkpt>
      <trkpt lat="44.35096" lon="2.86428">
        <ele>807</ele>
        <time>2013-03-04T13:16:58.950Z</time>
      </trkpt>
      <trkpt lat="44.35099" lon="2.86426">
        <ele>806</ele>
        <time>2013-03-04T13:17:00.950Z</time>
      </trkpt>
      <trkpt lat="44.35103" lon="2.86423">
        <ele>806</ele>
        <time>2013-03-04T13:17:03.130Z</time>
      </trkpt>
      <trkpt lat="44.35106" lon="2.86423">
        <ele>806</ele>
        <time>2013-03-04T13:17:04.950Z</time>
      </trkpt>
      <trkpt lat="44.35109" lon="2.86422">
        <ele>805</ele>
        <time>2013-03-04T13:17:06.850Z</time>
      </trkpt>
      <trkpt lat="44.35113" lon="2.8642">
        <ele>805</ele>
        <time>2013-03-04T13:17:08.860Z</time>
      </trkpt>
      <trkpt lat="44.35116" lon="2.8642">
        <ele>804</ele>
        <time>2013-03-04T13:17:10.850Z</time>
      </trkpt>
      <trkpt lat="44.35119" lon="2.86421">
        <ele>804</ele>
        <time>2013-03-04T13:17:12.950Z</time>
      </trkpt>
      <trkpt lat="44.35123" lon="2.86422">
        <ele>803</ele>
        <time>2013-03-04T13:17:14.850Z</time>
      </trkpt>
      <trkpt lat="44.35127" lon="2.86423">
        <ele>803</ele>
        <time>2013-03-04T13:17:16.910Z</time>
      </trkpt>
      <trkpt lat="44.35131" lon="2.86424">
        <ele>802</ele>
        <time>2013-03-04T13:17:18.850Z</time>
      </trkpt>
      <trkpt lat="44.35135" lon="2.86424">
        <ele>801</ele>
        <time>2013-03-04T13:17:20.850Z</time>
      </trkpt>
      <trkpt lat="44.35136" lon="2.86424">
        <ele>801</ele>
        <time>2013-03-04T13:17:21.950Z</time>
      </trkpt>
      <trkpt lat="44.35142" lon="2.86428">
        <ele>800</ele>
        <time>2013-03-04T13:17:23.850Z</time>
      </trkpt>
      <trkpt lat="44.35148" lon="2.86436">
        <ele>800</ele>
        <time>2013-03-04T13:17:25.950Z</time>
      </trkpt>
      <trkpt lat="44.35156" lon="2.86441">
        <ele>800</ele>
        <time>2013-03-04T13:17:27.850Z</time>
      </trkpt>
      <trkpt lat="44.35163" lon="2.86439">
        <ele>798</ele>
        <time>2013-03-04T13:17:29.850Z</time>
      </trkpt>
      <trkpt lat="44.3517" lon="2.86434">
        <ele>783</ele>
        <time>2013-03-04T13:17:31.850Z</time>
      </trkpt>
      <trkpt lat="44.35177" lon="2.86425">
        <ele>784</ele>
        <time>2013-03-04T13:17:33.900Z</time>
      </trkpt>
      <trkpt lat="44.35179" lon="2.86415">
        <ele>781</ele>
        <time>2013-03-04T13:17:35.830Z</time>
      </trkpt>
      <trkpt lat="44.3518" lon="2.86407">
        <ele>779</ele>
        <time>2013-03-04T13:17:37.840Z</time>
      </trkpt>
      <trkpt lat="44.35181" lon="2.86405">
        <ele>778</ele>
        <time>2013-03-04T13:17:38.940Z</time>
      </trkpt>
      <trkpt lat="44.35181" lon="2.86402">
        <ele>777</ele>
        <time>2013-03-04T13:17:40.850Z</time>
      </trkpt>
      <trkpt lat="44.35181" lon="2.86398">
        <ele>776</ele>
        <time>2013-03-04T13:17:42.840Z</time>
      </trkpt>
      <trkpt lat="44.35181" lon="2.86393">
        <ele>775</ele>
        <time>2013-03-04T13:17:44.840Z</time>
      </trkpt>
      <trkpt lat="44.3518" lon="2.86389">
        <ele>774</ele>
        <time>2013-03-04T13:17:46.840Z</time>
      </trkpt>
      <trkpt lat="44.3518" lon="2.86387">
        <ele>774</ele>
        <time>2013-03-04T13:17:47.940Z</time>
      </trkpt>
      <trkpt lat="44.3518" lon="2.86385">
        <ele>773</ele>
        <time>2013-03-04T13:17:49.920Z</time>
      </trkpt>
      <trkpt lat="44.3518" lon="2.8638">
        <ele>773</ele>
        <time>2013-03-04T13:17:51.840Z</time>
      </trkpt>
      <trkpt lat="44.3518" lon="2.86377">
        <ele>772</ele>
        <time>2013-03-04T13:17:54.130Z</time>
      </trkpt>
      <trkpt lat="44.35179" lon="2.86374">
        <ele>772</ele>
        <time>2013-03-04T13:17:55.840Z</time>
      </trkpt>
      <trkpt lat="44.3518" lon="2.86373">
        <ele>772</ele>
        <time>2013-03-04T13:17:56.940Z</time>
      </trkpt>
      <trkpt lat="44.3518" lon="2.8637">
        <ele>771</ele>
        <time>2013-03-04T13:17:58.840Z</time>
      </trkpt>
      <trkpt lat="44.35181" lon="2.86368">
        <ele>771</ele>
        <time>2013-03-04T13:17:59.900Z</time>
      </trkpt>
      <trkpt lat="44.35181" lon="2.86365">
        <ele>771</ele>
        <time>2013-03-04T13:18:01.940Z</time>
      </trkpt>
      <trkpt lat="44.3518" lon="2.8636">
        <ele>771</ele>
        <time>2013-03-04T13:18:03.840Z</time>
      </trkpt>
      <trkpt lat="44.35179" lon="2.86356">
        <ele>770</ele>
        <time>2013-03-04T13:18:04.940Z</time>
      </trkpt>
      <trkpt lat="44.35178" lon="2.8635">
        <ele>770</ele>
        <time>2013-03-04T13:18:06.840Z</time>
      </trkpt>
      <trkpt lat="44.35177" lon="2.86344">
        <ele>770</ele>
        <time>2013-03-04T13:18:08.840Z</time>
      </trkpt>
      <trkpt lat="44.35178" lon="2.86342">
        <ele>770</ele>
        <time>2013-03-04T13:18:10.130Z</time>
      </trkpt>
      <trkpt lat="44.35176" lon="2.8634">
        <ele>770</ele>
        <time>2013-03-04T13:18:11.840Z</time>
      </trkpt>
      <trkpt lat="44.35175" lon="2.86339">
        <ele>770</ele>
        <time>2013-03-04T13:18:14.890Z</time>
      </trkpt>
      <trkpt lat="44.35174" lon="2.86338">
        <ele>770</ele>
        <time>2013-03-04T13:18:16.890Z</time>
      </trkpt>
      <trkpt lat="44.35174" lon="2.86339">
        <ele>770</ele>
        <time>2013-03-04T13:18:20.830Z</time>
      </trkpt>
      <trkpt lat="44.35175" lon="2.86338">
        <ele>770</ele>
        <time>2013-03-04T13:18:23.830Z</time>
      </trkpt>
      <trkpt lat="44.35176" lon="2.86338">
        <ele>770</ele>
        <time>2013-03-04T13:18:37.930Z</time>
      </trkpt>
      <trkpt lat="44.35175" lon="2.86336">
        <ele>770</ele>
        <time>2013-03-04T13:18:47.130Z</time>
      </trkpt>
      <trkpt lat="44.35175" lon="2.86333">
        <ele>766</ele>
        <time>2013-03-04T13:18:49.130Z</time>
      </trkpt>
      <trkpt lat="44.35175" lon="2.86329">
        <ele>766</ele>
        <time>2013-03-04T13:18:50.810Z</time>
      </trkpt>
      <trkpt lat="44.35174" lon="2.86327">
        <ele>765</ele>
        <time>2013-03-04T13:18:52.130Z</time>
      </trkpt>
      <trkpt lat="44.35175" lon="2.86321">
        <ele>763</ele>
        <time>2013-03-04T13:18:54.130Z</time>
      </trkpt>
      <trkpt lat="44.35172" lon="2.86317">
        <ele>763</ele>
        <time>2013-03-04T13:18:55.830Z</time>
      </trkpt>
      <trkpt lat="44.35171" lon="2.86316">
        <ele>762</ele>
        <time>2013-03-04T13:18:56.930Z</time>
      </trkpt>
      <trkpt lat="44.3517" lon="2.86315">
        <ele>762</ele>
        <time>2013-03-04T13:18:58.130Z</time>
      </trkpt>
      <trkpt lat="44.35169" lon="2.86312">
        <ele>761</ele>
        <time>2013-03-04T13:18:59.880Z</time>
      </trkpt>
      <trkpt lat="44.35168" lon="2.8631">
        <ele>761</ele>
        <time>2013-03-04T13:19:01.130Z</time>
      </trkpt>
      <trkpt lat="44.35168" lon="2.86307">
        <ele>760</ele>
        <time>2013-03-04T13:19:03.130Z</time>
      </trkpt>
      <trkpt lat="44.35168" lon="2.86304">
        <ele>759</ele>
        <time>2013-03-04T13:19:05.130Z</time>
      </trkpt>
      <trkpt lat="44.35168" lon="2.86301">
        <ele>759</ele>
        <time>2013-03-04T13:19:09.130Z</time>
      </trkpt>
      <trkpt lat="44.35169" lon="2.86298">
        <ele>758</ele>
        <time>2013-03-04T13:19:10.920Z</time>
      </trkpt>
      <trkpt lat="44.3517" lon="2.86297">
        <ele>758</ele>
        <time>2013-03-04T13:19:12.020Z</time>
      </trkpt>
      <trkpt lat="44.35171" lon="2.86295">
        <ele>757</ele>
        <time>2013-03-04T13:19:14.020Z</time>
      </trkpt>
      <trkpt lat="44.35173" lon="2.86292">
        <ele>757</ele>
        <time>2013-03-04T13:19:15.920Z</time>
      </trkpt>
      <trkpt lat="44.35174" lon="2.86291">
        <ele>757</ele>
        <time>2013-03-04T13:19:16.980Z</time>
      </trkpt>
      <trkpt lat="44.35176" lon="2.86289">
        <ele>756</ele>
        <time>2013-03-04T13:19:19.020Z</time>
      </trkpt>
      <trkpt lat="44.35178" lon="2.86287">
        <ele>756</ele>
        <time>2013-03-04T13:19:20.830Z</time>
      </trkpt>
      <trkpt lat="44.35179" lon="2.86286">
        <ele>755</ele>
        <time>2013-03-04T13:19:22.020Z</time>
      </trkpt>
      <trkpt lat="44.35183" lon="2.86285">
        <ele>755</ele>
        <time>2013-03-04T13:19:23.920Z</time>
      </trkpt>
      <trkpt lat="44.35184" lon="2.86285">
        <ele>755</ele>
        <time>2013-03-04T13:19:25.020Z</time>
      </trkpt>
      <trkpt lat="44.35185" lon="2.86285">
        <ele>755</ele>
        <time>2013-03-04T13:19:27.020Z</time>
      </trkpt>
      <trkpt lat="44.35188" lon="2.86286">
        <ele>755</ele>
        <time>2013-03-04T13:19:29.020Z</time>
      </trkpt>
      <trkpt lat="44.35192" lon="2.86287">
        <ele>755</ele>
        <time>2013-03-04T13:19:31.020Z</time>
      </trkpt>
      <trkpt lat="44.35194" lon="2.86289">
        <ele>755</ele>
        <time>2013-03-04T13:19:33.020Z</time>
      </trkpt>
      <trkpt lat="44.35195" lon="2.8629">
        <ele>755</ele>
        <time>2013-03-04T13:19:34.920Z</time>
      </trkpt>
      <trkpt lat="44.35197" lon="2.86291">
        <ele>755</ele>
        <time>2013-03-04T13:19:36.020Z</time>
      </trkpt>
      <trkpt lat="44.352" lon="2.86295">
        <ele>755</ele>
        <time>2013-03-04T13:19:38.020Z</time>
      </trkpt>
      <trkpt lat="44.35201" lon="2.86297">
        <ele>755</ele>
        <time>2013-03-04T13:19:39.900Z</time>
      </trkpt>
      <trkpt lat="44.35202" lon="2.86298">
        <ele>755</ele>
        <time>2013-03-04T13:19:47.020Z</time>
      </trkpt>
      <trkpt lat="44.35204" lon="2.86301">
        <ele>756</ele>
        <time>2013-03-04T13:19:49.010Z</time>
      </trkpt>
      <trkpt lat="44.35206" lon="2.86304">
        <ele>756</ele>
        <time>2013-03-04T13:19:50.970Z</time>
      </trkpt>
      <trkpt lat="44.35209" lon="2.86307">
        <ele>756</ele>
        <time>2013-03-04T13:19:53.010Z</time>
      </trkpt>
      <trkpt lat="44.35215" lon="2.86309">
        <ele>755</ele>
        <time>2013-03-04T13:19:54.990Z</time>
      </trkpt>
      <trkpt lat="44.3522" lon="2.86309">
        <ele>755</ele>
        <time>2013-03-04T13:19:57.010Z</time>
      </trkpt>
      <trkpt lat="44.35227" lon="2.86307">
        <ele>754</ele>
        <time>2013-03-04T13:19:59.010Z</time>
      </trkpt>
      <trkpt lat="44.35233" lon="2.86305">
        <ele>754</ele>
        <time>2013-03-04T13:20:00.910Z</time>
      </trkpt>
      <trkpt lat="44.35236" lon="2.86303">
        <ele>754</ele>
        <time>2013-03-04T13:20:02.010Z</time>
      </trkpt>
      <trkpt lat="44.35241" lon="2.863">
        <ele>753</ele>
        <time>2013-03-04T13:20:04.010Z</time>
      </trkpt>
      <trkpt lat="44.3525" lon="2.86297">
        <ele>752</ele>
        <time>2013-03-04T13:20:06.010Z</time>
      </trkpt>
      <trkpt lat="44.35258" lon="2.86292">
        <ele>738</ele>
        <time>2013-03-04T13:20:08.010Z</time>
      </trkpt>
      <trkpt lat="44.35265" lon="2.86286">
        <ele>737</ele>
        <time>2013-03-04T13:20:10.010Z</time>
      </trkpt>
      <trkpt lat="44.35273" lon="2.8628">
        <ele>735</ele>
        <time>2013-03-04T13:20:12.010Z</time>
      </trkpt>
      <trkpt lat="44.3528" lon="2.86275">
        <ele>734</ele>
        <time>2013-03-04T13:20:14.010Z</time>
      </trkpt>
      <trkpt lat="44.35288" lon="2.86268">
        <ele>732</ele>
        <time>2013-03-04T13:20:15.910Z</time>
      </trkpt>
      <trkpt lat="44.35294" lon="2.86262">
        <ele>731</ele>
        <time>2013-03-04T13:20:17.910Z</time>
      </trkpt>
      <trkpt lat="44.35296" lon="2.86261">
        <ele>730</ele>
        <time>2013-03-04T13:20:19.010Z</time>
      </trkpt>
      <trkpt lat="44.35298" lon="2.86258">
        <ele>729</ele>
        <time>2013-03-04T13:20:21.000Z</time>
      </trkpt>
      <trkpt lat="44.35298" lon="2.86259">
        <ele>729</ele>
        <time>2013-03-04T13:20:25.000Z</time>
      </trkpt>
      <trkpt lat="44.35297" lon="2.86261">
        <ele>730</ele>
        <time>2013-03-04T13:20:27.000Z</time>
      </trkpt>
      <trkpt lat="44.35296" lon="2.86261">
        <ele>730</ele>
        <time>2013-03-04T13:20:30.900Z</time>
      </trkpt>
      <trkpt lat="44.35294" lon="2.86261">
        <ele>730</ele>
        <time>2013-03-04T13:20:33.000Z</time>
      </trkpt>
      <trkpt lat="44.35295" lon="2.86262">
        <ele>730</ele>
        <time>2013-03-04T13:20:38.000Z</time>
      </trkpt>
      <trkpt lat="44.35296" lon="2.86262">
        <ele>730</ele>
        <time>2013-03-04T13:20:42.000Z</time>
      </trkpt>
      <trkpt lat="44.35297" lon="2.86263">
        <ele>730</ele>
        <time>2013-03-04T13:20:53.900Z</time>
      </trkpt>
      <trkpt lat="44.35298" lon="2.86264">
        <ele>730</ele>
        <time>2013-03-04T13:20:56.000Z</time>
      </trkpt>
      <trkpt lat="44.35298" lon="2.86263">
        <ele>730</ele>
        <time>2013-03-04T13:20:59.950Z</time>
      </trkpt>
      <trkpt lat="44.35298" lon="2.86261">
        <ele>730</ele>
        <time>2013-03-04T13:21:02.990Z</time>
      </trkpt>
      <trkpt lat="44.35297" lon="2.8626">
        <ele>730</ele>
        <time>2013-03-04T13:21:06.990Z</time>
      </trkpt>
      <trkpt lat="44.35298" lon="2.86262">
        <ele>730</ele>
        <time>2013-03-04T13:21:12.990Z</time>
      </trkpt>
      <trkpt lat="44.35297" lon="2.86263">
        <ele>730</ele>
        <time>2013-03-04T13:21:14.990Z</time>
      </trkpt>
      <trkpt lat="44.35295" lon="2.86263">
        <ele>731</ele>
        <time>2013-03-04T13:21:16.850Z</time>
      </trkpt>
      <trkpt lat="44.35294" lon="2.86261">
        <ele>731</ele>
        <time>2013-03-04T13:21:17.990Z</time>
      </trkpt>
      <trkpt lat="44.35292" lon="2.86257">
        <ele>731</ele>
        <time>2013-03-04T13:21:19.880Z</time>
      </trkpt>
      <trkpt lat="44.35292" lon="2.86254">
        <ele>731</ele>
        <time>2013-03-04T13:21:21.890Z</time>
      </trkpt>
      <trkpt lat="44.35292" lon="2.86252">
        <ele>731</ele>
        <time>2013-03-04T13:21:22.990Z</time>
      </trkpt>
      <trkpt lat="44.35291" lon="2.86247">
        <ele>722</ele>
        <time>2013-03-04T13:21:24.990Z</time>
      </trkpt>
      <trkpt lat="44.3529" lon="2.86241">
        <ele>722</ele>
        <time>2013-03-04T13:21:26.990Z</time>
      </trkpt>
      <trkpt lat="44.35288" lon="2.86236">
        <ele>723</ele>
        <time>2013-03-04T13:21:28.990Z</time>
      </trkpt>
      <trkpt lat="44.35285" lon="2.86232">
        <ele>723</ele>
        <time>2013-03-04T13:21:30.990Z</time>
      </trkpt>
      <trkpt lat="44.35283" lon="2.86226">
        <ele>723</ele>
        <time>2013-03-04T13:21:32.990Z</time>
      </trkpt>
      <trkpt lat="44.3528" lon="2.86219">
        <ele>723</ele>
        <time>2013-03-04T13:21:34.990Z</time>
      </trkpt>
      <trkpt lat="44.35278" lon="2.86211">
        <ele>722</ele>
        <time>2013-03-04T13:21:36.990Z</time>
      </trkpt>
      <trkpt lat="44.35274" lon="2.86202">
        <ele>722</ele>
        <time>2013-03-04T13:21:38.990Z</time>
      </trkpt>
      <trkpt lat="44.35271" lon="2.86191">
        <ele>721</ele>
        <time>2013-03-04T13:21:40.990Z</time>
      </trkpt>
      <trkpt lat="44.35267" lon="2.86182">
        <ele>721</ele>
        <time>2013-03-04T13:21:42.980Z</time>
      </trkpt>
      <trkpt lat="44.35263" lon="2.86172">
        <ele>722</ele>
        <time>2013-03-04T13:21:44.980Z</time>
      </trkpt>
      <trkpt lat="44.35258" lon="2.86162">
        <ele>720</ele>
        <time>2013-03-04T13:21:46.970Z</time>
      </trkpt>
      <trkpt lat="44.35254" lon="2.8615">
        <ele>718</ele>
        <time>2013-03-04T13:21:48.880Z</time>
      </trkpt>
      <trkpt lat="44.35252" lon="2.86144">
        <ele>717</ele>
        <time>2013-03-04T13:21:49.980Z</time>
      </trkpt>
      <trkpt lat="44.35248" lon="2.86134">
        <ele>726</ele>
        <time>2013-03-04T13:21:51.880Z</time>
      </trkpt>
      <trkpt lat="44.35246" lon="2.86128">
        <ele>726</ele>
        <time>2013-03-04T13:21:52.980Z</time>
      </trkpt>
      <trkpt lat="44.35247" lon="2.86116">
        <ele>725</ele>
        <time>2013-03-04T13:21:54.980Z</time>
      </trkpt>
      <trkpt lat="44.35252" lon="2.86108">
        <ele>715</ele>
        <time>2013-03-04T13:21:56.980Z</time>
      </trkpt>
      <trkpt lat="44.35261" lon="2.86101">
        <ele>714</ele>
        <time>2013-03-04T13:21:58.980Z</time>
      </trkpt>
      <trkpt lat="44.3527" lon="2.86098">
        <ele>714</ele>
        <time>2013-03-04T13:22:00.960Z</time>
      </trkpt>
      <trkpt lat="44.35277" lon="2.86098">
        <ele>713</ele>
        <time>2013-03-04T13:22:02.980Z</time>
      </trkpt>
      <trkpt lat="44.35282" lon="2.86099">
        <ele>712</ele>
        <time>2013-03-04T13:22:04.880Z</time>
      </trkpt>
      <trkpt lat="44.35283" lon="2.86098">
        <ele>712</ele>
        <time>2013-03-04T13:22:05.980Z</time>
      </trkpt>
      <trkpt lat="44.35284" lon="2.86099">
        <ele>712</ele>
        <time>2013-03-04T13:22:07.880Z</time>
      </trkpt>
      <trkpt lat="44.35285" lon="2.861">
        <ele>712</ele>
        <time>2013-03-04T13:22:09.880Z</time>
      </trkpt>
      <trkpt lat="44.35284" lon="2.86101">
        <ele>712</ele>
        <time>2013-03-04T13:22:10.980Z</time>
      </trkpt>
      <trkpt lat="44.35284" lon="2.86099">
        <ele>712</ele>
        <time>2013-03-04T13:22:12.880Z</time>
      </trkpt>
      <trkpt lat="44.35284" lon="2.86098">
        <ele>712</ele>
        <time>2013-03-04T13:22:14.980Z</time>
      </trkpt>
      <trkpt lat="44.35286" lon="2.86098">
        <ele>712</ele>
        <time>2013-03-04T13:22:16.930Z</time>
      </trkpt>
      <trkpt lat="44.35287" lon="2.86099">
        <ele>712</ele>
        <time>2013-03-04T13:22:18.980Z</time>
      </trkpt>
      <trkpt lat="44.35286" lon="2.86099">
        <ele>712</ele>
        <time>2013-03-04T13:22:23.870Z</time>
      </trkpt>
      <trkpt lat="44.35285" lon="2.861">
        <ele>712</ele>
        <time>2013-03-04T13:22:27.870Z</time>
      </trkpt>
      <trkpt lat="44.35284" lon="2.86101">
        <ele>712</ele>
        <time>2013-03-04T13:22:30.870Z</time>
      </trkpt>
      <trkpt lat="44.35284" lon="2.86102">
        <ele>712</ele>
        <time>2013-03-04T13:22:32.870Z</time>
      </trkpt>
      <trkpt lat="44.35285" lon="2.861">
        <ele>712</ele>
        <time>2013-03-04T13:22:38.870Z</time>
      </trkpt>
      <trkpt lat="44.35286" lon="2.86099">
        <ele>712</ele>
        <time>2013-03-04T13:22:44.970Z</time>
      </trkpt>
      <trkpt lat="44.35288" lon="2.86098">
        <ele>712</ele>
        <time>2013-03-04T13:22:46.970Z</time>
      </trkpt>
      <trkpt lat="44.35292" lon="2.86097">
        <ele>711</ele>
        <time>2013-03-04T13:22:48.970Z</time>
      </trkpt>
      <trkpt lat="44.35298" lon="2.86099">
        <ele>710</ele>
        <time>2013-03-04T13:22:50.830Z</time>
      </trkpt>
      <trkpt lat="44.35304" lon="2.86102">
        <ele>710</ele>
        <time>2013-03-04T13:22:52.870Z</time>
      </trkpt>
      <trkpt lat="44.35309" lon="2.86106">
        <ele>709</ele>
        <time>2013-03-04T13:22:54.870Z</time>
      </trkpt>
      <trkpt lat="44.35316" lon="2.86108">
        <ele>709</ele>
        <time>2013-03-04T13:22:56.950Z</time>
      </trkpt>
      <trkpt lat="44.35323" lon="2.86111">
        <ele>708</ele>
        <time>2013-03-04T13:22:58.970Z</time>
      </trkpt>
      <trkpt lat="44.3533" lon="2.86114">
        <ele>708</ele>
        <time>2013-03-04T13:23:00.860Z</time>
      </trkpt>
      <trkpt lat="44.35334" lon="2.86115">
        <ele>699</ele>
        <time>2013-03-04T13:23:01.960Z</time>
      </trkpt>
      <trkpt lat="44.35341" lon="2.86118">
        <ele>698</ele>
        <time>2013-03-04T13:23:03.870Z</time>
      </trkpt>
      <trkpt lat="44.35347" lon="2.86119">
        <ele>698</ele>
        <time>2013-03-04T13:23:05.960Z</time>
      </trkpt>
      <trkpt lat="44.35354" lon="2.86121">
        <ele>698</ele>
        <time>2013-03-04T13:23:07.860Z</time>
      </trkpt>
      <trkpt lat="44.35357" lon="2.86122">
        <ele>697</ele>
        <time>2013-03-04T13:23:08.960Z</time>
      </trkpt>
      <trkpt lat="44.35364" lon="2.86124">
        <ele>697</ele>
        <time>2013-03-04T13:23:10.860Z</time>
      </trkpt>
      <trkpt lat="44.35371" lon="2.86124">
        <ele>696</ele>
        <time>2013-03-04T13:23:12.860Z</time>
      </trkpt>
      <trkpt lat="44.35374" lon="2.86124">
        <ele>696</ele>
        <time>2013-03-04T13:23:13.960Z</time>
      </trkpt>
      <trkpt lat="44.35381" lon="2.86124">
        <ele>696</ele>
        <time>2013-03-04T13:23:15.860Z</time>
      </trkpt>
      <trkpt lat="44.35384" lon="2.86123">
        <ele>695</ele>
        <time>2013-03-04T13:23:16.920Z</time>
      </trkpt>
      <trkpt lat="44.3539" lon="2.86122">
        <ele>695</ele>
        <time>2013-03-04T13:23:18.960Z</time>
      </trkpt>
      <trkpt lat="44.35398" lon="2.86119">
        <ele>695</ele>
        <time>2013-03-04T13:23:20.960Z</time>
      </trkpt>
      <trkpt lat="44.35405" lon="2.86117">
        <ele>694</ele>
        <time>2013-03-04T13:23:22.860Z</time>
      </trkpt>
      <trkpt lat="44.35412" lon="2.86113">
        <ele>694</ele>
        <time>2013-03-04T13:23:24.860Z</time>
      </trkpt>
      <trkpt lat="44.35418" lon="2.86108">
        <ele>688</ele>
        <time>2013-03-04T13:23:26.960Z</time>
      </trkpt>
      <trkpt lat="44.35424" lon="2.86103">
        <ele>689</ele>
        <time>2013-03-04T13:23:28.870Z</time>
      </trkpt>
      <trkpt lat="44.35428" lon="2.86096">
        <ele>689</ele>
        <time>2013-03-04T13:23:30.860Z</time>
      </trkpt>
      <trkpt lat="44.35434" lon="2.8609">
        <ele>689</ele>
        <time>2013-03-04T13:23:32.860Z</time>
      </trkpt>
      <trkpt lat="44.3544" lon="2.86085">
        <ele>688</ele>
        <time>2013-03-04T13:23:34.860Z</time>
      </trkpt>
      <trkpt lat="44.35441" lon="2.86081">
        <ele>691</ele>
        <time>2013-03-04T13:23:35.960Z</time>
      </trkpt>
      <trkpt lat="44.35445" lon="2.86075">
        <ele>691</ele>
        <time>2013-03-04T13:23:37.860Z</time>
      </trkpt>
      <trkpt lat="44.35449" lon="2.86068">
        <ele>690</ele>
        <time>2013-03-04T13:23:39.960Z</time>
      </trkpt>
      <trkpt lat="44.35453" lon="2.8606">
        <ele>690</ele>
        <time>2013-03-04T13:23:41.860Z</time>
      </trkpt>
      <trkpt lat="44.35458" lon="2.86054">
        <ele>690</ele>
        <time>2013-03-04T13:23:43.860Z</time>
      </trkpt>
      <trkpt lat="44.35464" lon="2.86052">
        <ele>690</ele>
        <time>2013-03-04T13:23:45.850Z</time>
      </trkpt>
      <trkpt lat="44.3547" lon="2.86058">
        <ele>689</ele>
        <time>2013-03-04T13:23:47.850Z</time>
      </trkpt>
      <trkpt lat="44.35472" lon="2.86061">
        <ele>689</ele>
        <time>2013-03-04T13:23:48.860Z</time>
      </trkpt>
      <trkpt lat="44.35476" lon="2.86071">
        <ele>688</ele>
        <time>2013-03-04T13:23:50.830Z</time>
      </trkpt>
      <trkpt lat="44.3548" lon="2.86082">
        <ele>687</ele>
        <time>2013-03-04T13:23:52.850Z</time>
      </trkpt>
      <trkpt lat="44.35485" lon="2.86089">
        <ele>685</ele>
        <time>2013-03-04T13:23:54.850Z</time>
      </trkpt>
      <trkpt lat="44.35491" lon="2.86093">
        <ele>685</ele>
        <time>2013-03-04T13:23:56.850Z</time>
      </trkpt>
      <trkpt lat="44.35498" lon="2.86094">
        <ele>684</ele>
        <time>2013-03-04T13:23:58.850Z</time>
      </trkpt>
      <trkpt lat="44.35504" lon="2.86094">
        <ele>682</ele>
        <time>2013-03-04T13:24:00.850Z</time>
      </trkpt>
      <trkpt lat="44.35507" lon="2.86094">
        <ele>681</ele>
        <time>2013-03-04T13:24:01.950Z</time>
      </trkpt>
      <trkpt lat="44.35514" lon="2.86095">
        <ele>680</ele>
        <time>2013-03-04T13:24:03.850Z</time>
      </trkpt>
      <trkpt lat="44.35521" lon="2.86095">
        <ele>680</ele>
        <time>2013-03-04T13:24:05.950Z</time>
      </trkpt>
      <trkpt lat="44.35527" lon="2.86094">
        <ele>679</ele>
        <time>2013-03-04T13:24:07.850Z</time>
      </trkpt>
      <trkpt lat="44.35534" lon="2.86093">
        <ele>679</ele>
        <time>2013-03-04T13:24:09.850Z</time>
      </trkpt>
      <trkpt lat="44.35539" lon="2.86091">
        <ele>678</ele>
        <time>2013-03-04T13:24:11.850Z</time>
      </trkpt>
      <trkpt lat="44.35546" lon="2.86089">
        <ele>678</ele>
        <time>2013-03-04T13:24:13.850Z</time>
      </trkpt>
      <trkpt lat="44.35552" lon="2.86089">
        <ele>678</ele>
        <time>2013-03-04T13:24:15.850Z</time>
      </trkpt>
      <trkpt lat="44.35556" lon="2.86089">
        <ele>677</ele>
        <time>2013-03-04T13:24:16.900Z</time>
      </trkpt>
      <trkpt lat="44.35563" lon="2.86088">
        <ele>677</ele>
        <time>2013-03-04T13:24:18.850Z</time>
      </trkpt>
      <trkpt lat="44.3557" lon="2.86084">
        <ele>677</ele>
        <time>2013-03-04T13:24:20.850Z</time>
      </trkpt>
      <trkpt lat="44.35575" lon="2.86079">
        <ele>678</ele>
        <time>2013-03-04T13:24:22.850Z</time>
      </trkpt>
      <trkpt lat="44.35579" lon="2.86072">
        <ele>678</ele>
        <time>2013-03-04T13:24:24.850Z</time>
      </trkpt>
      <trkpt lat="44.35583" lon="2.86064">
        <ele>679</ele>
        <time>2013-03-04T13:24:26.850Z</time>
      </trkpt>
      <trkpt lat="44.35587" lon="2.86056">
        <ele>676</ele>
        <time>2013-03-04T13:24:28.840Z</time>
      </trkpt>
      <trkpt lat="44.3559" lon="2.86049">
        <ele>676</ele>
        <time>2013-03-04T13:24:30.840Z</time>
      </trkpt>
      <trkpt lat="44.35591" lon="2.86046">
        <ele>677</ele>
        <time>2013-03-04T13:24:31.940Z</time>
      </trkpt>
      <trkpt lat="44.35595" lon="2.86038">
        <ele>677</ele>
        <time>2013-03-04T13:24:33.800Z</time>
      </trkpt>
      <trkpt lat="44.35598" lon="2.86032">
        <ele>677</ele>
        <time>2013-03-04T13:24:35.840Z</time>
      </trkpt>
      <trkpt lat="44.35601" lon="2.86026">
        <ele>677</ele>
        <time>2013-03-04T13:24:37.840Z</time>
      </trkpt>
      <trkpt lat="44.35603" lon="2.86022">
        <ele>677</ele>
        <time>2013-03-04T13:24:40.130Z</time>
      </trkpt>
      <trkpt lat="44.35607" lon="2.8602">
        <ele>677</ele>
        <time>2013-03-04T13:24:41.750Z</time>
      </trkpt>
      <trkpt lat="44.35607" lon="2.86016">
        <ele>677</ele>
        <time>2013-03-04T13:24:43.840Z</time>
      </trkpt>
      <trkpt lat="44.35607" lon="2.86013">
        <ele>677</ele>
        <time>2013-03-04T13:24:45.940Z</time>
      </trkpt>
      <trkpt lat="44.35607" lon="2.86015">
        <ele>677</ele>
        <time>2013-03-04T13:24:47.840Z</time>
      </trkpt>
      <trkpt lat="44.35608" lon="2.86015">
        <ele>677</ele>
        <time>2013-03-04T13:24:57.840Z</time>
      </trkpt>
      <trkpt lat="44.35608" lon="2.86015">
        <ele>677</ele>
        <time>2013-03-04T13:24:59.790Z</time>
      </trkpt>
      <trkpt lat="44.35607" lon="2.86013">
        <ele>677</ele>
        <time>2013-03-04T13:25:02.940Z</time>
      </trkpt>
      <trkpt lat="44.35606" lon="2.86011">
        <ele>678</ele>
        <time>2013-03-04T13:25:04.940Z</time>
      </trkpt>
      <trkpt lat="44.35606" lon="2.86007">
        <ele>678</ele>
        <time>2013-03-04T13:25:06.830Z</time>
      </trkpt>
      <trkpt lat="44.35609" lon="2.86002">
        <ele>678</ele>
        <time>2013-03-04T13:25:08.830Z</time>
      </trkpt>
      <trkpt lat="44.35612" lon="2.85998">
        <ele>679</ele>
        <time>2013-03-04T13:25:10.830Z</time>
      </trkpt>
      <trkpt lat="44.35616" lon="2.85993">
        <ele>679</ele>
        <time>2013-03-04T13:25:12.840Z</time>
      </trkpt>
      <trkpt lat="44.35618" lon="2.85991">
        <ele>679</ele>
        <time>2013-03-04T13:25:14.140Z</time>
      </trkpt>
      <trkpt lat="44.35623" lon="2.85986">
        <ele>679</ele>
        <time>2013-03-04T13:25:16.140Z</time>
      </trkpt>
      <trkpt lat="44.35627" lon="2.85981">
        <ele>679</ele>
        <time>2013-03-04T13:25:18.130Z</time>
      </trkpt>
      <trkpt lat="44.35631" lon="2.85975">
        <ele>679</ele>
        <time>2013-03-04T13:25:19.830Z</time>
      </trkpt>
      <trkpt lat="44.35634" lon="2.85973">
        <ele>679</ele>
        <time>2013-03-04T13:25:20.930Z</time>
      </trkpt>
      <trkpt lat="44.35637" lon="2.85967">
        <ele>679</ele>
        <time>2013-03-04T13:25:22.930Z</time>
      </trkpt>
      <trkpt lat="44.35642" lon="2.85963">
        <ele>679</ele>
        <time>2013-03-04T13:25:25.130Z</time>
      </trkpt>
      <trkpt lat="44.35646" lon="2.85958">
        <ele>678</ele>
        <time>2013-03-04T13:25:26.830Z</time>
      </trkpt>
      <trkpt lat="44.35649" lon="2.85955">
        <ele>678</ele>
        <time>2013-03-04T13:25:28.130Z</time>
      </trkpt>
      <trkpt lat="44.35651" lon="2.85953">
        <ele>678</ele>
        <time>2013-03-04T13:25:29.130Z</time>
      </trkpt>
      <trkpt lat="44.35655" lon="2.85947">
        <ele>678</ele>
        <time>2013-03-04T13:25:31.130Z</time>
      </trkpt>
      <trkpt lat="44.35659" lon="2.85942">
        <ele>678</ele>
        <time>2013-03-04T13:25:33.140Z</time>
      </trkpt>
      <trkpt lat="44.35665" lon="2.85935">
        <ele>678</ele>
        <time>2013-03-04T13:25:35.130Z</time>
      </trkpt>
      <trkpt lat="44.35669" lon="2.85929">
        <ele>675</ele>
        <time>2013-03-04T13:25:36.910Z</time>
      </trkpt>
      <trkpt lat="44.35673" lon="2.85924">
        <ele>675</ele>
        <time>2013-03-04T13:25:39.130Z</time>
      </trkpt>
      <trkpt lat="44.35678" lon="2.85918">
        <ele>675</ele>
        <time>2013-03-04T13:25:41.130Z</time>
      </trkpt>
      <trkpt lat="44.35682" lon="2.85912">
        <ele>674</ele>
        <time>2013-03-04T13:25:42.930Z</time>
      </trkpt>
      <trkpt lat="44.35688" lon="2.85905">
        <ele>673</ele>
        <time>2013-03-04T13:25:45.130Z</time>
      </trkpt>
      <trkpt lat="44.35694" lon="2.85899">
        <ele>673</ele>
        <time>2013-03-04T13:25:47.130Z</time>
      </trkpt>
      <trkpt lat="44.35698" lon="2.85893">
        <ele>672</ele>
        <time>2013-03-04T13:25:49.130Z</time>
      </trkpt>
      <trkpt lat="44.35703" lon="2.85887">
        <ele>672</ele>
        <time>2013-03-04T13:25:50.840Z</time>
      </trkpt>
      <trkpt lat="44.35709" lon="2.8588">
        <ele>671</ele>
        <time>2013-03-04T13:25:53.130Z</time>
      </trkpt>
      <trkpt lat="44.35711" lon="2.85876">
        <ele>671</ele>
        <time>2013-03-04T13:25:54.130Z</time>
      </trkpt>
      <trkpt lat="44.35716" lon="2.85867">
        <ele>671</ele>
        <time>2013-03-04T13:25:56.130Z</time>
      </trkpt>
      <trkpt lat="44.35719" lon="2.85856">
        <ele>671</ele>
        <time>2013-03-04T13:25:58.130Z</time>
      </trkpt>
      <trkpt lat="44.35722" lon="2.85847">
        <ele>670</ele>
        <time>2013-03-04T13:25:59.980Z</time>
      </trkpt>
      <trkpt lat="44.35724" lon="2.85838">
        <ele>670</ele>
        <time>2013-03-04T13:26:02.000Z</time>
      </trkpt>
      <trkpt lat="44.35726" lon="2.8583">
        <ele>669</ele>
        <time>2013-03-04T13:26:03.920Z</time>
      </trkpt>
      <trkpt lat="44.35728" lon="2.8582">
        <ele>669</ele>
        <time>2013-03-04T13:26:05.920Z</time>
      </trkpt>
      <trkpt lat="44.35728" lon="2.85816">
        <ele>669</ele>
        <time>2013-03-04T13:26:07.020Z</time>
      </trkpt>
      <trkpt lat="44.3573" lon="2.85807">
        <ele>669</ele>
        <time>2013-03-04T13:26:08.920Z</time>
      </trkpt>
      <trkpt lat="44.35731" lon="2.85796">
        <ele>669</ele>
        <time>2013-03-04T13:26:10.920Z</time>
      </trkpt>
      <trkpt lat="44.35732" lon="2.85787">
        <ele>669</ele>
        <time>2013-03-04T13:26:12.920Z</time>
      </trkpt>
      <trkpt lat="44.35733" lon="2.85782">
        <ele>669</ele>
        <time>2013-03-04T13:26:14.020Z</time>
      </trkpt>
      <trkpt lat="44.35735" lon="2.85772">
        <ele>669</ele>
        <time>2013-03-04T13:26:15.900Z</time>
      </trkpt>
      <trkpt lat="44.35737" lon="2.85769">
        <ele>668</ele>
        <time>2013-03-04T13:26:16.970Z</time>
      </trkpt>
      <trkpt lat="44.35743" lon="2.85764">
        <ele>668</ele>
        <time>2013-03-04T13:26:19.020Z</time>
      </trkpt>
      <trkpt lat="44.35748" lon="2.85761">
        <ele>667</ele>
        <time>2013-03-04T13:26:21.020Z</time>
      </trkpt>
      <trkpt lat="44.35754" lon="2.85758">
        <ele>664</ele>
        <time>2013-03-04T13:26:22.920Z</time>
      </trkpt>
      <trkpt lat="44.3576" lon="2.85754">
        <ele>664</ele>
        <time>2013-03-04T13:26:24.920Z</time>
      </trkpt>
      <trkpt lat="44.35766" lon="2.85751">
        <ele>663</ele>
        <time>2013-03-04T13:26:26.920Z</time>
      </trkpt>
      <trkpt lat="44.3577" lon="2.85749">
        <ele>664</ele>
        <time>2013-03-04T13:26:28.020Z</time>
      </trkpt>
      <trkpt lat="44.35778" lon="2.85746">
        <ele>663</ele>
        <time>2013-03-04T13:26:30.010Z</time>
      </trkpt>
      <trkpt lat="44.35785" lon="2.85744">
        <ele>663</ele>
        <time>2013-03-04T13:26:31.910Z</time>
      </trkpt>
      <trkpt lat="44.35789" lon="2.85742">
        <ele>663</ele>
        <time>2013-03-04T13:26:33.010Z</time>
      </trkpt>
      <trkpt lat="44.35794" lon="2.85739">
        <ele>663</ele>
        <time>2013-03-04T13:26:34.910Z</time>
      </trkpt>
      <trkpt lat="44.35799" lon="2.85733">
        <ele>662</ele>
        <time>2013-03-04T13:26:36.910Z</time>
      </trkpt>
      <trkpt lat="44.35802" lon="2.8573">
        <ele>662</ele>
        <time>2013-03-04T13:26:38.010Z</time>
      </trkpt>
      <trkpt lat="44.35808" lon="2.85724">
        <ele>662</ele>
        <time>2013-03-04T13:26:40.010Z</time>
      </trkpt>
      <trkpt lat="44.35814" lon="2.85718">
        <ele>662</ele>
        <time>2013-03-04T13:26:41.910Z</time>
      </trkpt>
      <trkpt lat="44.35819" lon="2.85713">
        <ele>662</ele>
        <time>2013-03-04T13:26:43.910Z</time>
      </trkpt>
      <trkpt lat="44.35821" lon="2.85709">
        <ele>662</ele>
        <time>2013-03-04T13:26:45.010Z</time>
      </trkpt>
      <trkpt lat="44.35825" lon="2.85703">
        <ele>662</ele>
        <time>2013-03-04T13:26:46.910Z</time>
      </trkpt>
      <trkpt lat="44.35829" lon="2.85698">
        <ele>662</ele>
        <time>2013-03-04T13:26:48.910Z</time>
      </trkpt>
      <trkpt lat="44.35833" lon="2.85692">
        <ele>662</ele>
        <time>2013-03-04T13:26:50.970Z</time>
      </trkpt>
      <trkpt lat="44.35836" lon="2.85686">
        <ele>659</ele>
        <time>2013-03-04T13:26:53.010Z</time>
      </trkpt>
      <trkpt lat="44.35841" lon="2.85679">
        <ele>659</ele>
        <time>2013-03-04T13:26:55.010Z</time>
      </trkpt>
      <trkpt lat="44.35845" lon="2.85672">
        <ele>660</ele>
        <time>2013-03-04T13:26:56.910Z</time>
      </trkpt>
      <trkpt lat="44.35846" lon="2.85668">
        <ele>660</ele>
        <time>2013-03-04T13:26:58.020Z</time>
      </trkpt>
      <trkpt lat="44.35849" lon="2.8566">
        <ele>660</ele>
        <time>2013-03-04T13:26:59.860Z</time>
      </trkpt>
      <trkpt lat="44.35851" lon="2.85654">
        <ele>660</ele>
        <time>2013-03-04T13:27:01.010Z</time>
      </trkpt>
      <trkpt lat="44.35854" lon="2.85647">
        <ele>659</ele>
        <time>2013-03-04T13:27:03.010Z</time>
      </trkpt>
      <trkpt lat="44.35858" lon="2.85639">
        <ele>659</ele>
        <time>2013-03-04T13:27:04.910Z</time>
      </trkpt>
      <trkpt lat="44.35862" lon="2.8563">
        <ele>659</ele>
        <time>2013-03-04T13:27:06.910Z</time>
      </trkpt>
      <trkpt lat="44.35864" lon="2.85626">
        <ele>659</ele>
        <time>2013-03-04T13:27:07.990Z</time>
      </trkpt>
      <trkpt lat="44.35868" lon="2.8562">
        <ele>659</ele>
        <time>2013-03-04T13:27:09.900Z</time>
      </trkpt>
      <trkpt lat="44.35871" lon="2.85617">
        <ele>659</ele>
        <time>2013-03-04T13:27:11.000Z</time>
      </trkpt>
      <trkpt lat="44.35876" lon="2.85611">
        <ele>658</ele>
        <time>2013-03-04T13:27:13.000Z</time>
      </trkpt>
      <trkpt lat="44.35881" lon="2.85604">
        <ele>658</ele>
        <time>2013-03-04T13:27:15.000Z</time>
      </trkpt>
      <trkpt lat="44.35886" lon="2.85598">
        <ele>658</ele>
        <time>2013-03-04T13:27:16.790Z</time>
      </trkpt>
      <trkpt lat="44.35891" lon="2.8559">
        <ele>657</ele>
        <time>2013-03-04T13:27:18.900Z</time>
      </trkpt>
      <trkpt lat="44.35897" lon="2.85583">
        <ele>660</ele>
        <time>2013-03-04T13:27:20.890Z</time>
      </trkpt>
      <trkpt lat="44.35903" lon="2.85579">
        <ele>659</ele>
        <time>2013-03-04T13:27:23.000Z</time>
      </trkpt>
      <trkpt lat="44.35909" lon="2.85574">
        <ele>659</ele>
        <time>2013-03-04T13:27:24.900Z</time>
      </trkpt>
      <trkpt lat="44.35914" lon="2.85569">
        <ele>659</ele>
        <time>2013-03-04T13:27:26.900Z</time>
      </trkpt>
      <trkpt lat="44.3592" lon="2.85563">
        <ele>655</ele>
        <time>2013-03-04T13:27:28.900Z</time>
      </trkpt>
      <trkpt lat="44.35926" lon="2.85556">
        <ele>655</ele>
        <time>2013-03-04T13:27:30.900Z</time>
      </trkpt>
      <trkpt lat="44.35932" lon="2.85549">
        <ele>655</ele>
        <time>2013-03-04T13:27:32.900Z</time>
      </trkpt>
      <trkpt lat="44.35936" lon="2.85546">
        <ele>655</ele>
        <time>2013-03-04T13:27:33.960Z</time>
      </trkpt>
      <trkpt lat="44.35942" lon="2.85541">
        <ele>655</ele>
        <time>2013-03-04T13:27:35.880Z</time>
      </trkpt>
      <trkpt lat="44.35946" lon="2.85537">
        <ele>655</ele>
        <time>2013-03-04T13:27:37.000Z</time>
      </trkpt>
      <trkpt lat="44.35952" lon="2.85532">
        <ele>655</ele>
        <time>2013-03-04T13:27:39.000Z</time>
      </trkpt>
      <trkpt lat="44.35957" lon="2.85526">
        <ele>655</ele>
        <time>2013-03-04T13:27:40.900Z</time>
      </trkpt>
      <trkpt lat="44.35964" lon="2.8552">
        <ele>654</ele>
        <time>2013-03-04T13:27:43.000Z</time>
      </trkpt>
      <trkpt lat="44.3597" lon="2.85514">
        <ele>654</ele>
        <time>2013-03-04T13:27:44.900Z</time>
      </trkpt>
      <trkpt lat="44.35977" lon="2.85511">
        <ele>653</ele>
        <time>2013-03-04T13:27:46.900Z</time>
      </trkpt>
      <trkpt lat="44.35984" lon="2.85506">
        <ele>653</ele>
        <time>2013-03-04T13:27:48.900Z</time>
      </trkpt>
      <trkpt lat="44.3599" lon="2.85503">
        <ele>652</ele>
        <time>2013-03-04T13:27:50.910Z</time>
      </trkpt>
      <trkpt lat="44.35996" lon="2.85498">
        <ele>653</ele>
        <time>2013-03-04T13:27:52.990Z</time>
      </trkpt>
      <trkpt lat="44.36003" lon="2.85494">
        <ele>651</ele>
        <time>2013-03-04T13:27:54.990Z</time>
      </trkpt>
      <trkpt lat="44.3601" lon="2.85492">
        <ele>651</ele>
        <time>2013-03-04T13:27:56.990Z</time>
      </trkpt>
      <trkpt lat="44.36018" lon="2.85489">
        <ele>650</ele>
        <time>2013-03-04T13:27:58.990Z</time>
      </trkpt>
      <trkpt lat="44.36024" lon="2.85484">
        <ele>650</ele>
        <time>2013-03-04T13:28:00.990Z</time>
      </trkpt>
      <trkpt lat="44.3603" lon="2.85479">
        <ele>650</ele>
        <time>2013-03-04T13:28:02.970Z</time>
      </trkpt>
      <trkpt lat="44.36036" lon="2.85474">
        <ele>650</ele>
        <time>2013-03-04T13:28:04.890Z</time>
      </trkpt>
      <trkpt lat="44.36041" lon="2.85468">
        <ele>650</ele>
        <time>2013-03-04T13:28:06.890Z</time>
      </trkpt>
      <trkpt lat="44.36044" lon="2.85465">
        <ele>650</ele>
        <time>2013-03-04T13:28:07.990Z</time>
      </trkpt>
      <trkpt lat="44.36048" lon="2.85461">
        <ele>650</ele>
        <time>2013-03-04T13:28:09.890Z</time>
      </trkpt>
      <trkpt lat="44.3605" lon="2.85458">
        <ele>650</ele>
        <time>2013-03-04T13:28:10.990Z</time>
      </trkpt>
      <trkpt lat="44.36053" lon="2.85454">
        <ele>650</ele>
        <time>2013-03-04T13:28:12.990Z</time>
      </trkpt>
      <trkpt lat="44.36056" lon="2.85452">
        <ele>649</ele>
        <time>2013-03-04T13:28:14.990Z</time>
      </trkpt>
      <trkpt lat="44.36059" lon="2.8545">
        <ele>649</ele>
        <time>2013-03-04T13:28:16.850Z</time>
      </trkpt>
      <trkpt lat="44.3606" lon="2.85448">
        <ele>649</ele>
        <time>2013-03-04T13:28:17.990Z</time>
      </trkpt>
      <trkpt lat="44.36061" lon="2.85443">
        <ele>649</ele>
        <time>2013-03-04T13:28:19.890Z</time>
      </trkpt>
      <trkpt lat="44.36062" lon="2.85441">
        <ele>649</ele>
        <time>2013-03-04T13:28:20.990Z</time>
      </trkpt>
      <trkpt lat="44.36065" lon="2.85436">
        <ele>649</ele>
        <time>2013-03-04T13:28:22.990Z</time>
      </trkpt>
      <trkpt lat="44.36068" lon="2.85432">
        <ele>649</ele>
        <time>2013-03-04T13:28:24.990Z</time>
      </trkpt>
      <trkpt lat="44.36071" lon="2.85426">
        <ele>649</ele>
        <time>2013-03-04T13:28:26.990Z</time>
      </trkpt>
      <trkpt lat="44.36073" lon="2.85421">
        <ele>649</ele>
        <time>2013-03-04T13:28:28.990Z</time>
      </trkpt>
      <trkpt lat="44.36076" lon="2.85414">
        <ele>650</ele>
        <time>2013-03-04T13:28:30.880Z</time>
      </trkpt>
      <trkpt lat="44.36078" lon="2.85408">
        <ele>651</ele>
        <time>2013-03-04T13:28:32.890Z</time>
      </trkpt>
      <trkpt lat="44.3608" lon="2.85404">
        <ele>651</ele>
        <time>2013-03-04T13:28:33.940Z</time>
      </trkpt>
      <trkpt lat="44.36083" lon="2.85398">
        <ele>652</ele>
        <time>2013-03-04T13:28:35.880Z</time>
      </trkpt>
      <trkpt lat="44.36084" lon="2.85395">
        <ele>648</ele>
        <time>2013-03-04T13:28:36.980Z</time>
      </trkpt>
      <trkpt lat="44.36086" lon="2.85388">
        <ele>648</ele>
        <time>2013-03-04T13:28:38.880Z</time>
      </trkpt>
      <trkpt lat="44.36088" lon="2.85381">
        <ele>648</ele>
        <time>2013-03-04T13:28:40.880Z</time>
      </trkpt>
      <trkpt lat="44.36089" lon="2.85378">
        <ele>648</ele>
        <time>2013-03-04T13:28:41.980Z</time>
      </trkpt>
      <trkpt lat="44.36091" lon="2.85371">
        <ele>648</ele>
        <time>2013-03-04T13:28:43.880Z</time>
      </trkpt>
      <trkpt lat="44.36094" lon="2.85363">
        <ele>648</ele>
        <time>2013-03-04T13:28:45.990Z</time>
      </trkpt>
      <trkpt lat="44.36097" lon="2.85355">
        <ele>649</ele>
        <time>2013-03-04T13:28:47.980Z</time>
      </trkpt>
      <trkpt lat="44.36099" lon="2.85347">
        <ele>649</ele>
        <time>2013-03-04T13:28:49.880Z</time>
      </trkpt>
      <trkpt lat="44.36101" lon="2.85343">
        <ele>649</ele>
        <time>2013-03-04T13:28:50.860Z</time>
      </trkpt>
      <trkpt lat="44.36104" lon="2.85334">
        <ele>649</ele>
        <time>2013-03-04T13:28:52.980Z</time>
      </trkpt>
      <trkpt lat="44.36107" lon="2.85326">
        <ele>650</ele>
        <time>2013-03-04T13:28:54.980Z</time>
      </trkpt>
      <trkpt lat="44.3611" lon="2.85318">
        <ele>650</ele>
        <time>2013-03-04T13:28:56.880Z</time>
      </trkpt>
      <trkpt lat="44.36113" lon="2.85311">
        <ele>650</ele>
        <time>2013-03-04T13:28:58.880Z</time>
      </trkpt>
      <trkpt lat="44.36115" lon="2.85304">
        <ele>650</ele>
        <time>2013-03-04T13:29:00.880Z</time>
      </trkpt>
      <trkpt lat="44.36118" lon="2.85297">
        <ele>650</ele>
        <time>2013-03-04T13:29:02.880Z</time>
      </trkpt>
      <trkpt lat="44.36119" lon="2.85293">
        <ele>650</ele>
        <time>2013-03-04T13:29:03.980Z</time>
      </trkpt>
      <trkpt lat="44.36122" lon="2.85286">
        <ele>650</ele>
        <time>2013-03-04T13:29:05.880Z</time>
      </trkpt>
      <trkpt lat="44.36123" lon="2.85282">
        <ele>650</ele>
        <time>2013-03-04T13:29:06.980Z</time>
      </trkpt>
      <trkpt lat="44.36126" lon="2.85275">
        <ele>650</ele>
        <time>2013-03-04T13:29:08.870Z</time>
      </trkpt>
      <trkpt lat="44.36128" lon="2.85268">
        <ele>650</ele>
        <time>2013-03-04T13:29:10.870Z</time>
      </trkpt>
      <trkpt lat="44.36131" lon="2.85261">
        <ele>650</ele>
        <time>2013-03-04T13:29:12.980Z</time>
      </trkpt>
      <trkpt lat="44.36134" lon="2.85253">
        <ele>650</ele>
        <time>2013-03-04T13:29:14.970Z</time>
      </trkpt>
      <trkpt lat="44.36137" lon="2.85246">
        <ele>651</ele>
        <time>2013-03-04T13:29:16.830Z</time>
      </trkpt>
      <trkpt lat="44.36139" lon="2.85239">
        <ele>651</ele>
        <time>2013-03-04T13:29:18.870Z</time>
      </trkpt>
      <trkpt lat="44.36141" lon="2.85233">
        <ele>651</ele>
        <time>2013-03-04T13:29:20.870Z</time>
      </trkpt>
      <trkpt lat="44.36142" lon="2.85229">
        <ele>651</ele>
        <time>2013-03-04T13:29:21.970Z</time>
      </trkpt>
      <trkpt lat="44.36143" lon="2.8522">
        <ele>651</ele>
        <time>2013-03-04T13:29:23.970Z</time>
      </trkpt>
      <trkpt lat="44.36146" lon="2.85213">
        <ele>651</ele>
        <time>2013-03-04T13:29:25.970Z</time>
      </trkpt>
      <trkpt lat="44.36148" lon="2.85206">
        <ele>651</ele>
        <time>2013-03-04T13:29:27.970Z</time>
      </trkpt>
      <trkpt lat="44.36149" lon="2.85199">
        <ele>651</ele>
        <time>2013-03-04T13:29:29.970Z</time>
      </trkpt>
      <trkpt lat="44.36152" lon="2.85193">
        <ele>651</ele>
        <time>2013-03-04T13:29:31.870Z</time>
      </trkpt>
      <trkpt lat="44.36154" lon="2.85187">
        <ele>651</ele>
        <time>2013-03-04T13:29:33.930Z</time>
      </trkpt>
      <trkpt lat="44.36157" lon="2.85181">
        <ele>651</ele>
        <time>2013-03-04T13:29:35.870Z</time>
      </trkpt>
      <trkpt lat="44.3616" lon="2.85175">
        <ele>651</ele>
        <time>2013-03-04T13:29:37.870Z</time>
      </trkpt>
      <trkpt lat="44.36161" lon="2.85172">
        <ele>651</ele>
        <time>2013-03-04T13:29:38.970Z</time>
      </trkpt>
      <trkpt lat="44.36165" lon="2.85166">
        <ele>651</ele>
        <time>2013-03-04T13:29:40.950Z</time>
      </trkpt>
      <trkpt lat="44.36167" lon="2.85161">
        <ele>651</ele>
        <time>2013-03-04T13:29:42.870Z</time>
      </trkpt>
      <trkpt lat="44.36169" lon="2.85159">
        <ele>651</ele>
        <time>2013-03-04T13:29:43.970Z</time>
      </trkpt>
      <trkpt lat="44.36171" lon="2.85155">
        <ele>652</ele>
        <time>2013-03-04T13:29:45.970Z</time>
      </trkpt>
      <trkpt lat="44.36175" lon="2.85151">
        <ele>652</ele>
        <time>2013-03-04T13:29:47.970Z</time>
      </trkpt>
      <trkpt lat="44.36178" lon="2.85148">
        <ele>652</ele>
        <time>2013-03-04T13:29:49.970Z</time>
      </trkpt>
      <trkpt lat="44.36181" lon="2.85143">
        <ele>652</ele>
        <time>2013-03-04T13:29:51.860Z</time>
      </trkpt>
      <trkpt lat="44.36182" lon="2.85139">
        <ele>652</ele>
        <time>2013-03-04T13:29:53.960Z</time>
      </trkpt>
      <trkpt lat="44.36183" lon="2.85134">
        <ele>652</ele>
        <time>2013-03-04T13:29:55.950Z</time>
      </trkpt>
      <trkpt lat="44.36184" lon="2.85129">
        <ele>653</ele>
        <time>2013-03-04T13:29:57.860Z</time>
      </trkpt>
      <trkpt lat="44.36185" lon="2.85125">
        <ele>653</ele>
        <time>2013-03-04T13:29:59.820Z</time>
      </trkpt>
      <trkpt lat="44.36185" lon="2.85122">
        <ele>653</ele>
        <time>2013-03-04T13:30:00.960Z</time>
      </trkpt>
      <trkpt lat="44.36186" lon="2.85117">
        <ele>653</ele>
        <time>2013-03-04T13:30:02.960Z</time>
      </trkpt>
      <trkpt lat="44.36187" lon="2.85111">
        <ele>653</ele>
        <time>2013-03-04T13:30:04.960Z</time>
      </trkpt>
      <trkpt lat="44.36187" lon="2.85105">
        <ele>653</ele>
        <time>2013-03-04T13:30:06.860Z</time>
      </trkpt>
      <trkpt lat="44.36187" lon="2.85102">
        <ele>653</ele>
        <time>2013-03-04T13:30:07.940Z</time>
      </trkpt>
      <trkpt lat="44.36189" lon="2.85097">
        <ele>653</ele>
        <time>2013-03-04T13:30:09.860Z</time>
      </trkpt>
      <trkpt lat="44.36191" lon="2.85094">
        <ele>653</ele>
        <time>2013-03-04T13:30:10.960Z</time>
      </trkpt>
      <trkpt lat="44.36193" lon="2.85089">
        <ele>653</ele>
        <time>2013-03-04T13:30:12.860Z</time>
      </trkpt>
      <trkpt lat="44.36195" lon="2.85084">
        <ele>653</ele>
        <time>2013-03-04T13:30:14.860Z</time>
      </trkpt>
      <trkpt lat="44.36196" lon="2.85082">
        <ele>654</ele>
        <time>2013-03-04T13:30:15.960Z</time>
      </trkpt>
      <trkpt lat="44.36198" lon="2.8508">
        <ele>654</ele>
        <time>2013-03-04T13:30:17.960Z</time>
      </trkpt>
      <trkpt lat="44.36199" lon="2.85076">
        <ele>654</ele>
        <time>2013-03-04T13:30:19.960Z</time>
      </trkpt>
      <trkpt lat="44.362" lon="2.85071">
        <ele>655</ele>
        <time>2013-03-04T13:30:21.960Z</time>
      </trkpt>
      <trkpt lat="44.362" lon="2.85064">
        <ele>655</ele>
        <time>2013-03-04T13:30:23.960Z</time>
      </trkpt>
      <trkpt lat="44.36201" lon="2.85058">
        <ele>655</ele>
        <time>2013-03-04T13:30:25.960Z</time>
      </trkpt>
      <trkpt lat="44.36201" lon="2.85052">
        <ele>655</ele>
        <time>2013-03-04T13:30:27.960Z</time>
      </trkpt>
      <trkpt lat="44.36202" lon="2.85045">
        <ele>655</ele>
        <time>2013-03-04T13:30:29.960Z</time>
      </trkpt>
      <trkpt lat="44.36205" lon="2.85038">
        <ele>655</ele>
        <time>2013-03-04T13:30:31.850Z</time>
      </trkpt>
      <trkpt lat="44.36207" lon="2.85031">
        <ele>655</ele>
        <time>2013-03-04T13:30:33.740Z</time>
      </trkpt>
      <trkpt lat="44.36208" lon="2.85024">
        <ele>655</ele>
        <time>2013-03-04T13:30:35.850Z</time>
      </trkpt>
      <trkpt lat="44.36208" lon="2.85019">
        <ele>655</ele>
        <time>2013-03-04T13:30:36.940Z</time>
      </trkpt>
      <trkpt lat="44.3621" lon="2.85012">
        <ele>655</ele>
        <time>2013-03-04T13:30:38.950Z</time>
      </trkpt>
      <trkpt lat="44.36213" lon="2.85004">
        <ele>655</ele>
        <time>2013-03-04T13:30:40.950Z</time>
      </trkpt>
      <trkpt lat="44.36215" lon="2.84996">
        <ele>655</ele>
        <time>2013-03-04T13:30:42.850Z</time>
      </trkpt>
      <trkpt lat="44.36218" lon="2.84988">
        <ele>655</ele>
        <time>2013-03-04T13:30:44.950Z</time>
      </trkpt>
      <trkpt lat="44.3622" lon="2.8498">
        <ele>655</ele>
        <time>2013-03-04T13:30:46.850Z</time>
      </trkpt>
      <trkpt lat="44.36221" lon="2.84976">
        <ele>655</ele>
        <time>2013-03-04T13:30:47.950Z</time>
      </trkpt>
      <trkpt lat="44.36224" lon="2.84968">
        <ele>655</ele>
        <time>2013-03-04T13:30:49.850Z</time>
      </trkpt>
      <trkpt lat="44.36226" lon="2.84965">
        <ele>655</ele>
        <time>2013-03-04T13:30:50.910Z</time>
      </trkpt>
      <trkpt lat="44.3623" lon="2.8496">
        <ele>655</ele>
        <time>2013-03-04T13:30:52.950Z</time>
      </trkpt>
      <trkpt lat="44.36234" lon="2.84957">
        <ele>655</ele>
        <time>2013-03-04T13:30:54.850Z</time>
      </trkpt>
      <trkpt lat="44.36237" lon="2.84957">
        <ele>655</ele>
        <time>2013-03-04T13:30:55.950Z</time>
      </trkpt>
      <trkpt lat="44.36244" lon="2.8496">
        <ele>655</ele>
        <time>2013-03-04T13:30:57.850Z</time>
      </trkpt>
      <trkpt lat="44.36249" lon="2.84962">
        <ele>655</ele>
        <time>2013-03-04T13:30:59.800Z</time>
      </trkpt>
      <trkpt lat="44.36251" lon="2.84964">
        <ele>653</ele>
        <time>2013-03-04T13:31:00.950Z</time>
      </trkpt>
      <trkpt lat="44.36255" lon="2.84968">
        <ele>653</ele>
        <time>2013-03-04T13:31:02.930Z</time>
      </trkpt>
      <trkpt lat="44.36259" lon="2.84971">
        <ele>653</ele>
        <time>2013-03-04T13:31:04.950Z</time>
      </trkpt>
      <trkpt lat="44.36264" lon="2.84975">
        <ele>653</ele>
        <time>2013-03-04T13:31:06.850Z</time>
      </trkpt>
      <trkpt lat="44.36266" lon="2.84977">
        <ele>653</ele>
        <time>2013-03-04T13:31:07.950Z</time>
      </trkpt>
      <trkpt lat="44.36272" lon="2.84981">
        <ele>652</ele>
        <time>2013-03-04T13:31:09.850Z</time>
      </trkpt>
      <trkpt lat="44.36274" lon="2.84983">
        <ele>652</ele>
        <time>2013-03-04T13:31:10.950Z</time>
      </trkpt>
      <trkpt lat="44.36279" lon="2.84987">
        <ele>652</ele>
        <time>2013-03-04T13:31:12.850Z</time>
      </trkpt>
      <trkpt lat="44.36284" lon="2.8499">
        <ele>652</ele>
        <time>2013-03-04T13:31:14.940Z</time>
      </trkpt>
      <trkpt lat="44.3629" lon="2.84991">
        <ele>652</ele>
        <time>2013-03-04T13:31:16.800Z</time>
      </trkpt>
      <trkpt lat="44.36295" lon="2.84995">
        <ele>652</ele>
        <time>2013-03-04T13:31:18.940Z</time>
      </trkpt>
      <trkpt lat="44.36299" lon="2.84998">
        <ele>652</ele>
        <time>2013-03-04T13:31:20.840Z</time>
      </trkpt>
      <trkpt lat="44.36305" lon="2.85003">
        <ele>652</ele>
        <time>2013-03-04T13:31:22.940Z</time>
      </trkpt>
      <trkpt lat="44.36311" lon="2.85007">
        <ele>652</ele>
        <time>2013-03-04T13:31:24.840Z</time>
      </trkpt>
      <trkpt lat="44.36313" lon="2.85008">
        <ele>652</ele>
        <time>2013-03-04T13:31:25.940Z</time>
      </trkpt>
      <trkpt lat="44.3632" lon="2.85011">
        <ele>651</ele>
        <time>2013-03-04T13:31:27.840Z</time>
      </trkpt>
      <trkpt lat="44.36326" lon="2.85012">
        <ele>651</ele>
        <time>2013-03-04T13:31:29.940Z</time>
      </trkpt>
      <trkpt lat="44.36332" lon="2.85014">
        <ele>651</ele>
        <time>2013-03-04T13:31:31.840Z</time>
      </trkpt>
      <trkpt lat="44.36335" lon="2.85015">
        <ele>650</ele>
        <time>2013-03-04T13:31:32.940Z</time>
      </trkpt>
      <trkpt lat="44.36341" lon="2.8502">
        <ele>649</ele>
        <time>2013-03-04T13:31:34.840Z</time>
      </trkpt>
      <trkpt lat="44.36343" lon="2.85024">
        <ele>649</ele>
        <time>2013-03-04T13:31:35.940Z</time>
      </trkpt>
      <trkpt lat="44.36348" lon="2.8503">
        <ele>649</ele>
        <time>2013-03-04T13:31:37.940Z</time>
      </trkpt>
      <trkpt lat="44.36354" lon="2.85035">
        <ele>649</ele>
        <time>2013-03-04T13:31:39.840Z</time>
      </trkpt>
      <trkpt lat="44.3636" lon="2.85041">
        <ele>649</ele>
        <time>2013-03-04T13:31:41.940Z</time>
      </trkpt>
      <trkpt lat="44.36367" lon="2.85047">
        <ele>649</ele>
        <time>2013-03-04T13:31:43.840Z</time>
      </trkpt>
      <trkpt lat="44.36371" lon="2.8505">
        <ele>649</ele>
        <time>2013-03-04T13:31:44.940Z</time>
      </trkpt>
      <trkpt lat="44.36379" lon="2.85055">
        <ele>649</ele>
        <time>2013-03-04T13:31:46.840Z</time>
      </trkpt>
      <trkpt lat="44.36387" lon="2.8506">
        <ele>649</ele>
        <time>2013-03-04T13:31:48.840Z</time>
      </trkpt>
      <trkpt lat="44.36391" lon="2.85063">
        <ele>649</ele>
        <time>2013-03-04T13:31:49.940Z</time>
      </trkpt>
      <trkpt lat="44.36401" lon="2.85066">
        <ele>648</ele>
        <time>2013-03-04T13:31:51.940Z</time>
      </trkpt>
      <trkpt lat="44.36406" lon="2.85067">
        <ele>648</ele>
        <time>2013-03-04T13:31:53.130Z</time>
      </trkpt>
      <trkpt lat="44.36416" lon="2.85067">
        <ele>648</ele>
        <time>2013-03-04T13:31:54.830Z</time>
      </trkpt>
      <trkpt lat="44.3642" lon="2.85068">
        <ele>647</ele>
        <time>2013-03-04T13:31:55.930Z</time>
      </trkpt>
      <trkpt lat="44.3643" lon="2.85068">
        <ele>647</ele>
        <time>2013-03-04T13:31:57.830Z</time>
      </trkpt>
      <trkpt lat="44.36435" lon="2.85068">
        <ele>647</ele>
        <time>2013-03-04T13:31:58.930Z</time>
      </trkpt>
      <trkpt lat="44.36446" lon="2.85069">
        <ele>646</ele>
        <time>2013-03-04T13:32:00.930Z</time>
      </trkpt>
      <trkpt lat="44.36454" lon="2.85069">
        <ele>646</ele>
        <time>2013-03-04T13:32:02.930Z</time>
      </trkpt>
      <trkpt lat="44.36463" lon="2.85068">
        <ele>646</ele>
        <time>2013-03-04T13:32:04.830Z</time>
      </trkpt>
      <trkpt lat="44.36468" lon="2.85068">
        <ele>646</ele>
        <time>2013-03-04T13:32:05.930Z</time>
      </trkpt>
      <trkpt lat="44.36477" lon="2.85069">
        <ele>646</ele>
        <time>2013-03-04T13:32:08.130Z</time>
      </trkpt>
      <trkpt lat="44.36487" lon="2.85071">
        <ele>646</ele>
        <time>2013-03-04T13:32:10.130Z</time>
      </trkpt>
      <trkpt lat="44.36494" lon="2.85071">
        <ele>646</ele>
        <time>2013-03-04T13:32:12.130Z</time>
      </trkpt>
      <trkpt lat="44.36501" lon="2.85072">
        <ele>645</ele>
        <time>2013-03-04T13:32:14.130Z</time>
      </trkpt>
      <trkpt lat="44.36509" lon="2.85072">
        <ele>645</ele>
        <time>2013-03-04T13:32:16.140Z</time>
      </trkpt>
      <trkpt lat="44.36517" lon="2.85072">
        <ele>645</ele>
        <time>2013-03-04T13:32:18.130Z</time>
      </trkpt>
      <trkpt lat="44.36525" lon="2.85074">
        <ele>644</ele>
        <time>2013-03-04T13:32:20.130Z</time>
      </trkpt>
      <trkpt lat="44.36531" lon="2.85075">
        <ele>644</ele>
        <time>2013-03-04T13:32:22.130Z</time>
      </trkpt>
      <trkpt lat="44.36538" lon="2.85075">
        <ele>644</ele>
        <time>2013-03-04T13:32:24.130Z</time>
      </trkpt>
      <trkpt lat="44.36542" lon="2.85077">
        <ele>644</ele>
        <time>2013-03-04T13:32:26.130Z</time>
      </trkpt>
      <trkpt lat="44.36546" lon="2.85078">
        <ele>644</ele>
        <time>2013-03-04T13:32:28.130Z</time>
      </trkpt>
      <trkpt lat="44.36551" lon="2.85079">
        <ele>644</ele>
        <time>2013-03-04T13:32:30.130Z</time>
      </trkpt>
      <trkpt lat="44.36557" lon="2.85079">
        <ele>644</ele>
        <time>2013-03-04T13:32:32.130Z</time>
      </trkpt>
      <trkpt lat="44.36563" lon="2.85074">
        <ele>644</ele>
        <time>2013-03-04T13:32:34.130Z</time>
      </trkpt>
      <trkpt lat="44.36566" lon="2.85068">
        <ele>643</ele>
        <time>2013-03-04T13:32:36.130Z</time>
      </trkpt>
      <trkpt lat="44.36568" lon="2.85064">
        <ele>643</ele>
        <time>2013-03-04T13:32:37.130Z</time>
      </trkpt>
      <trkpt lat="44.36571" lon="2.85055">
        <ele>643</ele>
        <time>2013-03-04T13:32:39.130Z</time>
      </trkpt>
      <trkpt lat="44.36574" lon="2.85047">
        <ele>643</ele>
        <time>2013-03-04T13:32:41.130Z</time>
      </trkpt>
      <trkpt lat="44.36578" lon="2.8504">
        <ele>643</ele>
        <time>2013-03-04T13:32:42.930Z</time>
      </trkpt>
      <trkpt lat="44.36579" lon="2.85036">
        <ele>643</ele>
        <time>2013-03-04T13:32:44.130Z</time>
      </trkpt>
      <trkpt lat="44.36582" lon="2.85026">
        <ele>643</ele>
        <time>2013-03-04T13:32:46.130Z</time>
      </trkpt>
      <trkpt lat="44.36586" lon="2.85019">
        <ele>642</ele>
        <time>2013-03-04T13:32:48.130Z</time>
      </trkpt>
      <trkpt lat="44.36588" lon="2.85017">
        <ele>642</ele>
        <time>2013-03-04T13:32:50.020Z</time>
      </trkpt>
      <trkpt lat="44.3659" lon="2.85017">
        <ele>642</ele>
        <time>2013-03-04T13:32:52.020Z</time>
      </trkpt>
      <trkpt lat="44.36592" lon="2.85019">
        <ele>642</ele>
        <time>2013-03-04T13:32:53.920Z</time>
      </trkpt>
      <trkpt lat="44.36593" lon="2.8502">
        <ele>642</ele>
        <time>2013-03-04T13:32:55.900Z</time>
      </trkpt>
      <trkpt lat="44.36595" lon="2.85019">
        <ele>642</ele>
        <time>2013-03-04T13:32:57.920Z</time>
      </trkpt>
      <trkpt lat="44.36596" lon="2.8502">
        <ele>642</ele>
        <time>2013-03-04T13:32:59.970Z</time>
      </trkpt>
      <trkpt lat="44.36595" lon="2.85018">
        <ele>642</ele>
        <time>2013-03-04T13:33:02.020Z</time>
      </trkpt>
      <trkpt lat="44.36593" lon="2.85016">
        <ele>642</ele>
        <time>2013-03-04T13:33:04.020Z</time>
      </trkpt>
      <trkpt lat="44.36593" lon="2.85013">
        <ele>642</ele>
        <time>2013-03-04T13:33:06.020Z</time>
      </trkpt>
      <trkpt lat="44.36594" lon="2.85014">
        <ele>642</ele>
        <time>2013-03-04T13:33:07.920Z</time>
      </trkpt>
      <trkpt lat="44.36594" lon="2.85016">
        <ele>642</ele>
        <time>2013-03-04T13:33:09.920Z</time>
      </trkpt>
      <trkpt lat="44.36593" lon="2.85016">
        <ele>642</ele>
        <time>2013-03-04T13:33:11.020Z</time>
      </trkpt>
      <trkpt lat="44.36592" lon="2.85017">
        <ele>642</ele>
        <time>2013-03-04T13:33:13.920Z</time>
      </trkpt>
      <trkpt lat="44.36591" lon="2.85018">
        <ele>642</ele>
        <time>2013-03-04T13:33:15.920Z</time>
      </trkpt>
      <trkpt lat="44.36591" lon="2.8502">
        <ele>642</ele>
        <time>2013-03-04T13:33:19.010Z</time>
      </trkpt>
      <trkpt lat="44.36594" lon="2.85019">
        <ele>642</ele>
        <time>2013-03-04T13:33:21.010Z</time>
      </trkpt>
      <trkpt lat="44.36595" lon="2.8502">
        <ele>642</ele>
        <time>2013-03-04T13:33:22.910Z</time>
      </trkpt>
      <trkpt lat="44.36596" lon="2.85018">
        <ele>642</ele>
        <time>2013-03-04T13:33:26.910Z</time>
      </trkpt>
      <trkpt lat="44.36595" lon="2.85018">
        <ele>642</ele>
        <time>2013-03-04T13:33:29.010Z</time>
      </trkpt>
      <trkpt lat="44.36596" lon="2.85019">
        <ele>642</ele>
        <time>2013-03-04T13:33:33.970Z</time>
      </trkpt>
      <trkpt lat="44.36596" lon="2.85021">
        <ele>642</ele>
        <time>2013-03-04T13:33:36.010Z</time>
      </trkpt>
      <trkpt lat="44.36595" lon="2.85021">
        <ele>642</ele>
        <time>2013-03-04T13:33:38.890Z</time>
      </trkpt>
      <trkpt lat="44.36596" lon="2.85022">
        <ele>642</ele>
        <time>2013-03-04T13:33:44.910Z</time>
      </trkpt>
      <trkpt lat="44.36595" lon="2.85021">
        <ele>642</ele>
        <time>2013-03-04T13:33:49.910Z</time>
      </trkpt>
      <trkpt lat="44.36594" lon="2.85018">
        <ele>642</ele>
        <time>2013-03-04T13:33:51.910Z</time>
      </trkpt>
      <trkpt lat="44.36593" lon="2.85021">
        <ele>642</ele>
        <time>2013-03-04T13:33:56.910Z</time>
      </trkpt>
      <trkpt lat="44.36594" lon="2.85025">
        <ele>642</ele>
        <time>2013-03-04T13:33:58.900Z</time>
      </trkpt>
      <trkpt lat="44.36594" lon="2.85027">
        <ele>642</ele>
        <time>2013-03-04T13:33:59.890Z</time>
      </trkpt>
      <trkpt lat="44.36595" lon="2.8503">
        <ele>642</ele>
        <time>2013-03-04T13:34:02.000Z</time>
      </trkpt>
      <trkpt lat="44.36596" lon="2.85033">
        <ele>642</ele>
        <time>2013-03-04T13:34:04.000Z</time>
      </trkpt>
      <trkpt lat="44.36598" lon="2.85036">
        <ele>642</ele>
        <time>2013-03-04T13:34:06.000Z</time>
      </trkpt>
      <trkpt lat="44.36599" lon="2.85037">
        <ele>642</ele>
        <time>2013-03-04T13:34:07.900Z</time>
      </trkpt>
      <trkpt lat="44.36599" lon="2.8504">
        <ele>642</ele>
        <time>2013-03-04T13:34:09.900Z</time>
      </trkpt>
      <trkpt lat="44.366" lon="2.8504">
        <ele>642</ele>
        <time>2013-03-04T13:34:11.900Z</time>
      </trkpt>
      <trkpt lat="44.36601" lon="2.85043">
        <ele>642</ele>
        <time>2013-03-04T13:34:13.900Z</time>
      </trkpt>
      <trkpt lat="44.36601" lon="2.85045">
        <ele>642</ele>
        <time>2013-03-04T13:34:15.900Z</time>
      </trkpt>
      <trkpt lat="44.36602" lon="2.85047">
        <ele>642</ele>
        <time>2013-03-04T13:34:17.900Z</time>
      </trkpt>
      <trkpt lat="44.36603" lon="2.85048">
        <ele>642</ele>
        <time>2013-03-04T13:34:19.900Z</time>
      </trkpt>
      <trkpt lat="44.36603" lon="2.8505">
        <ele>642</ele>
        <time>2013-03-04T13:34:21.900Z</time>
      </trkpt>
      <trkpt lat="44.36604" lon="2.85051">
        <ele>642</ele>
        <time>2013-03-04T13:34:23.900Z</time>
      </trkpt>
      <trkpt lat="44.36605" lon="2.85051">
        <ele>642</ele>
        <time>2013-03-04T13:34:25.900Z</time>
      </trkpt>
      <trkpt lat="44.36606" lon="2.85051">
        <ele>642</ele>
        <time>2013-03-04T13:34:31.000Z</time>
      </trkpt>
    </trkseg>
  </trk>
</gpx>